Wetterdaten: Sonntag, 15.10.2017
Datum Zeit Temp. A. Pool Temp. Feuchte A. Luftdruck Regen Wind Richtung Richtung Sonnenschein ET UV Solar Taupunkt Windchill Windben Empfang
15.10.2017 00:00 9,4 C 11,7 C 95 % 1028,1 hPa 0,0 l/m 0,0 km/h (0 Bft) O-NO 71 0 min 0,000 mm 0,0 UV-I 0 W/m 8,6 C 9,4 C 0,0 km/h (0 Bft) 100,00 %
15.10.2017 00:02 9,4 C 11,7 C 95 % 1028,2 hPa 0,0 l/m 0,0 km/h (0 Bft) O-NO 71 0 min 0,000 mm 0,0 UV-I 0 W/m 8,6 C 9,4 C 0,0 km/h (0 Bft) 100,00 %
15.10.2017 00:04 9,5 C 11,7 C 95 % 1028,1 hPa 0,0 l/m 1,4 km/h (1 Bft) O-NO 71 0 min 0,000 mm 0,0 UV-I 0 W/m 8,7 C 9,5 C 3,2 km/h (1 Bft) 100,00 %
15.10.2017 00:06 9,6 C 11,7 C 95 % 1028,1 hPa 0,0 l/m 1,9 km/h (1 Bft) O-NO 71 0 min 0,000 mm 0,0 UV-I 0 W/m 8,8 C 9,6 C 3,2 km/h (1 Bft) 100,00 %
15.10.2017 00:08 9,6 C 11,7 C 95 % 1028,1 hPa 0,0 l/m 1,2 km/h (1 Bft) O-NO 71 0 min 0,000 mm 0,0 UV-I 0 W/m 8,8 C 9,6 C 3,2 km/h (1 Bft) 100,00 %
15.10.2017 00:10 9,6 C 11,7 C 95 % 1028,0 hPa 0,0 l/m 0,0 km/h (0 Bft) O-NO 71 0 min 0,000 mm 0,0 UV-I 0 W/m 8,8 C 9,6 C 0,0 km/h (0 Bft) 100,00 %
15.10.2017 00:12 9,7 C 11,7 C 95 % 1028,0 hPa 0,0 l/m 0,0 km/h (0 Bft) O-NO 71 0 min 0,000 mm 0,0 UV-I 0 W/m 8,9 C 9,7 C 0,0 km/h (0 Bft) 100,00 %
15.10.2017 00:14 9,5 C 11,7 C 95 % 1028,0 hPa 0,0 l/m 0,0 km/h (0 Bft) O-NO 71 0 min 0,000 mm 0,0 UV-I 0 W/m 8,7 C 9,5 C 0,0 km/h (0 Bft) 100,00 %
15.10.2017 00:16 9,4 C 11,7 C 95 % 1028,0 hPa 0,0 l/m 0,0 km/h (0 Bft) O-NO 71 0 min 0,000 mm 0,0 UV-I 0 W/m 8,6 C 9,4 C 0,0 km/h (0 Bft) 97,87 %
15.10.2017 00:18 9,3 C 11,7 C 95 % 1028,0 hPa 0,0 l/m 0,0 km/h (0 Bft) O-NO 71 0 min 0,000 mm 0,0 UV-I 0 W/m 8,5 C 9,3 C 0,0 km/h (0 Bft) 97,87 %
15.10.2017 00:20 9,2 C 11,7 C 95 % 1028,0 hPa 0,0 l/m 0,0 km/h (0 Bft) O-NO 71 0 min 0,000 mm 0,0 UV-I 0 W/m 8,4 C 9,2 C 0,0 km/h (0 Bft) 100,00 %
15.10.2017 00:22 9,1 C 11,7 C 94 % 1028,0 hPa 0,0 l/m 0,0 km/h (0 Bft) O-NO 71 0 min 0,000 mm 0,0 UV-I 0 W/m 8,2 C 9,1 C 0,0 km/h (0 Bft) 100,00 %
15.10.2017 00:24 8,9 C 11,7 C 94 % 1028,0 hPa 0,0 l/m 0,6 km/h (0 Bft) O-NO 71 0 min 0,000 mm 0,0 UV-I 0 W/m 8,0 C 8,9 C 1,6 km/h (1 Bft) 100,00 %
15.10.2017 00:26 8,8 C 11,7 C 94 % 1028,1 hPa 0,0 l/m 0,1 km/h (0 Bft) O-NO 71 0 min 0,000 mm 0,0 UV-I 0 W/m 7,9 C 8,8 C 1,6 km/h (1 Bft) 100,00 %
15.10.2017 00:28 8,8 C 11,7 C 95 % 1028,1 hPa 0,0 l/m 0,0 km/h (0 Bft) O-NO 71 0 min 0,000 mm 0,0 UV-I 0 W/m 8,0 C 8,8 C 0,0 km/h (0 Bft) 100,00 %
15.10.2017 00:30 8,9 C 11,7 C 95 % 1028,1 hPa 0,0 l/m 0,0 km/h (0 Bft) O-NO 71 0 min 0,000 mm 0,0 UV-I 0 W/m 8,1 C 8,9 C 0,0 km/h (0 Bft) 94,74 %
15.10.2017 00:32 8,9 C 11,7 C 95 % 1028,1 hPa 0,0 l/m 0,0 km/h (0 Bft) O-NO 71 0 min 0,000 mm 0,0 UV-I 0 W/m 8,1 C 8,9 C 0,0 km/h (0 Bft) 100,00 %
15.10.2017 00:34 9,0 C 11,7 C 95 % 1028,1 hPa 0,0 l/m 0,0 km/h (0 Bft) O-NO 71 0 min 0,000 mm 0,0 UV-I 0 W/m 8,2 C 9,0 C 0,0 km/h (0 Bft) 100,00 %
15.10.2017 00:36 9,0 C 11,7 C 95 % 1028,1 hPa 0,0 l/m 0,0 km/h (0 Bft) O-NO 71 0 min 0,000 mm 0,0 UV-I 0 W/m 8,2 C 9,0 C 0,0 km/h (0 Bft) 95,74 %
15.10.2017 00:38 8,9 C 11,7 C 95 % 1028,1 hPa 0,0 l/m 0,0 km/h (0 Bft) O-NO 71 0 min 0,000 mm 0,0 UV-I 0 W/m 8,1 C 8,9 C 0,0 km/h (0 Bft) 97,92 %
15.10.2017 00:40 8,9 C 11,7 C 95 % 1028,1 hPa 0,0 l/m 0,0 km/h (0 Bft) O-NO 71 0 min 0,000 mm 0,0 UV-I 0 W/m 8,1 C 8,9 C 0,0 km/h (0 Bft) 97,87 %
15.10.2017 00:42 8,9 C 11,7 C 95 % 1028,1 hPa 0,0 l/m 0,0 km/h (0 Bft) O-NO 71 0 min 0,000 mm 0,0 UV-I 0 W/m 8,1 C 8,9 C 1,6 km/h (1 Bft) 97,87 %
15.10.2017 00:44 8,9 C 11,7 C 95 % 1028,1 hPa 0,0 l/m 0,5 km/h (0 Bft) O-NO 71 0 min 0,000 mm 0,0 UV-I 0 W/m 8,1 C 8,9 C 1,6 km/h (1 Bft) 97,87 %
15.10.2017 00:46 9,0 C 11,7 C 95 % 1028,2 hPa 0,0 l/m 0,4 km/h (0 Bft) O-NO 71 0 min 0,000 mm 0,0 UV-I 0 W/m 8,2 C 9,0 C 1,6 km/h (1 Bft) 93,62 %
15.10.2017 00:48 8,9 C 11,7 C 95 % 1028,2 hPa 0,0 l/m 0,0 km/h (0 Bft) O-NO 71 0 min 0,000 mm 0,0 UV-I 0 W/m 8,1 C 8,9 C 0,0 km/h (0 Bft) 96,00 %
15.10.2017 00:50 8,9 C 11,7 C 95 % 1028,2 hPa 0,0 l/m 0,0 km/h (0 Bft) O-NO 71 0 min 0,000 mm 0,0 UV-I 0 W/m 8,1 C 8,9 C 0,0 km/h (0 Bft) 94,74 %
15.10.2017 00:52 8,8 C 11,7 C 95 % 1028,1 hPa 0,0 l/m 0,0 km/h (0 Bft) O-NO 71 0 min 0,000 mm 0,0 UV-I 0 W/m 8,0 C 8,8 C 0,0 km/h (0 Bft) 97,87 %
15.10.2017 00:54 8,9 C 11,7 C 95 % 1028,1 hPa 0,0 l/m 2,1 km/h (1 Bft) O-NO 71 0 min 0,000 mm 0,0 UV-I 0 W/m 8,1 C 8,9 C 3,2 km/h (1 Bft) 97,73 %
15.10.2017 00:56 9,1 C 11,7 C 96 % 1028,1 hPa 0,0 l/m 2,1 km/h (1 Bft) O-NO 71 0 min 0,000 mm 0,0 UV-I 0 W/m 8,5 C 9,1 C 3,2 km/h (1 Bft) 98,31 %
15.10.2017 00:58 9,1 C 11,7 C 95 % 1028,1 hPa 0,0 l/m 1,7 km/h (1 Bft) O-NO 71 0 min 0,000 mm 0,0 UV-I 0 W/m 8,3 C 9,1 C 3,2 km/h (1 Bft) 97,37 %
15.10.2017 01:00 8,9 C 11,7 C 95 % 1028,1 hPa 0,0 l/m 1,5 km/h (1 Bft) O-NO 71 0 min 0,000 mm 0,0 UV-I 0 W/m 8,1 C 8,9 C 3,2 km/h (1 Bft) 97,87 %
15.10.2017 01:01 8,8 C 11,7 C 95 % 1028,1 hPa 0,0 l/m 1,9 km/h (1 Bft) O-NO 71 0 min 0,000 mm 0,0 UV-I 0 W/m 8,0 C 8,8 C 3,2 km/h (1 Bft) 98,00 %
15.10.2017 01:04 8,7 C 11,7 C 95 % 1028,1 hPa 0,0 l/m 2,6 km/h (1 Bft) O-NO 72 0 min 0,000 mm 0,0 UV-I 0 W/m 7,9 C 8,7 C 3,2 km/h (1 Bft) 96,23 %
15.10.2017 01:06 8,7 C 11,7 C 95 % 1028,1 hPa 0,0 l/m 2,2 km/h (1 Bft) O-NO 72 0 min 0,000 mm 0,0 UV-I 0 W/m 7,9 C 8,7 C 3,2 km/h (1 Bft) 96,00 %
15.10.2017 01:08 8,8 C 11,7 C 96 % 1028,2 hPa 0,0 l/m 1,2 km/h (1 Bft) O-NO 72 0 min 0,000 mm 0,0 UV-I 0 W/m 8,2 C 8,8 C 3,2 km/h (1 Bft) 97,56 %
15.10.2017 01:10 8,9 C 11,7 C 96 % 1028,2 hPa 0,0 l/m 0,0 km/h (0 Bft) O-NO 72 0 min 0,000 mm 0,0 UV-I 0 W/m 8,3 C 8,9 C 0,0 km/h (0 Bft) 98,11 %
15.10.2017 01:12 9,1 C 11,7 C 96 % 1028,2 hPa 0,0 l/m 0,0 km/h (0 Bft) O-NO 72 0 min 0,000 mm 0,0 UV-I 0 W/m 8,5 C 9,1 C 0,0 km/h (0 Bft) 98,00 %
15.10.2017 01:14 9,1 C 11,7 C 96 % 1028,2 hPa 0,0 l/m 0,5 km/h (0 Bft) O-NO 72 0 min 0,000 mm 0,0 UV-I 0 W/m 8,5 C 9,1 C 3,2 km/h (1 Bft) 97,87 %
15.10.2017 01:16 9,1 C 11,7 C 96 % 1028,2 hPa 0,0 l/m 1,9 km/h (1 Bft) O-NO 72 0 min 0,000 mm 0,0 UV-I 0 W/m 8,5 C 9,1 C 3,2 km/h (1 Bft) 94,74 %
15.10.2017 01:18 9,1 C 11,7 C 96 % 1028,2 hPa 0,0 l/m 0,7 km/h (0 Bft) O-NO 72 0 min 0,000 mm 0,0 UV-I 0 W/m 8,5 C 9,1 C 1,6 km/h (1 Bft) 98,00 %
15.10.2017 01:20 9,1 C 11,7 C 96 % 1028,2 hPa 0,0 l/m 0,1 km/h (0 Bft) O-NO 72 0 min 0,000 mm 0,0 UV-I 0 W/m 8,5 C 9,1 C 1,6 km/h (1 Bft) 100,00 %
15.10.2017 01:22 8,9 C 11,7 C 96 % 1028,1 hPa 0,0 l/m 1,5 km/h (1 Bft) O-NO 72 0 min 0,000 mm 0,0 UV-I 0 W/m 8,3 C 8,9 C 3,2 km/h (1 Bft) 100,00 %
15.10.2017 01:24 8,8 C 11,7 C 96 % 1028,2 hPa 0,0 l/m 1,1 km/h (1 Bft) O-NO 72 0 min 0,000 mm 0,0 UV-I 0 W/m 8,2 C 8,8 C 1,6 km/h (1 Bft) 100,00 %
15.10.2017 01:26 8,8 C 11,7 C 96 % 1028,2 hPa 0,0 l/m 0,5 km/h (0 Bft) O-NO 72 0 min 0,000 mm 0,0 UV-I 0 W/m 8,2 C 8,8 C 1,6 km/h (1 Bft) 100,00 %
15.10.2017 01:28 8,7 C 11,7 C 95 % 1028,2 hPa 0,0 l/m 0,0 km/h (0 Bft) O-NO 72 0 min 0,000 mm 0,0 UV-I 0 W/m 7,9 C 8,7 C 0,0 km/h (0 Bft) 100,00 %
15.10.2017 01:30 8,7 C 11,7 C 96 % 1028,2 hPa 0,0 l/m 0,0 km/h (0 Bft) O-NO 72 0 min 0,000 mm 0,0 UV-I 0 W/m 8,1 C 8,7 C 0,0 km/h (0 Bft) 100,00 %
15.10.2017 01:32 8,7 C 11,7 C 96 % 1028,2 hPa 0,0 l/m 0,0 km/h (0 Bft) O-NO 72 0 min 0,000 mm 0,0 UV-I 0 W/m 8,1 C 8,7 C 0,0 km/h (0 Bft) 100,00 %
15.10.2017 01:34 8,6 C 11,7 C 95 % 1028,2 hPa 0,0 l/m 0,7 km/h (0 Bft) O-NO 72 0 min 0,000 mm 0,0 UV-I 0 W/m 7,8 C 8,6 C 1,6 km/h (1 Bft) 97,87 %
15.10.2017 01:36 8,6 C 11,7 C 96 % 1028,2 hPa 0,0 l/m 1,8 km/h (1 Bft) O-NO 72 0 min 0,000 mm 0,0 UV-I 0 W/m 8,0 C 8,6 C 3,2 km/h (1 Bft) 100,00 %
15.10.2017 01:38 8,6 C 11,7 C 96 % 1028,2 hPa 0,0 l/m 0,6 km/h (0 Bft) O-NO 72 0 min 0,000 mm 0,0 UV-I 0 W/m 8,0 C 8,6 C 1,6 km/h (1 Bft) 97,56 %
15.10.2017 01:40 8,7 C 11,7 C 96 % 1028,2 hPa 0,0 l/m 0,2 km/h (0 Bft) O-NO 72 0 min 0,000 mm 0,0 UV-I 0 W/m 8,1 C 8,7 C 1,6 km/h (1 Bft) 100,00 %
15.10.2017 01:42 8,6 C 11,7 C 96 % 1028,2 hPa 0,0 l/m 0,4 km/h (0 Bft) O-NO 72 0 min 0,000 mm 0,0 UV-I 0 W/m 8,0 C 8,6 C 1,6 km/h (1 Bft) 100,00 %
15.10.2017 01:44 8,5 C 11,7 C 96 % 1028,2 hPa 0,0 l/m 2,3 km/h (1 Bft) O-NO 72 0 min 0,000 mm 0,0 UV-I 0 W/m 7,9 C 8,5 C 3,2 km/h (1 Bft) 100,00 %
15.10.2017 01:46 8,7 C 11,7 C 96 % 1028,1 hPa 0,0 l/m 1,5 km/h (1 Bft) O-NO 72 0 min 0,000 mm 0,0 UV-I 0 W/m 8,1 C 8,7 C 3,2 km/h (1 Bft) 100,00 %
15.10.2017 01:48 8,9 C 11,7 C 96 % 1028,1 hPa 0,0 l/m 0,9 km/h (0 Bft) O-SO 109 0 min 0,000 mm 0,0 UV-I 0 W/m 8,3 C 8,9 C 3,2 km/h (1 Bft) 100,00 %
15.10.2017 01:50 8,9 C 11,7 C 96 % 1028,1 hPa 0,0 l/m 0,1 km/h (0 Bft) O-SO 109 0 min 0,000 mm 0,0 UV-I 0 W/m 8,3 C 8,9 C 1,6 km/h (1 Bft) 100,00 %
15.10.2017 01:52 8,9 C 11,7 C 96 % 1028,1 hPa 0,0 l/m 1,2 km/h (1 Bft) O-SO 109 0 min 0,000 mm 0,0 UV-I 0 W/m 8,3 C 8,9 C 1,6 km/h (1 Bft) 98,21 %
15.10.2017 01:54 8,7 C 11,7 C 96 % 1028,1 hPa 0,0 l/m 0,0 km/h (0 Bft) O-SO 109 0 min 0,000 mm 0,0 UV-I 0 W/m 8,1 C 8,7 C 1,6 km/h (1 Bft) 100,00 %
15.10.2017 01:56 8,7 C 11,7 C 96 % 1028,1 hPa 0,0 l/m 0,0 km/h (0 Bft) O-SO 109 0 min 0,000 mm 0,0 UV-I 0 W/m 8,1 C 8,7 C 0,0 km/h (0 Bft) 100,00 %
15.10.2017 01:58 8,7 C 11,7 C 96 % 1028,2 hPa 0,0 l/m 0,0 km/h (0 Bft) O-SO 109 0 min 0,000 mm 0,0 UV-I 0 W/m 8,1 C 8,7 C 0,0 km/h (0 Bft) 100,00 %
15.10.2017 02:00 8,7 C 11,7 C 96 % 1028,2 hPa 0,0 l/m 0,0 km/h (0 Bft) O-SO 109 0 min 0,000 mm 0,0 UV-I 0 W/m 8,1 C 8,7 C 0,0 km/h (0 Bft) 98,00 %
15.10.2017 02:02 8,7 C 11,7 C 96 % 1028,2 hPa 0,0 l/m 0,0 km/h (0 Bft) O-SO 109 0 min 0,000 mm 0,0 UV-I 0 W/m 8,1 C 8,7 C 0,0 km/h (0 Bft) 97,87 %
15.10.2017 02:04 8,6 C 11,7 C 96 % 1028,2 hPa 0,0 l/m 0,0 km/h (0 Bft) O-SO 109 0 min 0,000 mm 0,0 UV-I 0 W/m 8,0 C 8,6 C 0,0 km/h (0 Bft) 97,44 %
15.10.2017 02:06 8,6 C 11,7 C 96 % 1028,1 hPa 0,0 l/m 0,0 km/h (0 Bft) O-SO 109 0 min 0,000 mm 0,0 UV-I 0 W/m 8,0 C 8,6 C 0,0 km/h (0 Bft) 100,00 %
15.10.2017 02:08 8,6 C 11,7 C 96 % 1028,2 hPa 0,0 l/m 0,0 km/h (0 Bft) O-SO 109 0 min 0,000 mm 0,0 UV-I 0 W/m 8,0 C 8,6 C 0,0 km/h (0 Bft) 98,00 %
15.10.2017 02:10 8,5 C 11,7 C 96 % 1028,2 hPa 0,0 l/m 0,0 km/h (0 Bft) O-SO 109 0 min 0,000 mm 0,0 UV-I 0 W/m 7,9 C 8,5 C 0,0 km/h (0 Bft) 95,74 %
15.10.2017 02:12 8,4 C 11,7 C 96 % 1028,2 hPa 0,0 l/m 0,0 km/h (0 Bft) O-SO 109 0 min 0,000 mm 0,0 UV-I 0 W/m 7,8 C 8,4 C 0,0 km/h (0 Bft) 94,34 %
15.10.2017 02:14 8,2 C 11,7 C 96 % 1028,1 hPa 0,0 l/m 0,1 km/h (0 Bft) O-SO 109 0 min 0,000 mm 0,0 UV-I 0 W/m 7,6 C 8,2 C 1,6 km/h (1 Bft) 97,37 %
15.10.2017 02:16 8,2 C 11,7 C 96 % 1028,1 hPa 0,0 l/m 2,0 km/h (1 Bft) O-SO 109 0 min 0,000 mm 0,0 UV-I 0 W/m 7,6 C 8,2 C 3,2 km/h (1 Bft) 98,00 %
15.10.2017 02:18 8,2 C 11,7 C 96 % 1028,1 hPa 0,0 l/m 2,2 km/h (1 Bft) O-SO 109 0 min 0,000 mm 0,0 UV-I 0 W/m 7,6 C 8,2 C 3,2 km/h (1 Bft) 97,56 %
15.10.2017 02:20 8,3 C 11,7 C 96 % 1028,1 hPa 0,0 l/m 1,9 km/h (1 Bft) O-SO 109 0 min 0,000 mm 0,0 UV-I 0 W/m 7,7 C 8,3 C 3,2 km/h (1 Bft) 96,00 %
15.10.2017 02:22 8,2 C 11,7 C 96 % 1028,1 hPa 0,0 l/m 0,9 km/h (0 Bft) O-SO 109 0 min 0,000 mm 0,0 UV-I 0 W/m 7,6 C 8,2 C 1,6 km/h (1 Bft) 97,87 %
15.10.2017 02:24 8,2 C 11,7 C 96 % 1028,2 hPa 0,0 l/m 0,0 km/h (0 Bft) O-SO 109 0 min 0,000 mm 0,0 UV-I 0 W/m 7,6 C 8,2 C 0,0 km/h (0 Bft) 98,00 %
15.10.2017 02:26 8,0 C 11,7 C 96 % 1028,1 hPa 0,0 l/m 0,0 km/h (0 Bft) O-SO 109 0 min 0,000 mm 0,0 UV-I 0 W/m 7,4 C 8,0 C 0,0 km/h (0 Bft) 97,56 %
15.10.2017 02:28 8,0 C 11,7 C 96 % 1028,1 hPa 0,0 l/m 0,0 km/h (0 Bft) O-SO 109 0 min 0,000 mm 0,0 UV-I 0 W/m 7,4 C 8,0 C 0,0 km/h (0 Bft) 97,87 %
15.10.2017 02:30 8,0 C 11,7 C 96 % 1028,2 hPa 0,0 l/m 0,0 km/h (0 Bft) O-SO 109 0 min 0,000 mm 0,0 UV-I 0 W/m 7,4 C 8,0 C 0,0 km/h (0 Bft) 97,87 %
15.10.2017 02:32 7,9 C 11,7 C 96 % 1028,2 hPa 0,0 l/m 0,0 km/h (0 Bft) O-SO 109 0 min 0,000 mm 0,0 UV-I 0 W/m 7,3 C 7,9 C 0,0 km/h (0 Bft) 96,00 %
15.10.2017 02:34 7,9 C 11,7 C 96 % 1028,2 hPa 0,0 l/m 0,0 km/h (0 Bft) O-SO 109 0 min 0,000 mm 0,0 UV-I 0 W/m 7,3 C 7,9 C 0,0 km/h (0 Bft) 97,87 %
15.10.2017 02:36 7,9 C 11,7 C 96 % 1028,2 hPa 0,0 l/m 0,0 km/h (0 Bft) O-SO 109 0 min 0,000 mm 0,0 UV-I 0 W/m 7,3 C 7,9 C 0,0 km/h (0 Bft) 97,87 %
15.10.2017 02:38 8,1 C 11,7 C 96 % 1028,2 hPa 0,0 l/m 0,0 km/h (0 Bft) O-SO 109 0 min 0,000 mm 0,0 UV-I 0 W/m 7,5 C 8,1 C 0,0 km/h (0 Bft) 98,00 %
15.10.2017 02:40 8,1 C 11,7 C 96 % 1028,2 hPa 0,0 l/m 0,0 km/h (0 Bft) O-SO 109 0 min 0,000 mm 0,0 UV-I 0 W/m 7,5 C 8,1 C 0,0 km/h (0 Bft) 98,00 %
15.10.2017 02:42 8,1 C 11,7 C 96 % 1028,2 hPa 0,0 l/m 0,0 km/h (0 Bft) O-SO 109 0 min 0,000 mm 0,0 UV-I 0 W/m 7,5 C 8,1 C 0,0 km/h (0 Bft) 97,22 %
15.10.2017 02:44 8,1 C 11,7 C 96 % 1028,2 hPa 0,0 l/m 0,0 km/h (0 Bft) O-SO 109 0 min 0,000 mm 0,0 UV-I 0 W/m 7,5 C 8,1 C 0,0 km/h (0 Bft) 98,00 %
15.10.2017 02:46 7,9 C 11,7 C 96 % 1028,2 hPa 0,0 l/m 0,0 km/h (0 Bft) O-SO 109 0 min 0,000 mm 0,0 UV-I 0 W/m 7,3 C 7,9 C 0,0 km/h (0 Bft) 97,87 %
15.10.2017 02:48 7,9 C 11,7 C 96 % 1028,2 hPa 0,0 l/m 0,0 km/h (0 Bft) O-SO 109 0 min 0,000 mm 0,0 UV-I 0 W/m 7,3 C 7,9 C 0,0 km/h (0 Bft) 94,00 %
15.10.2017 02:50 7,9 C 11,7 C 96 % 1028,2 hPa 0,0 l/m 0,0 km/h (0 Bft) O-SO 109 0 min 0,000 mm 0,0 UV-I 0 W/m 7,3 C 7,9 C 0,0 km/h (0 Bft) 98,00 %
15.10.2017 02:52 8,0 C 11,7 C 96 % 1028,1 hPa 0,0 l/m 0,0 km/h (0 Bft) O-SO 109 0 min 0,000 mm 0,0 UV-I 0 W/m 7,4 C 8,0 C 0,0 km/h (0 Bft) 95,12 %
15.10.2017 02:54 8,0 C 11,7 C 96 % 1028,2 hPa 0,0 l/m 0,0 km/h (0 Bft) O-SO 109 0 min 0,000 mm 0,0 UV-I 0 W/m 7,4 C 8,0 C 0,0 km/h (0 Bft) 94,34 %
15.10.2017 02:56 7,9 C 11,7 C 96 % 1028,2 hPa 0,0 l/m 0,0 km/h (0 Bft) O-SO 109 0 min 0,000 mm 0,0 UV-I 0 W/m 7,3 C 7,9 C 0,0 km/h (0 Bft) 89,47 %
15.10.2017 02:58 7,8 C 11,7 C 96 % 1028,1 hPa 0,0 l/m 0,0 km/h (0 Bft) O-SO 109 0 min 0,000 mm 0,0 UV-I 0 W/m 7,2 C 7,8 C 0,0 km/h (0 Bft) 95,74 %
15.10.2017 03:00 7,8 C 11,7 C 96 % 1028,1 hPa 0,0 l/m 0,0 km/h (0 Bft) O-SO 109 0 min 0,000 mm 0,0 UV-I 0 W/m 7,2 C 7,8 C 0,0 km/h (0 Bft) 94,00 %
15.10.2017 03:02 7,8 C 11,7 C 96 % 1028,1 hPa 0,0 l/m 0,0 km/h (0 Bft) O-SO 109 0 min 0,000 mm 0,0 UV-I 0 W/m 7,2 C 7,8 C 0,0 km/h (0 Bft) 96,00 %
15.10.2017 03:04 7,8 C 11,7 C 96 % 1028,1 hPa 0,0 l/m 0,0 km/h (0 Bft) O-SO 109 0 min 0,000 mm 0,0 UV-I 0 W/m 7,2 C 7,8 C 0,0 km/h (0 Bft) 96,00 %
15.10.2017 03:06 7,9 C 11,7 C 96 % 1028,2 hPa 0,0 l/m 0,0 km/h (0 Bft) O-SO 109 0 min 0,000 mm 0,0 UV-I 0 W/m 7,3 C 7,9 C 0,0 km/h (0 Bft) 95,12 %
15.10.2017 03:08 8,0 C 11,7 C 96 % 1028,1 hPa 0,0 l/m 0,0 km/h (0 Bft) O-SO 109 0 min 0,000 mm 0,0 UV-I 0 W/m 7,4 C 8,0 C 0,0 km/h (0 Bft) 98,00 %
15.10.2017 03:10 8,1 C 11,7 C 97 % 1028,1 hPa 0,0 l/m 0,0 km/h (0 Bft) O-SO 109 0 min 0,000 mm 0,0 UV-I 0 W/m 7,7 C 8,1 C 0,0 km/h (0 Bft) 97,37 %
15.10.2017 03:12 8,1 C 11,7 C 97 % 1028,1 hPa 0,0 l/m 0,0 km/h (0 Bft) O-SO 109 0 min 0,000 mm 0,0 UV-I 0 W/m 7,7 C 8,1 C 0,0 km/h (0 Bft) 98,00 %
15.10.2017 03:14 8,1 C 11,7 C 96 % 1028,1 hPa 0,0 l/m 0,0 km/h (0 Bft) O-SO 109 0 min 0,000 mm 0,0 UV-I 0 W/m 7,5 C 8,1 C 0,0 km/h (0 Bft) 98,00 %
15.10.2017 03:16 7,9 C 11,7 C 96 % 1028,1 hPa 0,0 l/m 0,0 km/h (0 Bft) O-SO 109 0 min 0,000 mm 0,0 UV-I 0 W/m 7,3 C 7,9 C 0,0 km/h (0 Bft) 98,00 %
15.10.2017 03:18 7,9 C 11,7 C 96 % 1028,1 hPa 0,0 l/m 0,0 km/h (0 Bft) O-SO 109 0 min 0,000 mm 0,0 UV-I 0 W/m 7,3 C 7,9 C 0,0 km/h (0 Bft) 97,44 %
15.10.2017 03:20 7,8 C 11,7 C 96 % 1028,1 hPa 0,0 l/m 0,0 km/h (0 Bft) O-SO 109 0 min 0,000 mm 0,0 UV-I 0 W/m 7,2 C 7,8 C 0,0 km/h (0 Bft) 98,08 %
15.10.2017 03:22 7,7 C 11,7 C 96 % 1028,1 hPa 0,0 l/m 0,0 km/h (0 Bft) O-SO 109 0 min 0,000 mm 0,0 UV-I 0 W/m 7,1 C 7,7 C 0,0 km/h (0 Bft) 96,00 %
15.10.2017 03:24 7,7 C 11,7 C 96 % 1028,1 hPa 0,0 l/m 0,0 km/h (0 Bft) O-SO 109 0 min 0,000 mm 0,0 UV-I 0 W/m 7,1 C 7,7 C 0,0 km/h (0 Bft) 97,44 %
15.10.2017 03:26 7,6 C 11,7 C 96 % 1028,0 hPa 0,0 l/m 0,0 km/h (0 Bft) O-SO 109 0 min 0,000 mm 0,0 UV-I 0 W/m 7,0 C 7,6 C 0,0 km/h (0 Bft) 97,87 %
15.10.2017 03:28 7,6 C 11,7 C 96 % 1028,1 hPa 0,0 l/m 0,0 km/h (0 Bft) O-SO 109 0 min 0,000 mm 0,0 UV-I 0 W/m 7,0 C 7,6 C 0,0 km/h (0 Bft) 97,87 %
15.10.2017 03:30 7,7 C 11,7 C 96 % 1028,0 hPa 0,0 l/m 0,0 km/h (0 Bft) O-SO 109 0 min 0,000 mm 0,0 UV-I 0 W/m 7,1 C 7,7 C 0,0 km/h (0 Bft) 100,00 %
15.10.2017 03:32 7,8 C 11,7 C 97 % 1028,1 hPa 0,0 l/m 0,0 km/h (0 Bft) O-SO 109 0 min 0,000 mm 0,0 UV-I 0 W/m 7,4 C 7,8 C 0,0 km/h (0 Bft) 98,00 %
15.10.2017 03:34 7,8 C 11,7 C 96 % 1028,0 hPa 0,0 l/m 0,0 km/h (0 Bft) O-SO 109 0 min 0,000 mm 0,0 UV-I 0 W/m 7,2 C 7,8 C 0,0 km/h (0 Bft) 100,00 %
15.10.2017 03:36 7,8 C 11,7 C 96 % 1028,0 hPa 0,0 l/m 0,0 km/h (0 Bft) O-SO 109 0 min 0,000 mm 0,0 UV-I 0 W/m 7,2 C 7,8 C 0,0 km/h (0 Bft) 98,00 %
15.10.2017 03:38 7,7 C 11,7 C 96 % 1028,0 hPa 0,0 l/m 0,0 km/h (0 Bft) O-SO 109 0 min 0,000 mm 0,0 UV-I 0 W/m 7,1 C 7,7 C 0,0 km/h (0 Bft) 97,87 %
15.10.2017 03:40 7,6 C 11,7 C 96 % 1028,0 hPa 0,0 l/m 0,0 km/h (0 Bft) O-SO 109 0 min 0,000 mm 0,0 UV-I 0 W/m 7,0 C 7,6 C 0,0 km/h (0 Bft) 100,00 %
15.10.2017 03:42 7,6 C 11,7 C 96 % 1028,0 hPa 0,0 l/m 0,0 km/h (0 Bft) O-SO 109 0 min 0,000 mm 0,0 UV-I 0 W/m 7,0 C 7,6 C 0,0 km/h (0 Bft) 100,00 %
15.10.2017 03:44 7,7 C 11,7 C 97 % 1028,0 hPa 0,0 l/m 0,0 km/h (0 Bft) O-SO 109 0 min 0,000 mm 0,0 UV-I 0 W/m 7,3 C 7,7 C 0,0 km/h (0 Bft) 100,00 %
15.10.2017 03:46 7,8 C 11,7 C 97 % 1028,0 hPa 0,0 l/m 0,0 km/h (0 Bft) O-SO 109 0 min 0,000 mm 0,0 UV-I 0 W/m 7,4 C 7,8 C 0,0 km/h (0 Bft) 100,00 %
15.10.2017 03:48 7,8 C 11,7 C 97 % 1028,0 hPa 0,0 l/m 0,0 km/h (0 Bft) O-SO 109 0 min 0,000 mm 0,0 UV-I 0 W/m 7,4 C 7,8 C 0,0 km/h (0 Bft) 100,00 %
15.10.2017 03:50 7,8 C 11,7 C 97 % 1028,0 hPa 0,0 l/m 0,0 km/h (0 Bft) O-SO 109 0 min 0,000 mm 0,0 UV-I 0 W/m 7,4 C 7,8 C 0,0 km/h (0 Bft) 95,74 %
15.10.2017 03:52 7,8 C 11,7 C 96 % 1028,0 hPa 0,0 l/m 0,0 km/h (0 Bft) O-SO 109 0 min 0,000 mm 0,0 UV-I 0 W/m 7,2 C 7,8 C 0,0 km/h (0 Bft) 100,00 %
15.10.2017 03:54 7,7 C 11,7 C 96 % 1028,0 hPa 0,0 l/m 0,0 km/h (0 Bft) O-SO 109 0 min 0,000 mm 0,0 UV-I 0 W/m 7,1 C 7,7 C 0,0 km/h (0 Bft) 97,87 %
15.10.2017 03:56 7,6 C 11,7 C 96 % 1028,0 hPa 0,0 l/m 0,0 km/h (0 Bft) O-SO 109 0 min 0,000 mm 0,0 UV-I 0 W/m 7,0 C 7,6 C 0,0 km/h (0 Bft) 100,00 %
15.10.2017 03:58 7,5 C 11,7 C 96 % 1028,0 hPa 0,0 l/m 0,0 km/h (0 Bft) O-SO 109 0 min 0,000 mm 0,0 UV-I 0 W/m 6,9 C 7,5 C 0,0 km/h (0 Bft) 100,00 %
15.10.2017 04:00 7,4 C 11,7 C 96 % 1028,0 hPa 0,0 l/m 0,0 km/h (0 Bft) O-SO 109 0 min 0,000 mm 0,0 UV-I 0 W/m 6,8 C 7,4 C 0,0 km/h (0 Bft) 100,00 %
15.10.2017 04:02 7,4 C 11,7 C 96 % 1028,0 hPa 0,0 l/m 0,0 km/h (0 Bft) O-SO 109 0 min 0,000 mm 0,0 UV-I 0 W/m 6,8 C 7,4 C 0,0 km/h (0 Bft) 100,00 %
15.10.2017 04:04 7,3 C 11,7 C 96 % 1028,0 hPa 0,0 l/m 0,0 km/h (0 Bft) O-SO 109 0 min 0,000 mm 0,0 UV-I 0 W/m 6,7 C 7,3 C 0,0 km/h (0 Bft) 100,00 %
15.10.2017 04:06 7,4 C 11,7 C 96 % 1028,0 hPa 0,0 l/m 0,0 km/h (0 Bft) O-SO 109 0 min 0,000 mm 0,0 UV-I 0 W/m 6,8 C 7,4 C 0,0 km/h (0 Bft) 100,00 %
15.10.2017 04:08 7,4 C 11,7 C 97 % 1027,9 hPa 0,0 l/m 0,0 km/h (0 Bft) O-SO 109 0 min 0,000 mm 0,0 UV-I 0 W/m 7,0 C 7,4 C 0,0 km/h (0 Bft) 100,00 %
15.10.2017 04:10 7,4 C 11,7 C 97 % 1028,0 hPa 0,0 l/m 0,0 km/h (0 Bft) O-SO 109 0 min 0,000 mm 0,0 UV-I 0 W/m 7,0 C 7,4 C 0,0 km/h (0 Bft) 97,37 %
15.10.2017 04:12 7,5 C 11,7 C 96 % 1028,0 hPa 0,0 l/m 0,0 km/h (0 Bft) O-SO 109 0 min 0,000 mm 0,0 UV-I 0 W/m 6,9 C 7,5 C 0,0 km/h (0 Bft) 100,00 %
15.10.2017 04:14 7,4 C 11,7 C 96 % 1028,0 hPa 0,0 l/m 0,0 km/h (0 Bft) O-SO 109 0 min 0,000 mm 0,0 UV-I 0 W/m 6,8 C 7,4 C 0,0 km/h (0 Bft) 100,00 %
15.10.2017 04:16 7,4 C 11,7 C 96 % 1028,1 hPa 0,0 l/m 0,0 km/h (0 Bft) O-SO 109 0 min 0,000 mm 0,0 UV-I 0 W/m 6,8 C 7,4 C 0,0 km/h (0 Bft) 100,00 %
15.10.2017 04:18 7,3 C 11,7 C 96 % 1028,1 hPa 0,0 l/m 0,0 km/h (0 Bft) O-SO 109 0 min 0,000 mm 0,0 UV-I 0 W/m 6,7 C 7,3 C 0,0 km/h (0 Bft) 100,00 %
15.10.2017 04:20 7,3 C 11,7 C 96 % 1028,0 hPa 0,0 l/m 0,0 km/h (0 Bft) O-SO 109 0 min 0,000 mm 0,0 UV-I 0 W/m 6,7 C 7,3 C 0,0 km/h (0 Bft) 100,00 %
15.10.2017 04:22 7,3 C 11,7 C 96 % 1028,1 hPa 0,0 l/m 0,0 km/h (0 Bft) O-SO 109 0 min 0,000 mm 0,0 UV-I 0 W/m 6,7 C 7,3 C 0,0 km/h (0 Bft) 100,00 %
15.10.2017 04:24 7,3 C 11,7 C 96 % 1028,1 hPa 0,0 l/m 0,0 km/h (0 Bft) O-SO 109 0 min 0,000 mm 0,0 UV-I 0 W/m 6,7 C 7,3 C 0,0 km/h (0 Bft) 100,00 %
15.10.2017 04:26 7,3 C 11,7 C 97 % 1028,1 hPa 0,0 l/m 0,0 km/h (0 Bft) O-SO 109 0 min 0,000 mm 0,0 UV-I 0 W/m 6,9 C 7,3 C 0,0 km/h (0 Bft) 100,00 %
15.10.2017 04:28 7,3 C 11,7 C 97 % 1028,1 hPa 0,0 l/m 0,0 km/h (0 Bft) O-SO 109 0 min 0,000 mm 0,0 UV-I 0 W/m 6,9 C 7,3 C 0,0 km/h (0 Bft) 97,87 %
15.10.2017 04:30 7,3 C 11,7 C 97 % 1028,1 hPa 0,0 l/m 0,0 km/h (0 Bft) O-SO 109 0 min 0,000 mm 0,0 UV-I 0 W/m 6,9 C 7,3 C 0,0 km/h (0 Bft) 100,00 %
15.10.2017 04:32 7,3 C 11,7 C 97 % 1028,1 hPa 0,0 l/m 0,0 km/h (0 Bft) O-SO 109 0 min 0,000 mm 0,0 UV-I 0 W/m 6,9 C 7,3 C 0,0 km/h (0 Bft) 100,00 %
15.10.2017 04:34 7,3 C 11,7 C 97 % 1028,1 hPa 0,0 l/m 0,0 km/h (0 Bft) O-SO 109 0 min 0,000 mm 0,0 UV-I 0 W/m 6,9 C 7,3 C 0,0 km/h (0 Bft) 100,00 %
15.10.2017 04:36 7,3 C 11,7 C 97 % 1028,1 hPa 0,0 l/m 0,0 km/h (0 Bft) O-SO 109 0 min 0,000 mm 0,0 UV-I 0 W/m 6,9 C 7,3 C 0,0 km/h (0 Bft) 100,00 %
15.10.2017 04:38 7,2 C 11,7 C 96 % 1028,0 hPa 0,0 l/m 0,0 km/h (0 Bft) O-SO 109 0 min 0,000 mm 0,0 UV-I 0 W/m 6,6 C 7,2 C 0,0 km/h (0 Bft) 100,00 %
15.10.2017 04:40 7,2 C 11,7 C 96 % 1028,1 hPa 0,0 l/m 0,0 km/h (0 Bft) O-SO 109 0 min 0,000 mm 0,0 UV-I 0 W/m 6,6 C 7,2 C 0,0 km/h (0 Bft) 98,00 %
15.10.2017 04:42 7,1 C 11,7 C 96 % 1028,0 hPa 0,0 l/m 0,0 km/h (0 Bft) O-SO 109 0 min 0,000 mm 0,0 UV-I 0 W/m 6,5 C 7,1 C 0,0 km/h (0 Bft) 100,00 %
15.10.2017 04:44 7,2 C 11,7 C 96 % 1028,1 hPa 0,0 l/m 0,0 km/h (0 Bft) O-SO 109 0 min 0,000 mm 0,0 UV-I 0 W/m 6,6 C 7,2 C 0,0 km/h (0 Bft) 97,87 %
15.10.2017 04:46 7,3 C 11,7 C 97 % 1028,0 hPa 0,0 l/m 0,0 km/h (0 Bft) O-SO 109 0 min 0,000 mm 0,0 UV-I 0 W/m 6,9 C 7,3 C 0,0 km/h (0 Bft) 97,87 %
15.10.2017 04:48 7,3 C 11,7 C 97 % 1028,0 hPa 0,0 l/m 0,0 km/h (0 Bft) O-SO 109 0 min 0,000 mm 0,0 UV-I 0 W/m 6,9 C 7,3 C 0,0 km/h (0 Bft) 100,00 %
15.10.2017 04:50 7,4 C 11,7 C 97 % 1028,0 hPa 0,0 l/m 0,0 km/h (0 Bft) O-SO 109 0 min 0,000 mm 0,0 UV-I 0 W/m 7,0 C 7,4 C 0,0 km/h (0 Bft) 100,00 %
15.10.2017 04:52 7,4 C 11,7 C 97 % 1028,0 hPa 0,0 l/m 0,0 km/h (0 Bft) O-SO 109 0 min 0,000 mm 0,0 UV-I 0 W/m 7,0 C 7,4 C 0,0 km/h (0 Bft) 100,00 %
15.10.2017 04:54 7,4 C 11,7 C 97 % 1028,0 hPa 0,0 l/m 0,0 km/h (0 Bft) O-SO 109 0 min 0,000 mm 0,0 UV-I 0 W/m 7,0 C 7,4 C 0,0 km/h (0 Bft) 100,00 %
15.10.2017 04:56 7,4 C 11,7 C 97 % 1028,0 hPa 0,0 l/m 0,0 km/h (0 Bft) O-SO 109 0 min 0,000 mm 0,0 UV-I 0 W/m 7,0 C 7,4 C 0,0 km/h (0 Bft) 100,00 %
15.10.2017 04:58 7,4 C 11,7 C 97 % 1028,0 hPa 0,0 l/m 0,0 km/h (0 Bft) O-SO 109 0 min 0,000 mm 0,0 UV-I 0 W/m 7,0 C 7,4 C 0,0 km/h (0 Bft) 100,00 %
15.10.2017 05:00 7,3 C 11,7 C 97 % 1028,0 hPa 0,0 l/m 0,0 km/h (0 Bft) O-SO 109 0 min 0,000 mm 0,0 UV-I 0 W/m 6,9 C 7,3 C 0,0 km/h (0 Bft) 100,00 %
15.10.2017 05:02 7,2 C 11,7 C 96 % 1028,0 hPa 0,0 l/m 0,0 km/h (0 Bft) O-SO 109 0 min 0,000 mm 0,0 UV-I 0 W/m 6,6 C 7,2 C 0,0 km/h (0 Bft) 100,00 %
15.10.2017 05:04 7,2 C 11,7 C 96 % 1028,0 hPa 0,0 l/m 0,0 km/h (0 Bft) O-SO 109 0 min 0,000 mm 0,0 UV-I 0 W/m 6,6 C 7,2 C 0,0 km/h (0 Bft) 100,00 %
15.10.2017 05:06 7,1 C 11,7 C 96 % 1028,0 hPa 0,0 l/m 0,0 km/h (0 Bft) O-SO 109 0 min 0,000 mm 0,0 UV-I 0 W/m 6,5 C 7,1 C 0,0 km/h (0 Bft) 100,00 %
15.10.2017 05:08 7,1 C 11,7 C 96 % 1027,9 hPa 0,0 l/m 0,0 km/h (0 Bft) O-SO 109 0 min 0,000 mm 0,0 UV-I 0 W/m 6,5 C 7,1 C 0,0 km/h (0 Bft) 100,00 %
15.10.2017 05:10 7,1 C 11,7 C 97 % 1027,9 hPa 0,0 l/m 0,0 km/h (0 Bft) O-SO 109 0 min 0,000 mm 0,0 UV-I 0 W/m 6,7 C 7,1 C 0,0 km/h (0 Bft) 100,00 %
15.10.2017 05:12 7,2 C 11,7 C 97 % 1027,8 hPa 0,0 l/m 0,4 km/h (0 Bft) O-SO 109 0 min 0,000 mm 0,0 UV-I 0 W/m 6,8 C 7,2 C 1,6 km/h (1 Bft) 98,00 %
15.10.2017 05:14 7,1 C 11,7 C 97 % 1027,9 hPa 0,0 l/m 0,0 km/h (0 Bft) O-SO 109 0 min 0,000 mm 0,0 UV-I 0 W/m 6,7 C 7,1 C 0,0 km/h (0 Bft) 98,00 %
15.10.2017 05:16 7,1 C 11,7 C 97 % 1027,8 hPa 0,0 l/m 0,2 km/h (0 Bft) O-SO 109 0 min 0,000 mm 0,0 UV-I 0 W/m 6,7 C 7,1 C 1,6 km/h (1 Bft) 95,24 %
15.10.2017 05:18 7,1 C 11,7 C 97 % 1027,8 hPa 0,0 l/m 0,3 km/h (0 Bft) O-SO 109 0 min 0,000 mm 0,0 UV-I 0 W/m 6,7 C 7,1 C 1,6 km/h (1 Bft) 96,00 %
15.10.2017 05:20 7,0 C 11,7 C 97 % 1027,8 hPa 0,0 l/m 2,2 km/h (1 Bft) O-SO 109 0 min 0,000 mm 0,0 UV-I 0 W/m 6,6 C 7,0 C 3,2 km/h (1 Bft) 97,87 %
15.10.2017 05:22 7,0 C 11,7 C 97 % 1027,9 hPa 0,0 l/m 1,2 km/h (1 Bft) O-SO 109 0 min 0,000 mm 0,0 UV-I 0 W/m 6,6 C 7,0 C 1,6 km/h (1 Bft) 96,00 %
15.10.2017 05:24 7,0 C 11,7 C 96 % 1027,8 hPa 0,0 l/m 0,7 km/h (0 Bft) O-SO 109 0 min 0,000 mm 0,0 UV-I 0 W/m 6,4 C 7,0 C 1,6 km/h (1 Bft) 100,00 %
15.10.2017 05:26 7,0 C 11,7 C 97 % 1027,9 hPa 0,0 l/m 0,3 km/h (0 Bft) O-SO 109 0 min 0,000 mm 0,0 UV-I 0 W/m 6,6 C 7,0 C 1,6 km/h (1 Bft) 96,00 %
15.10.2017 05:28 6,9 C 11,7 C 97 % 1027,9 hPa 0,0 l/m 1,5 km/h (1 Bft) O-SO 109 0 min 0,000 mm 0,0 UV-I 0 W/m 6,5 C 6,9 C 3,2 km/h (1 Bft) 97,87 %
15.10.2017 05:30 6,8 C 11,7 C 96 % 1027,9 hPa 0,0 l/m 0,3 km/h (0 Bft) O-SO 109 0 min 0,000 mm 0,0 UV-I 0 W/m 6,2 C 6,8 C 1,6 km/h (1 Bft) 96,00 %
15.10.2017 05:32 6,8 C 11,7 C 96 % 1028,0 hPa 0,0 l/m 0,0 km/h (0 Bft) O-SO 109 0 min 0,000 mm 0,0 UV-I 0 W/m 6,2 C 6,8 C 0,0 km/h (0 Bft) 93,62 %
15.10.2017 05:34 6,7 C 11,7 C 96 % 1027,9 hPa 0,0 l/m 0,0 km/h (0 Bft) O-SO 109 0 min 0,000 mm 0,0 UV-I 0 W/m 6,1 C 6,7 C 0,0 km/h (0 Bft) 95,12 %
15.10.2017 05:36 6,8 C 11,7 C 97 % 1027,9 hPa 0,0 l/m 0,0 km/h (0 Bft) O-SO 109 0 min 0,000 mm 0,0 UV-I 0 W/m 6,4 C 6,8 C 0,0 km/h (0 Bft) 95,74 %
15.10.2017 05:38 6,8 C 11,7 C 97 % 1027,9 hPa 0,0 l/m 0,0 km/h (0 Bft) O-SO 109 0 min 0,000 mm 0,0 UV-I 0 W/m 6,4 C 6,8 C 0,0 km/h (0 Bft) 93,62 %
15.10.2017 05:40 6,9 C 11,7 C 97 % 1027,9 hPa 0,0 l/m 0,0 km/h (0 Bft) O-SO 109 0 min 0,000 mm 0,0 UV-I 0 W/m 6,5 C 6,9 C 0,0 km/h (0 Bft) 92,45 %
15.10.2017 05:42 6,9 C 11,7 C 97 % 1027,9 hPa 0,0 l/m 0,0 km/h (0 Bft) O-SO 109 0 min 0,000 mm 0,0 UV-I 0 W/m 6,5 C 6,9 C 0,0 km/h (0 Bft) 94,00 %
15.10.2017 05:44 7,0 C 11,7 C 97 % 1027,8 hPa 0,0 l/m 0,0 km/h (0 Bft) O-SO 109 0 min 0,000 mm 0,0 UV-I 0 W/m 6,6 C 7,0 C 0,0 km/h (0 Bft) 94,74 %
15.10.2017 05:46 7,0 C 11,7 C 97 % 1027,8 hPa 0,0 l/m 0,0 km/h (0 Bft) O-SO 109 0 min 0,000 mm 0,0 UV-I 0 W/m 6,6 C 7,0 C 0,0 km/h (0 Bft) 95,83 %
15.10.2017 05:48 6,9 C 11,7 C 97 % 1027,9 hPa 0,0 l/m 0,0 km/h (0 Bft) O-SO 109 0 min 0,000 mm 0,0 UV-I 0 W/m 6,5 C 6,9 C 0,0 km/h (0 Bft) 93,67 %
15.10.2017 05:50 6,9 C 11,7 C 96 % 1027,9 hPa 0,0 l/m 0,0 km/h (0 Bft) O-SO 109 0 min 0,000 mm 0,0 UV-I 0 W/m 6,3 C 6,9 C 0,0 km/h (0 Bft) 94,74 %
15.10.2017 05:52 6,8 C 11,7 C 96 % 1027,9 hPa 0,0 l/m 0,0 km/h (0 Bft) O-SO 109 0 min 0,000 mm 0,0 UV-I 0 W/m 6,2 C 6,8 C 0,0 km/h (0 Bft) 98,11 %
15.10.2017 05:54 6,8 C 11,7 C 97 % 1027,9 hPa 0,0 l/m 0,0 km/h (0 Bft) O-SO 109 0 min 0,000 mm 0,0 UV-I 0 W/m 6,4 C 6,8 C 0,0 km/h (0 Bft) 97,56 %
15.10.2017 05:56 6,9 C 11,7 C 97 % 1027,8 hPa 0,0 l/m 0,0 km/h (0 Bft) O-SO 109 0 min 0,000 mm 0,0 UV-I 0 W/m 6,5 C 6,9 C 0,0 km/h (0 Bft) 97,92 %
15.10.2017 05:58 6,9 C 11,7 C 97 % 1027,8 hPa 0,0 l/m 0,0 km/h (0 Bft) O-SO 109 0 min 0,000 mm 0,0 UV-I 0 W/m 6,5 C 6,9 C 0,0 km/h (0 Bft) 97,96 %
15.10.2017 06:00 7,0 C 11,7 C 97 % 1027,9 hPa 0,0 l/m 0,0 km/h (0 Bft) O-SO 109 0 min 0,000 mm 0,0 UV-I 0 W/m 6,6 C 7,0 C 0,0 km/h (0 Bft) 97,44 %
15.10.2017 06:02 7,0 C 11,7 C 97 % 1027,9 hPa 0,0 l/m 0,0 km/h (0 Bft) O-SO 109 0 min 0,000 mm 0,0 UV-I 0 W/m 6,6 C 7,0 C 0,0 km/h (0 Bft) 98,21 %
15.10.2017 06:04 7,1 C 11,7 C 97 % 1027,9 hPa 0,0 l/m 0,0 km/h (0 Bft) O-SO 109 0 min 0,000 mm 0,0 UV-I 0 W/m 6,7 C 7,1 C 0,0 km/h (0 Bft) 93,62 %
15.10.2017 06:06 7,1 C 11,7 C 97 % 1027,9 hPa 0,0 l/m 0,0 km/h (0 Bft) O-SO 109 0 min 0,000 mm 0,0 UV-I 0 W/m 6,7 C 7,1 C 0,0 km/h (0 Bft) 96,00 %
15.10.2017 06:08 7,1 C 11,7 C 97 % 1027,9 hPa 0,0 l/m 0,0 km/h (0 Bft) O-SO 109 0 min 0,000 mm 0,0 UV-I 0 W/m 6,7 C 7,1 C 0,0 km/h (0 Bft) 97,37 %
15.10.2017 06:10 7,1 C 11,7 C 97 % 1027,9 hPa 0,0 l/m 0,0 km/h (0 Bft) O-SO 109 0 min 0,000 mm 0,0 UV-I 0 W/m 6,7 C 7,1 C 0,0 km/h (0 Bft) 96,00 %
15.10.2017 06:12 7,1 C 11,7 C 97 % 1027,9 hPa 0,0 l/m 0,0 km/h (0 Bft) O-SO 109 0 min 0,000 mm 0,0 UV-I 0 W/m 6,7 C 7,1 C 0,0 km/h (0 Bft) 98,00 %
15.10.2017 06:14 7,1 C 11,7 C 97 % 1027,9 hPa 0,0 l/m 0,0 km/h (0 Bft) O-SO 109 0 min 0,000 mm 0,0 UV-I 0 W/m 6,7 C 7,1 C 0,0 km/h (0 Bft) 98,00 %
15.10.2017 06:16 7,2 C 11,7 C 97 % 1027,8 hPa 0,0 l/m 0,0 km/h (0 Bft) O-SO 109 0 min 0,000 mm 0,0 UV-I 0 W/m 6,8 C 7,2 C 0,0 km/h (0 Bft) 97,37 %
15.10.2017 06:18 7,2 C 11,7 C 97 % 1027,8 hPa 0,0 l/m 0,0 km/h (0 Bft) O-SO 109 0 min 0,000 mm 0,0 UV-I 0 W/m 6,8 C 7,2 C 0,0 km/h (0 Bft) 97,73 %
15.10.2017 06:20 7,3 C 11,7 C 97 % 1027,9 hPa 0,0 l/m 0,0 km/h (0 Bft) O-SO 109 0 min 0,000 mm 0,0 UV-I 0 W/m 6,9 C 7,3 C 0,0 km/h (0 Bft) 98,11 %
15.10.2017 06:22 7,3 C 11,7 C 97 % 1027,9 hPa 0,0 l/m 0,0 km/h (0 Bft) O-SO 109 0 min 0,000 mm 0,0 UV-I 0 W/m 6,9 C 7,3 C 0,0 km/h (0 Bft) 97,87 %
15.10.2017 06:24 7,3 C 11,7 C 97 % 1027,9 hPa 0,0 l/m 0,0 km/h (0 Bft) O-SO 109 0 min 0,000 mm 0,0 UV-I 0 W/m 6,9 C 7,3 C 0,0 km/h (0 Bft) 97,87 %
15.10.2017 06:26 7,3 C 11,7 C 97 % 1028,0 hPa 0,0 l/m 0,0 km/h (0 Bft) O-SO 109 0 min 0,000 mm 0,0 UV-I 0 W/m 6,9 C 7,3 C 0,0 km/h (0 Bft) 100,00 %
15.10.2017 06:29 7,3 C 11,7 C 97 % 1028,0 hPa 0,0 l/m 0,0 km/h (0 Bft) O-SO 109 0 min 0,000 mm 0,0 UV-I 0 W/m 6,9 C 7,3 C 0,0 km/h (0 Bft) 98,59 %
15.10.2017 06:30 7,3 C 11,7 C 97 % 1028,0 hPa 0,0 l/m 0,0 km/h (0 Bft) O-SO 109 0 min 0,000 mm 0,0 UV-I 0 W/m 6,9 C 7,3 C 0,0 km/h (0 Bft) 100,00 %
15.10.2017 06:32 7,3 C 11,7 C 97 % 1027,9 hPa 0,0 l/m 0,0 km/h (0 Bft) O-SO 109 0 min 0,000 mm 0,0 UV-I 0 W/m 6,9 C 7,3 C 0,0 km/h (0 Bft) 100,00 %
15.10.2017 06:34 7,3 C 11,7 C 97 % 1027,9 hPa 0,0 l/m 0,0 km/h (0 Bft) O-SO 109 0 min 0,000 mm 0,0 UV-I 0 W/m 6,9 C 7,3 C 0,0 km/h (0 Bft) 97,44 %
15.10.2017 06:36 7,4 C 11,7 C 97 % 1028,0 hPa 0,0 l/m 0,0 km/h (0 Bft) O-SO 109 0 min 0,000 mm 0,0 UV-I 0 W/m 7,0 C 7,4 C 0,0 km/h (0 Bft) 100,00 %
15.10.2017 06:38 7,4 C 11,7 C 97 % 1027,9 hPa 0,0 l/m 0,0 km/h (0 Bft) O-SO 109 0 min 0,000 mm 0,0 UV-I 0 W/m 7,0 C 7,4 C 0,0 km/h (0 Bft) 100,00 %
15.10.2017 06:40 7,3 C 11,7 C 97 % 1027,9 hPa 0,0 l/m 0,0 km/h (0 Bft) O-SO 109 0 min 0,000 mm 0,0 UV-I 0 W/m 6,9 C 7,3 C 0,0 km/h (0 Bft) 100,00 %
15.10.2017 06:42 7,3 C 11,7 C 97 % 1027,9 hPa 0,0 l/m 0,0 km/h (0 Bft) O-SO 109 0 min 0,000 mm 0,0 UV-I 0 W/m 6,9 C 7,3 C 0,0 km/h (0 Bft) 100,00 %
15.10.2017 06:44 7,3 C 11,7 C 97 % 1027,9 hPa 0,0 l/m 0,0 km/h (0 Bft) O-SO 109 0 min 0,000 mm 0,0 UV-I 0 W/m 6,9 C 7,3 C 0,0 km/h (0 Bft) 100,00 %
15.10.2017 06:46 7,3 C 11,7 C 97 % 1027,9 hPa 0,0 l/m 0,0 km/h (0 Bft) O-SO 109 0 min 0,000 mm 0,0 UV-I 0 W/m 6,9 C 7,3 C 0,0 km/h (0 Bft) 98,00 %
15.10.2017 06:48 7,3 C 11,7 C 97 % 1027,8 hPa 0,0 l/m 0,0 km/h (0 Bft) O-SO 109 0 min 0,000 mm 0,0 UV-I 0 W/m 6,9 C 7,3 C 0,0 km/h (0 Bft) 100,00 %
15.10.2017 06:50 7,3 C 11,7 C 97 % 1027,9 hPa 0,0 l/m 0,0 km/h (0 Bft) O-SO 109 0 min 0,000 mm 0,0 UV-I 0 W/m 6,9 C 7,3 C 0,0 km/h (0 Bft) 100,00 %
15.10.2017 06:52 7,3 C 11,7 C 97 % 1027,9 hPa 0,0 l/m 0,0 km/h (0 Bft) O-SO 109 0 min 0,000 mm 0,0 UV-I 0 W/m 6,9 C 7,3 C 0,0 km/h (0 Bft) 97,37 %
15.10.2017 06:54 7,3 C 11,7 C 97 % 1027,8 hPa 0,0 l/m 0,0 km/h (0 Bft) O-SO 109 0 min 0,000 mm 0,0 UV-I 0 W/m 6,9 C 7,3 C 0,0 km/h (0 Bft) 97,87 %
15.10.2017 06:56 7,3 C 11,7 C 97 % 1027,9 hPa 0,0 l/m 0,0 km/h (0 Bft) O-SO 109 0 min 0,000 mm 0,0 UV-I 0 W/m 6,9 C 7,3 C 0,0 km/h (0 Bft) 97,87 %
15.10.2017 06:58 7,2 C 11,7 C 97 % 1027,8 hPa 0,0 l/m 0,0 km/h (0 Bft) O-SO 109 0 min 0,000 mm 0,0 UV-I 0 W/m 6,8 C 7,2 C 0,0 km/h (0 Bft) 97,87 %
15.10.2017 07:00 7,2 C 11,7 C 97 % 1027,8 hPa 0,0 l/m 0,0 km/h (0 Bft) O-SO 109 0 min 0,000 mm 0,0 UV-I 0 W/m 6,8 C 7,2 C 0,0 km/h (0 Bft) 97,87 %
15.10.2017 07:02 7,2 C 11,7 C 97 % 1027,8 hPa 0,0 l/m 0,0 km/h (0 Bft) O-SO 109 0 min 0,000 mm 0,0 UV-I 0 W/m 6,8 C 7,2 C 0,0 km/h (0 Bft) 98,00 %
15.10.2017 07:04 7,3 C 11,7 C 97 % 1027,8 hPa 0,0 l/m 0,7 km/h (0 Bft) O-SO 109 0 min 0,000 mm 0,0 UV-I 0 W/m 6,9 C 7,3 C 1,6 km/h (1 Bft) 100,00 %
15.10.2017 07:06 7,3 C 11,7 C 97 % 1027,8 hPa 0,0 l/m 0,7 km/h (0 Bft) O-SO 109 0 min 0,000 mm 0,0 UV-I 0 W/m 6,9 C 7,3 C 1,6 km/h (1 Bft) 97,87 %
15.10.2017 07:08 7,3 C 11,7 C 97 % 1027,8 hPa 0,0 l/m 0,0 km/h (0 Bft) O-SO 109 0 min 0,000 mm 0,0 UV-I 0 W/m 6,9 C 7,3 C 0,0 km/h (0 Bft) 97,37 %
15.10.2017 07:10 7,4 C 11,7 C 97 % 1027,9 hPa 0,0 l/m 0,0 km/h (0 Bft) O-SO 109 0 min 0,000 mm 0,0 UV-I 0 W/m 7,0 C 7,4 C 0,0 km/h (0 Bft) 98,00 %
15.10.2017 07:12 7,4 C 11,7 C 97 % 1027,8 hPa 0,0 l/m 0,0 km/h (0 Bft) O-SO 109 0 min 0,000 mm 0,0 UV-I 5 W/m 7,0 C 7,4 C 0,0 km/h (0 Bft) 96,08 %
15.10.2017 07:14 7,4 C 11,7 C 97 % 1027,8 hPa 0,0 l/m 0,1 km/h (0 Bft) O-SO 109 0 min 0,000 mm 0,0 UV-I 5 W/m 7,0 C 7,4 C 1,6 km/h (1 Bft) 97,87 %
15.10.2017 07:16 7,3 C 11,7 C 97 % 1027,8 hPa 0,0 l/m 0,1 km/h (0 Bft) O-SO 109 0 min 0,000 mm 0,0 UV-I 5 W/m 6,9 C 7,3 C 1,6 km/h (1 Bft) 95,74 %
15.10.2017 07:18 7,3 C 11,7 C 97 % 1027,8 hPa 0,0 l/m 0,0 km/h (0 Bft) O-SO 109 0 min 0,000 mm 0,0 UV-I 5 W/m 6,9 C 7,3 C 0,0 km/h (0 Bft) 97,87 %
15.10.2017 07:20 7,3 C 11,7 C 97 % 1027,8 hPa 0,0 l/m 0,0 km/h (0 Bft) O-SO 109 0 min 0,000 mm 0,0 UV-I 5 W/m 6,9 C 7,3 C 0,0 km/h (0 Bft) 100,00 %
15.10.2017 07:22 7,3 C 11,7 C 97 % 1027,8 hPa 0,0 l/m 0,0 km/h (0 Bft) O-SO 109 0 min 0,000 mm 0,0 UV-I 7 W/m 6,9 C 7,3 C 1,6 km/h (1 Bft) 100,00 %
15.10.2017 07:24 7,3 C 11,7 C 97 % 1027,8 hPa 0,0 l/m 0,0 km/h (0 Bft) O-SO 109 0 min 0,000 mm 0,0 UV-I 7 W/m 6,9 C 7,3 C 1,6 km/h (1 Bft) 100,00 %
15.10.2017 07:26 7,3 C 11,7 C 97 % 1027,9 hPa 0,0 l/m 0,0 km/h (0 Bft) O-SO 109 0 min 0,000 mm 0,0 UV-I 7 W/m 6,9 C 7,3 C 0,0 km/h (0 Bft) 96,23 %
15.10.2017 07:28 7,3 C 11,7 C 97 % 1027,9 hPa 0,0 l/m 0,0 km/h (0 Bft) O-SO 109 0 min 0,000 mm 0,0 UV-I 8 W/m 6,9 C 7,3 C 0,0 km/h (0 Bft) 95,74 %
15.10.2017 07:30 7,3 C 11,7 C 97 % 1027,9 hPa 0,0 l/m 0,0 km/h (0 Bft) O-SO 109 0 min 0,000 mm 0,0 UV-I 9 W/m 6,9 C 7,3 C 1,6 km/h (1 Bft) 97,37 %
15.10.2017 07:32 7,4 C 11,7 C 97 % 1027,8 hPa 0,0 l/m 0,0 km/h (0 Bft) O-SO 109 0 min 0,000 mm 0,0 UV-I 10 W/m 7,0 C 7,4 C 1,6 km/h (1 Bft) 96,00 %
15.10.2017 07:34 7,4 C 11,7 C 97 % 1027,9 hPa 0,0 l/m 0,3 km/h (0 Bft) O-SO 109 2 min 0,000 mm 0,0 UV-I 11 W/m 7,0 C 7,4 C 1,6 km/h (1 Bft) 98,00 %
15.10.2017 07:36 7,5 C 11,7 C 97 % 1027,8 hPa 0,0 l/m 0,0 km/h (0 Bft) O-SO 109 2 min 0,000 mm 0,0 UV-I 13 W/m 7,1 C 7,5 C 1,6 km/h (1 Bft) 93,62 %
15.10.2017 07:38 7,5 C 11,7 C 97 % 1027,8 hPa 0,0 l/m 0,0 km/h (0 Bft) O-SO 109 0 min 0,000 mm 0,0 UV-I 15 W/m 7,1 C 7,5 C 1,6 km/h (1 Bft) 95,74 %
15.10.2017 07:40 7,4 C 11,7 C 97 % 1027,8 hPa 0,0 l/m 0,0 km/h (0 Bft) O-SO 109 0 min 0,000 mm 0,0 UV-I 17 W/m 7,0 C 7,4 C 0,0 km/h (0 Bft) 98,00 %
15.10.2017 07:42 7,4 C 11,7 C 97 % 1027,8 hPa 0,0 l/m 0,0 km/h (0 Bft) O-SO 109 0 min 0,000 mm 0,0 UV-I 18 W/m 7,0 C 7,4 C 1,6 km/h (1 Bft) 94,00 %
15.10.2017 07:44 7,3 C 11,7 C 97 % 1027,8 hPa 0,0 l/m 0,1 km/h (0 Bft) O-SO 109 0 min 0,000 mm 0,0 UV-I 20 W/m 6,9 C 7,3 C 1,6 km/h (1 Bft) 97,87 %
15.10.2017 07:46 7,3 C 11,7 C 97 % 1027,8 hPa 0,0 l/m 0,1 km/h (0 Bft) O-SO 109 0 min 0,000 mm 0,0 UV-I 23 W/m 6,9 C 7,3 C 1,6 km/h (1 Bft) 97,37 %
15.10.2017 07:48 7,3 C 11,7 C 97 % 1027,8 hPa 0,0 l/m 0,1 km/h (0 Bft) O-SO 109 0 min 0,000 mm 0,0 UV-I 26 W/m 6,9 C 7,3 C 1,6 km/h (1 Bft) 98,00 %
15.10.2017 07:50 7,3 C 11,7 C 97 % 1027,8 hPa 0,0 l/m 0,0 km/h (0 Bft) O-SO 109 0 min 0,000 mm 0,0 UV-I 28 W/m 6,9 C 7,3 C 0,0 km/h (0 Bft) 97,87 %
15.10.2017 07:52 7,3 C 11,7 C 97 % 1027,8 hPa 0,0 l/m 0,0 km/h (0 Bft) O-SO 109 0 min 0,000 mm 0,0 UV-I 29 W/m 6,9 C 7,3 C 0,0 km/h (0 Bft) 98,00 %
15.10.2017 07:54 7,3 C 11,7 C 97 % 1027,8 hPa 0,2 l/m 0,0 km/h (0 Bft) O-SO 109 0 min 0,000 mm 0,0 UV-I 28 W/m 6,9 C 7,3 C 0,0 km/h (0 Bft) 98,00 %
15.10.2017 07:56 7,4 C 11,7 C 97 % 1027,9 hPa 0,0 l/m 0,2 km/h (0 Bft) O-SO 109 0 min 0,000 mm 0,0 UV-I 30 W/m 7,0 C 7,4 C 1,6 km/h (1 Bft) 94,44 %
15.10.2017 07:58 7,4 C 11,7 C 97 % 1027,9 hPa 0,0 l/m 0,3 km/h (0 Bft) O-SO 109 0 min 0,000 mm 0,0 UV-I 32 W/m 7,0 C 7,4 C 1,6 km/h (1 Bft) 93,62 %
15.10.2017 08:00 7,5 C 11,7 C 97 % 1027,9 hPa 0,0 l/m 0,3 km/h (0 Bft) O-SO 109 0 min 0,000 mm 0,0 UV-I 33 W/m 7,1 C 7,5 C 1,6 km/h (1 Bft) 98,11 %
15.10.2017 08:02 7,5 C 11,7 C 97 % 1027,9 hPa 0,0 l/m 1,5 km/h (1 Bft) O-SO 109 0 min 0,000 mm 0,0 UV-I 33 W/m 7,1 C 7,5 C 3,2 km/h (1 Bft) 100,00 %
15.10.2017 08:04 7,6 C 11,7 C 97 % 1027,9 hPa 0,0 l/m 1,5 km/h (1 Bft) O-SO 109 0 min 0,000 mm 0,0 UV-I 35 W/m 7,2 C 7,6 C 3,2 km/h (1 Bft) 100,00 %
15.10.2017 08:06 7,6 C 11,7 C 97 % 1027,9 hPa 0,0 l/m 2,1 km/h (1 Bft) O-SO 109 0 min 0,000 mm 0,0 UV-I 40 W/m 7,2 C 7,6 C 3,2 km/h (1 Bft) 100,00 %
15.10.2017 08:08 7,7 C 11,7 C 97 % 1027,9 hPa 0,0 l/m 1,2 km/h (1 Bft) O-SO 109 0 min 0,000 mm 0,0 UV-I 40 W/m 7,3 C 7,7 C 3,2 km/h (1 Bft) 100,00 %
15.10.2017 08:10 7,7 C 11,7 C 97 % 1027,9 hPa 0,0 l/m 0,2 km/h (0 Bft) O-SO 109 0 min 0,000 mm 0,0 UV-I 47 W/m 7,3 C 7,7 C 1,6 km/h (1 Bft) 100,00 %
15.10.2017 08:12 7,7 C 11,7 C 97 % 1027,9 hPa 0,0 l/m 0,0 km/h (0 Bft) O-SO 109 0 min 0,000 mm 0,0 UV-I 51 W/m 7,3 C 7,7 C 0,0 km/h (0 Bft) 100,00 %
15.10.2017 08:14 7,7 C 11,7 C 97 % 1027,9 hPa 0,0 l/m 0,0 km/h (0 Bft) O-SO 109 0 min 0,000 mm 0,0 UV-I 55 W/m 7,3 C 7,7 C 0,0 km/h (0 Bft) 100,00 %
15.10.2017 08:16 7,7 C 11,7 C 97 % 1027,9 hPa 0,0 l/m 0,0 km/h (0 Bft) O-SO 109 0 min 0,000 mm 0,0 UV-I 64 W/m 7,3 C 7,7 C 0,0 km/h (0 Bft) 100,00 %
15.10.2017 08:18 7,7 C 11,7 C 97 % 1027,9 hPa 0,0 l/m 0,0 km/h (0 Bft) O-SO 109 0 min 0,000 mm 0,0 UV-I 62 W/m 7,3 C 7,7 C 0,0 km/h (0 Bft) 98,00 %
15.10.2017 08:20 7,7 C 11,7 C 97 % 1027,9 hPa 0,0 l/m 0,0 km/h (0 Bft) O-SO 109 0 min 0,000 mm 0,0 UV-I 64 W/m 7,3 C 7,7 C 0,0 km/h (0 Bft) 100,00 %
15.10.2017 08:22 7,7 C 11,7 C 97 % 1027,9 hPa 0,0 l/m 0,0 km/h (0 Bft) O-SO 109 0 min 0,000 mm 0,0 UV-I 62 W/m 7,3 C 7,7 C 0,0 km/h (0 Bft) 95,12 %
15.10.2017 08:24 7,7 C 11,7 C 97 % 1027,9 hPa 0,0 l/m 0,0 km/h (0 Bft) O-SO 109 0 min 0,000 mm 0,0 UV-I 58 W/m 7,3 C 7,7 C 0,0 km/h (0 Bft) 100,00 %
15.10.2017 08:26 7,8 C 11,7 C 97 % 1027,9 hPa 0,0 l/m 0,0 km/h (0 Bft) O-SO 109 0 min 0,000 mm 0,0 UV-I 57 W/m 7,4 C 7,8 C 0,0 km/h (0 Bft) 100,00 %
15.10.2017 08:28 7,8 C 11,7 C 97 % 1027,9 hPa 0,0 l/m 0,0 km/h (0 Bft) O-SO 109 0 min 0,000 mm 0,0 UV-I 58 W/m 7,4 C 7,8 C 0,0 km/h (0 Bft) 100,00 %
15.10.2017 08:30 7,8 C 11,7 C 97 % 1027,9 hPa 0,0 l/m 0,0 km/h (0 Bft) O-SO 109 0 min 0,000 mm 0,0 UV-I 68 W/m 7,4 C 7,8 C 0,0 km/h (0 Bft) 100,00 %
15.10.2017 08:32 7,8 C 11,7 C 97 % 1027,9 hPa 0,0 l/m 0,0 km/h (0 Bft) O-SO 109 0 min 0,000 mm 0,0 UV-I 70 W/m 7,4 C 7,8 C 0,0 km/h (0 Bft) 100,00 %
15.10.2017 08:34 7,8 C 11,7 C 97 % 1027,9 hPa 0,0 l/m 0,0 km/h (0 Bft) O-SO 109 0 min 0,000 mm 0,0 UV-I 72 W/m 7,4 C 7,8 C 0,0 km/h (0 Bft) 100,00 %
15.10.2017 08:36 7,8 C 11,7 C 97 % 1027,9 hPa 0,0 l/m 0,0 km/h (0 Bft) O-SO 109 0 min 0,000 mm 0,0 UV-I 76 W/m 7,4 C 7,8 C 0,0 km/h (0 Bft) 98,00 %
15.10.2017 08:38 7,8 C 11,7 C 98 % 1027,9 hPa 0,0 l/m 0,0 km/h (0 Bft) O-SO 109 0 min 0,000 mm 0,0 UV-I 87 W/m 7,5 C 7,8 C 0,0 km/h (0 Bft) 100,00 %
15.10.2017 08:40 7,8 C 11,7 C 97 % 1027,9 hPa 0,0 l/m 0,0 km/h (0 Bft) O-SO 109 0 min 0,000 mm 0,0 UV-I 89 W/m 7,4 C 7,8 C 0,0 km/h (0 Bft) 100,00 %
15.10.2017 08:42 7,9 C 11,7 C 98 % 1027,9 hPa 0,0 l/m 0,0 km/h (0 Bft) O-SO 109 0 min 0,000 mm 0,0 UV-I 84 W/m 7,6 C 7,9 C 0,0 km/h (0 Bft) 100,00 %
15.10.2017 08:44 7,9 C 11,7 C 98 % 1027,9 hPa 0,0 l/m 0,0 km/h (0 Bft) O-SO 109 0 min 0,000 mm 0,0 UV-I 83 W/m 7,6 C 7,9 C 0,0 km/h (0 Bft) 100,00 %
15.10.2017 08:46 8,1 C 11,7 C 98 % 1028,0 hPa 0,0 l/m 0,0 km/h (0 Bft) O-SO 109 0 min 0,000 mm 0,0 UV-I 88 W/m 7,8 C 8,1 C 0,0 km/h (0 Bft) 98,11 %
15.10.2017 08:48 8,1 C 11,7 C 97 % 1028,0 hPa 0,0 l/m 0,0 km/h (0 Bft) O-SO 109 0 min 0,000 mm 0,0 UV-I 80 W/m 7,7 C 8,1 C 0,0 km/h (0 Bft) 97,87 %
15.10.2017 08:50 8,2 C 11,7 C 97 % 1028,0 hPa 0,0 l/m 0,3 km/h (0 Bft) O-SO 109 0 min 0,000 mm 0,0 UV-I 77 W/m 7,8 C 8,2 C 1,6 km/h (1 Bft) 100,00 %
15.10.2017 08:52 8,2 C 11,7 C 98 % 1027,9 hPa 0,0 l/m 0,6 km/h (0 Bft) O-SO 109 0 min 0,000 mm 0,0 UV-I 90 W/m 7,9 C 8,2 C 1,6 km/h (1 Bft) 100,00 %
15.10.2017 08:54 8,2 C 11,7 C 97 % 1027,9 hPa 0,0 l/m 0,4 km/h (0 Bft) O-SO 109 0 min 0,000 mm 0,0 UV-I 103 W/m 7,8 C 8,2 C 3,2 km/h (1 Bft) 100,00 %
15.10.2017 08:56 8,3 C 11,7 C 98 % 1028,0 hPa 0,0 l/m 0,0 km/h (0 Bft) O-SO 109 0 min 0,000 mm 0,0 UV-I 98 W/m 8,0 C 8,3 C 1,6 km/h (1 Bft) 97,87 %
15.10.2017 08:58 8,3 C 11,7 C 97 % 1028,0 hPa 0,0 l/m 0,2 km/h (0 Bft) O-SO 109 0 min 0,000 mm 0,0 UV-I 99 W/m 7,9 C 8,3 C 1,6 km/h (1 Bft) 100,00 %
15.10.2017 09:00 8,3 C 11,7 C 98 % 1028,0 hPa 0,0 l/m 0,0 km/h (0 Bft) O-SO 109 0 min 0,025 mm 0,0 UV-I 98 W/m 8,0 C 8,3 C 1,6 km/h (1 Bft) 94,00 %
15.10.2017 09:02 8,3 C 11,7 C 98 % 1028,0 hPa 0,0 l/m 0,0 km/h (0 Bft) O-SO 109 0 min 0,000 mm 0,0 UV-I 100 W/m 8,0 C 8,3 C 0,0 km/h (0 Bft) 97,37 %
15.10.2017 09:04 8,3 C 11,7 C 98 % 1028,0 hPa 0,0 l/m 0,2 km/h (0 Bft) O-SO 109 0 min 0,000 mm 0,0 UV-I 104 W/m 8,0 C 8,3 C 1,6 km/h (1 Bft) 96,23 %
15.10.2017 09:06 8,3 C 11,7 C 98 % 1028,0 hPa 0,0 l/m 0,1 km/h (0 Bft) O-SO 108 0 min 0,000 mm 0,0 UV-I 117 W/m 8,0 C 8,3 C 1,6 km/h (1 Bft) 94,74 %
15.10.2017 09:08 8,3 C 11,7 C 98 % 1027,9 hPa 0,0 l/m 0,0 km/h (0 Bft) O-SO 108 0 min 0,000 mm 0,0 UV-I 121 W/m 8,0 C 8,3 C 1,6 km/h (1 Bft) 98,21 %
15.10.2017 09:10 8,3 C 11,7 C 98 % 1028,0 hPa 0,0 l/m 0,0 km/h (0 Bft) O-SO 108 0 min 0,000 mm 0,0 UV-I 117 W/m 8,0 C 8,3 C 0,0 km/h (0 Bft) 97,37 %
15.10.2017 09:12 8,4 C 11,7 C 98 % 1028,0 hPa 0,0 l/m 0,0 km/h (0 Bft) O-SO 108 0 min 0,000 mm 0,0 UV-I 122 W/m 8,1 C 8,4 C 0,0 km/h (0 Bft) 98,00 %
15.10.2017 09:14 8,4 C 11,7 C 98 % 1028,0 hPa 0,0 l/m 0,4 km/h (0 Bft) O-SO 108 0 min 0,000 mm 0,0 UV-I 122 W/m 8,1 C 8,4 C 3,2 km/h (1 Bft) 97,92 %
15.10.2017 09:16 8,6 C 11,7 C 98 % 1028,0 hPa 0,0 l/m 0,5 km/h (0 Bft) O-SO 108 0 min 0,000 mm 0,0 UV-I 133 W/m 8,3 C 8,6 C 1,6 km/h (1 Bft) 96,00 %
15.10.2017 09:18 8,7 C 11,7 C 98 % 1028,0 hPa 0,0 l/m 1,4 km/h (1 Bft) O-NO 61 0 min 0,000 mm 0,0 UV-I 141 W/m 8,4 C 8,7 C 3,2 km/h (1 Bft) 97,87 %
15.10.2017 09:20 8,8 C 11,7 C 98 % 1028,1 hPa 0,0 l/m 2,2 km/h (1 Bft) NO 46 0 min 0,000 mm 0,0 UV-I 137 W/m 8,5 C 8,8 C 6,4 km/h (2 Bft) 96,00 %
15.10.2017 09:22 8,8 C 11,7 C 98 % 1028,1 hPa 0,0 l/m 3,4 km/h (1 Bft) NO 46 0 min 0,000 mm 0,0 UV-I 134 W/m 8,5 C 8,8 C 4,8 km/h (1 Bft) 97,87 %
15.10.2017 09:24 8,9 C 11,7 C 98 % 1028,1 hPa 0,0 l/m 3,9 km/h (1 Bft) NO 42 0 min 0,000 mm 0,0 UV-I 134 W/m 8,6 C 8,9 C 6,4 km/h (2 Bft) 95,12 %
15.10.2017 09:26 8,9 C 11,7 C 98 % 1028,1 hPa 0,0 l/m 3,0 km/h (1 Bft) NO 49 0 min 0,000 mm 0,0 UV-I 147 W/m 8,6 C 8,9 C 6,4 km/h (2 Bft) 92,00 %
15.10.2017 09:28 8,9 C 11,7 C 98 % 1028,1 hPa 0,0 l/m 2,0 km/h (1 Bft) NO 46 0 min 0,000 mm 0,0 UV-I 148 W/m 8,6 C 8,9 C 4,8 km/h (1 Bft) 92,11 %
15.10.2017 09:30 8,9 C 11,7 C 98 % 1028,1 hPa 0,0 l/m 1,9 km/h (1 Bft) NO 46 0 min 0,000 mm 0,0 UV-I 145 W/m 8,6 C 8,9 C 4,8 km/h (1 Bft) 96,23 %
15.10.2017 09:32 8,9 C 11,7 C 98 % 1028,1 hPa 0,0 l/m 1,2 km/h (1 Bft) NO 46 0 min 0,000 mm 0,4 UV-I 148 W/m 8,6 C 8,9 C 3,2 km/h (1 Bft) 96,00 %
15.10.2017 09:34 8,8 C 11,7 C 98 % 1028,2 hPa 0,0 l/m 2,0 km/h (1 Bft) NO 46 0 min 0,000 mm 0,5 UV-I 145 W/m 8,5 C 8,8 C 4,8 km/h (1 Bft) 94,74 %
15.10.2017 09:36 8,9 C 11,7 C 98 % 1028,1 hPa 0,0 l/m 1,6 km/h (1 Bft) NO 46 0 min 0,000 mm 0,5 UV-I 153 W/m 8,6 C 8,9 C 4,8 km/h (1 Bft) 95,74 %
15.10.2017 09:38 8,9 C 11,7 C 98 % 1028,1 hPa 0,0 l/m 3,1 km/h (1 Bft) NO 46 0 min 0,000 mm 0,5 UV-I 156 W/m 8,6 C 8,9 C 4,8 km/h (1 Bft) 93,62 %
15.10.2017 09:40 9,0 C 11,7 C 98 % 1028,2 hPa 0,0 l/m 3,4 km/h (1 Bft) NO 46 0 min 0,000 mm 0,5 UV-I 159 W/m 8,7 C 9,0 C 4,8 km/h (1 Bft) 94,00 %
15.10.2017 09:42 8,9 C 11,7 C 98 % 1028,2 hPa 0,0 l/m 2,3 km/h (1 Bft) NO 46 0 min 0,000 mm 0,5 UV-I 174 W/m 8,6 C 8,9 C 4,8 km/h (1 Bft) 96,30 %
15.10.2017 09:44 9,1 C 11,7 C 98 % 1028,1 hPa 0,0 l/m 1,3 km/h (1 Bft) NO 46 0 min 0,000 mm 0,5 UV-I 164 W/m 8,8 C 9,1 C 3,2 km/h (1 Bft) 94,03 %
15.10.2017 09:46 9,1 C 11,7 C 98 % 1028,2 hPa 0,0 l/m 1,8 km/h (1 Bft) NO 46 0 min 0,000 mm 0,6 UV-I 157 W/m 8,8 C 9,1 C 3,2 km/h (1 Bft) 96,23 %
15.10.2017 09:48 9,0 C 11,7 C 98 % 1028,1 hPa 0,0 l/m 0,8 km/h (0 Bft) NO 46 0 min 0,000 mm 0,6 UV-I 153 W/m 8,7 C 9,0 C 3,2 km/h (1 Bft) 90,24 %
15.10.2017 09:50 9,0 C 11,7 C 98 % 1028,2 hPa 0,0 l/m 0,3 km/h (0 Bft) NO 45 0 min 0,000 mm 0,6 UV-I 151 W/m 8,7 C 9,0 C 1,6 km/h (1 Bft) 96,00 %
15.10.2017 09:52 8,9 C 11,7 C 98 % 1028,2 hPa 0,0 l/m 0,6 km/h (0 Bft) NO 45 0 min 0,000 mm 0,6 UV-I 164 W/m 8,6 C 8,9 C 3,2 km/h (1 Bft) 94,00 %
15.10.2017 09:54 8,9 C 11,7 C 98 % 1028,2 hPa 0,0 l/m 1,6 km/h (1 Bft) NO 45 0 min 0,000 mm 0,6 UV-I 175 W/m 8,6 C 8,9 C 3,2 km/h (1 Bft) 94,87 %
15.10.2017 09:56 8,9 C 11,7 C 98 % 1028,2 hPa 0,0 l/m 0,8 km/h (0 Bft) NO 45 0 min 0,000 mm 0,6 UV-I 181 W/m 8,6 C 8,9 C 3,2 km/h (1 Bft) 96,36 %
15.10.2017 09:58 9,0 C 11,7 C 98 % 1028,2 hPa 0,0 l/m 0,1 km/h (0 Bft) NO 45 0 min 0,000 mm 0,6 UV-I 181 W/m 8,7 C 9,0 C 1,6 km/h (1 Bft) 95,83 %
15.10.2017 10:00 9,0 C 11,7 C 98 % 1028,1 hPa 0,0 l/m 1,7 km/h (1 Bft) NO 45 0 min 0,077 mm 0,6 UV-I 179 W/m 8,7 C 9,0 C 4,8 km/h (1 Bft) 95,16 %
15.10.2017 10:02 9,0 C 11,7 C 98 % 1028,2 hPa 0,0 l/m 0,5 km/h (0 Bft) NO 45 0 min 0,000 mm 0,7 UV-I 177 W/m 8,7 C 9,0 C 3,2 km/h (1 Bft) 95,74 %
15.10.2017 10:04 9,1 C 11,7 C 98 % 1028,2 hPa 0,0 l/m 3,0 km/h (1 Bft) NO 50 0 min 0,000 mm 0,7 UV-I 180 W/m 8,8 C 9,1 C 4,8 km/h (1 Bft) 100,00 %
15.10.2017 10:06 9,2 C 11,7 C 98 % 1028,1 hPa 0,0 l/m 2,3 km/h (1 Bft) NO 50 0 min 0,000 mm 0,7 UV-I 180 W/m 8,9 C 9,2 C 4,8 km/h (1 Bft) 100,00 %
15.10.2017 10:08 9,1 C 11,7 C 98 % 1028,2 hPa 0,0 l/m 1,4 km/h (1 Bft) NO 50 0 min 0,000 mm 0,7 UV-I 184 W/m 8,8 C 9,1 C 3,2 km/h (1 Bft) 100,00 %
15.10.2017 10:10 9,2 C 11,7 C 98 % 1028,2 hPa 0,0 l/m 2,4 km/h (1 Bft) NO 50 0 min 0,000 mm 0,7 UV-I 205 W/m 8,9 C 9,2 C 3,2 km/h (1 Bft) 98,00 %
15.10.2017 10:12 9,2 C 11,7 C 98 % 1028,2 hPa 0,0 l/m 1,4 km/h (1 Bft) NO 50 0 min 0,000 mm 0,7 UV-I 203 W/m 8,9 C 9,2 C 3,2 km/h (1 Bft) 100,00 %
15.10.2017 10:14 9,2 C 11,7 C 98 % 1028,2 hPa 0,0 l/m 1,4 km/h (1 Bft) NO 50 0 min 0,000 mm 0,7 UV-I 205 W/m 8,9 C 9,2 C 3,2 km/h (1 Bft) 100,00 %
15.10.2017 10:16 9,2 C 11,7 C 98 % 1028,2 hPa 0,0 l/m 1,4 km/h (1 Bft) NO 50 0 min 0,000 mm 0,7 UV-I 200 W/m 8,9 C 9,2 C 4,8 km/h (1 Bft) 100,00 %
15.10.2017 10:18 9,4 C 11,7 C 98 % 1028,2 hPa 0,0 l/m 0,0 km/h (0 Bft) NO 50 0 min 0,000 mm 0,8 UV-I 203 W/m 9,1 C 9,4 C 0,0 km/h (0 Bft) 100,00 %
15.10.2017 10:20 9,5 C 11,7 C 98 % 1028,2 hPa 0,0 l/m 1,5 km/h (1 Bft) NO 50 0 min 0,000 mm 0,8 UV-I 202 W/m 9,2 C 9,5 C 3,2 km/h (1 Bft) 100,00 %
15.10.2017 10:22 9,7 C 11,7 C 98 % 1028,2 hPa 0,0 l/m 0,5 km/h (0 Bft) NO 50 0 min 0,000 mm 0,8 UV-I 192 W/m 9,4 C 9,7 C 3,2 km/h (1 Bft) 98,00 %
15.10.2017 10:24 9,6 C 11,7 C 98 % 1028,2 hPa 0,0 l/m 0,3 km/h (0 Bft) NO 50 0 min 0,000 mm 0,8 UV-I 197 W/m 9,3 C 9,6 C 1,6 km/h (1 Bft) 100,00 %
15.10.2017 10:26 9,7 C 11,7 C 98 % 1028,2 hPa 0,0 l/m 0,0 km/h (0 Bft) NO 50 0 min 0,000 mm 0,8 UV-I 200 W/m 9,4 C 9,7 C 1,6 km/h (1 Bft) 100,00 %
15.10.2017 10:28 9,6 C 11,7 C 98 % 1028,2 hPa 0,0 l/m 0,0 km/h (0 Bft) NO 50 0 min 0,000 mm 0,8 UV-I 190 W/m 9,3 C 9,6 C 1,6 km/h (1 Bft) 100,00 %
15.10.2017 10:30 9,6 C 11,7 C 98 % 1028,2 hPa 0,0 l/m 0,0 km/h (0 Bft) NO 50 0 min 0,000 mm 0,8 UV-I 183 W/m 9,3 C 9,6 C 0,0 km/h (0 Bft) 97,92 %
15.10.2017 10:32 9,6 C 11,7 C 98 % 1028,2 hPa 0,0 l/m 0,4 km/h (0 Bft) NO 50 0 min 0,000 mm 0,8 UV-I 195 W/m 9,3 C 9,6 C 3,2 km/h (1 Bft) 100,00 %
15.10.2017 10:34 9,9 C 11,7 C 98 % 1028,2 hPa 0,0 l/m 1,3 km/h (1 Bft) NO 50 0 min 0,000 mm 0,9 UV-I 209 W/m 9,6 C 9,9 C 3,2 km/h (1 Bft) 100,00 %
15.10.2017 10:36 10,0 C 11,7 C 98 % 1028,2 hPa 0,0 l/m 0,0 km/h (0 Bft) NO 50 0 min 0,000 mm 0,9 UV-I 224 W/m 9,7 C 10,0 C 0,0 km/h (0 Bft) 97,87 %
15.10.2017 10:38 10,1 C 11,7 C 98 % 1028,2 hPa 0,0 l/m 0,4 km/h (0 Bft) NO 50 0 min 0,000 mm 0,9 UV-I 225 W/m 9,8 C 10,1 C 1,6 km/h (1 Bft) 100,00 %
15.10.2017 10:40 10,0 C 11,7 C 98 % 1028,2 hPa 0,0 l/m 0,9 km/h (0 Bft) NO 50 0 min 0,000 mm 0,9 UV-I 232 W/m 9,7 C 10,0 C 3,2 km/h (1 Bft) 100,00 %
15.10.2017 10:42 10,1 C 11,7 C 98 % 1028,2 hPa 0,0 l/m 0,0 km/h (0 Bft) NO 50 0 min 0,000 mm 0,9 UV-I 247 W/m 9,8 C 10,1 C 1,6 km/h (1 Bft) 100,00 %
15.10.2017 10:44 10,3 C 11,7 C 98 % 1028,2 hPa 0,0 l/m 1,0 km/h (0 Bft) NO 50 0 min 0,000 mm 0,9 UV-I 225 W/m 10,0 C 10,3 C 3,2 km/h (1 Bft) 100,00 %
15.10.2017 10:46 10,3 C 11,7 C 98 % 1028,3 hPa 0,0 l/m 1,6 km/h (1 Bft) NO 50 0 min 0,000 mm 0,9 UV-I 209 W/m 10,0 C 10,3 C 4,8 km/h (1 Bft) 100,00 %
15.10.2017 10:48 10,3 C 11,7 C 98 % 1028,2 hPa 0,0 l/m 0,5 km/h (0 Bft) NO 50 0 min 0,000 mm 0,9 UV-I 214 W/m 10,0 C 10,3 C 3,2 km/h (1 Bft) 100,00 %
15.10.2017 10:50 10,4 C 11,7 C 98 % 1028,3 hPa 0,0 l/m 1,4 km/h (1 Bft) NO 50 0 min 0,000 mm 0,9 UV-I 227 W/m 10,1 C 10,4 C 4,8 km/h (1 Bft) 96,23 %
15.10.2017 10:52 10,3 C 11,7 C 98 % 1028,3 hPa 0,0 l/m 2,7 km/h (1 Bft) O-NO 70 0 min 0,000 mm 1,0 UV-I 250 W/m 10,0 C 10,3 C 4,8 km/h (1 Bft) 100,00 %
15.10.2017 10:54 10,2 C 11,7 C 98 % 1028,3 hPa 0,0 l/m 3,8 km/h (1 Bft) O-NO 69 0 min 0,000 mm 1,0 UV-I 248 W/m 9,9 C 10,2 C 6,4 km/h (2 Bft) 100,00 %
15.10.2017 10:56 10,2 C 11,7 C 98 % 1028,3 hPa 0,0 l/m 2,4 km/h (1 Bft) O-NO 69 0 min 0,000 mm 1,0 UV-I 248 W/m 9,9 C 10,2 C 3,2 km/h (1 Bft) 100,00 %
15.10.2017 10:58 10,2 C 11,7 C 98 % 1028,3 hPa 0,0 l/m 2,5 km/h (1 Bft) O-NO 78 0 min 0,000 mm 1,0 UV-I 247 W/m 9,9 C 10,2 C 4,8 km/h (1 Bft) 100,00 %
15.10.2017 11:00 10,3 C 11,7 C 98 % 1028,3 hPa 0,0 l/m 1,1 km/h (1 Bft) O-NO 78 0 min 0,101 mm 1,0 UV-I 256 W/m 10,0 C 10,3 C 3,2 km/h (1 Bft) 100,00 %
15.10.2017 11:02 10,4 C 11,7 C 98 % 1028,3 hPa 0,0 l/m 1,0 km/h (0 Bft) O-NO 78 0 min 0,000 mm 1,1 UV-I 252 W/m 10,1 C 10,4 C 3,2 km/h (1 Bft) 95,74 %
15.10.2017 11:04 10,7 C 11,7 C 98 % 1028,3 hPa 0,0 l/m 1,3 km/h (1 Bft) O-NO 78 0 min 0,000 mm 1,1 UV-I 252 W/m 10,4 C 10,7 C 3,2 km/h (1 Bft) 100,00 %
15.10.2017 11:06 10,5 C 11,7 C 98 % 1028,3 hPa 0,0 l/m 0,7 km/h (0 Bft) O-NO 78 0 min 0,000 mm 1,1 UV-I 256 W/m 10,2 C 10,5 C 3,2 km/h (1 Bft) 100,00 %
15.10.2017 11:08 10,4 C 11,7 C 98 % 1028,3 hPa 0,0 l/m 0,0 km/h (0 Bft) O-NO 78 2 min 0,000 mm 1,2 UV-I 277 W/m 10,1 C 10,4 C 0,0 km/h (0 Bft) 97,44 %
15.10.2017 11:10 10,6 C 11,7 C 98 % 1028,3 hPa 0,0 l/m 1,8 km/h (1 Bft) O-NO 78 2 min 0,000 mm 1,2 UV-I 296 W/m 10,3 C 10,6 C 4,8 km/h (1 Bft) 98,18 %
15.10.2017 11:12 10,6 C 11,7 C 98 % 1028,4 hPa 0,0 l/m 2,2 km/h (1 Bft) O-NO 78 0 min 0,000 mm 1,2 UV-I 243 W/m 10,3 C 10,6 C 3,2 km/h (1 Bft) 100,00 %
15.10.2017 11:14 10,6 C 11,7 C 98 % 1028,3 hPa 0,0 l/m 0,9 km/h (0 Bft) O-NO 78 0 min 0,000 mm 1,2 UV-I 239 W/m 10,3 C 10,6 C 3,2 km/h (1 Bft) 100,00 %
15.10.2017 11:16 10,6 C 11,7 C 98 % 1028,3 hPa 0,0 l/m 0,8 km/h (0 Bft) O-NO 78 0 min 0,000 mm 1,3 UV-I 250 W/m 10,3 C 10,6 C 3,2 km/h (1 Bft) 100,00 %
15.10.2017 11:18 10,8 C 11,7 C 98 % 1028,3 hPa 0,0 l/m 2,4 km/h (1 Bft) O-NO 77 2 min 0,000 mm 1,4 UV-I 330 W/m 10,5 C 10,8 C 4,8 km/h (1 Bft) 100,00 %
15.10.2017 11:20 10,7 C 11,7 C 98 % 1028,3 hPa 0,0 l/m 1,5 km/h (1 Bft) O-NO 67 2 min 0,000 mm 1,5 UV-I 293 W/m 10,4 C 10,7 C 3,2 km/h (1 Bft) 100,00 %
15.10.2017 11:22 10,7 C 11,7 C 98 % 1028,3 hPa 0,0 l/m 0,1 km/h (0 Bft) O-NO 67 2 min 0,000 mm 1,5 UV-I 306 W/m 10,4 C 10,7 C 1,6 km/h (1 Bft) 100,00 %
15.10.2017 11:24 10,8 C 11,7 C 98 % 1028,3 hPa 0,0 l/m 0,2 km/h (0 Bft) O-NO 67 0 min 0,000 mm 1,5 UV-I 257 W/m 10,5 C 10,8 C 1,6 km/h (1 Bft) 95,74 %
15.10.2017 11:26 10,8 C 11,7 C 98 % 1028,3 hPa 0,0 l/m 0,7 km/h (0 Bft) O-NO 67 2 min 0,000 mm 1,6 UV-I 310 W/m 10,5 C 10,8 C 1,6 km/h (1 Bft) 93,62 %
15.10.2017 11:28 10,9 C 11,7 C 98 % 1028,3 hPa 0,0 l/m 0,7 km/h (0 Bft) O-NO 67 2 min 0,000 mm 1,7 UV-I 377 W/m 10,6 C 10,9 C 3,2 km/h (1 Bft) 97,56 %
15.10.2017 11:30 11,0 C 11,7 C 98 % 1028,3 hPa 0,0 l/m 1,1 km/h (1 Bft) O-NO 67 2 min 0,000 mm 1,9 UV-I 488 W/m 10,7 C 11,0 C 3,2 km/h (1 Bft) 98,11 %
15.10.2017 11:32 11,1 C 11,7 C 98 % 1028,3 hPa 0,0 l/m 0,0 km/h (0 Bft) O-NO 67 2 min 0,000 mm 2,0 UV-I 511 W/m 10,8 C 11,1 C 0,0 km/h (0 Bft) 94,74 %
15.10.2017 11:34 11,2 C 11,7 C 98 % 1028,3 hPa 0,0 l/m 1,4 km/h (1 Bft) O-NO 67 2 min 0,000 mm 2,0 UV-I 540 W/m 10,9 C 11,2 C 3,2 km/h (1 Bft) 97,87 %
15.10.2017 11:36 11,2 C 11,7 C 98 % 1028,3 hPa 0,0 l/m 0,8 km/h (0 Bft) O-NO 67 2 min 0,000 mm 2,1 UV-I 504 W/m 10,9 C 11,2 C 3,2 km/h (1 Bft) 98,00 %
15.10.2017 11:38 11,4 C 11,7 C 98 % 1028,3 hPa 0,0 l/m 0,1 km/h (0 Bft) O-NO 67 2 min 0,000 mm 2,1 UV-I 544 W/m 11,1 C 11,4 C 1,6 km/h (1 Bft) 98,11 %
15.10.2017 11:40 11,7 C 11,7 C 98 % 1028,3 hPa 0,0 l/m 0,1 km/h (0 Bft) O-NO 67 2 min 0,000 mm 2,1 UV-I 547 W/m 11,4 C 11,7 C 1,6 km/h (1 Bft) 97,37 %
15.10.2017 11:42 11,8 C 11,7 C 98 % 1028,3 hPa 0,0 l/m 2,0 km/h (1 Bft) NO 52 2 min 0,000 mm 2,2 UV-I 533 W/m 11,5 C 11,8 C 4,8 km/h (1 Bft) 98,11 %
15.10.2017 11:44 11,9 C 11,7 C 98 % 1028,3 hPa 0,0 l/m 2,8 km/h (1 Bft) NO 52 2 min 0,000 mm 2,2 UV-I 527 W/m 11,6 C 11,9 C 4,8 km/h (1 Bft) 96,00 %
15.10.2017 11:46 12,1 C 11,7 C 98 % 1028,3 hPa 0,0 l/m 2,7 km/h (1 Bft) NO 52 2 min 0,000 mm 2,2 UV-I 529 W/m 11,8 C 12,1 C 4,8 km/h (1 Bft) 97,87 %
15.10.2017 11:48 12,1 C 11,7 C 98 % 1028,3 hPa 0,0 l/m 1,9 km/h (1 Bft) NO 52 2 min 0,000 mm 2,1 UV-I 528 W/m 11,8 C 12,1 C 3,2 km/h (1 Bft) 97,37 %
15.10.2017 11:50 12,2 C 11,7 C 98 % 1028,2 hPa 0,0 l/m 0,6 km/h (0 Bft) NO 52 2 min 0,000 mm 2,2 UV-I 519 W/m 11,9 C 12,2 C 3,2 km/h (1 Bft) 97,92 %
15.10.2017 11:52 12,2 C 11,7 C 98 % 1028,2 hPa 0,0 l/m 0,1 km/h (0 Bft) NO 52 2 min 0,000 mm 2,2 UV-I 523 W/m 11,9 C 12,2 C 1,6 km/h (1 Bft) 95,74 %
15.10.2017 11:54 12,3 C 11,7 C 98 % 1028,2 hPa 0,0 l/m 0,0 km/h (0 Bft) NO 52 2 min 0,000 mm 2,3 UV-I 529 W/m 12,0 C 12,3 C 0,0 km/h (0 Bft) 97,87 %
15.10.2017 11:56 12,4 C 11,7 C 98 % 1028,2 hPa 0,0 l/m 0,1 km/h (0 Bft) NO 52 2 min 0,000 mm 2,3 UV-I 525 W/m 12,1 C 12,4 C 1,6 km/h (1 Bft) 100,00 %
15.10.2017 11:58 12,7 C 11,7 C 97 % 1028,3 hPa 0,0 l/m 0,2 km/h (0 Bft) NO 52 2 min 0,000 mm 2,3 UV-I 529 W/m 12,2 C 12,7 C 1,6 km/h (1 Bft) 96,00 %
15.10.2017 12:00 12,8 C 11,7 C 97 % 1028,3 hPa 0,0 l/m 0,2 km/h (0 Bft) NO 52 2 min 0,203 mm 2,4 UV-I 534 W/m 12,3 C 12,8 C 1,6 km/h (1 Bft) 100,00 %
15.10.2017 12:02 12,9 C 11,7 C 96 % 1028,2 hPa 0,0 l/m 0,1 km/h (0 Bft) NO 52 2 min 0,000 mm 2,4 UV-I 534 W/m 12,3 C 12,9 C 1,6 km/h (1 Bft) 95,74 %
15.10.2017 12:04 13,0 C 11,7 C 96 % 1028,2 hPa 0,0 l/m 2,7 km/h (1 Bft) S-SW 211 2 min 0,000 mm 2,4 UV-I 534 W/m 12,4 C 13,0 C 4,8 km/h (1 Bft) 100,00 %
15.10.2017 12:06 13,2 C 11,7 C 96 % 1028,2 hPa 0,0 l/m 1,1 km/h (1 Bft) S-SW 211 2 min 0,000 mm 2,4 UV-I 536 W/m 12,6 C 13,2 C 4,8 km/h (1 Bft) 100,00 %
15.10.2017 12:08 13,3 C 11,7 C 94 % 1028,2 hPa 0,0 l/m 0,3 km/h (0 Bft) S-SW 211 2 min 0,000 mm 2,4 UV-I 538 W/m 12,4 C 13,3 C 3,2 km/h (1 Bft) 98,11 %
15.10.2017 12:10 13,4 C 11,7 C 94 % 1028,2 hPa 0,0 l/m 0,1 km/h (0 Bft) S-SW 211 2 min 0,000 mm 2,4 UV-I 535 W/m 12,5 C 13,4 C 1,6 km/h (1 Bft) 100,00 %
15.10.2017 12:12 13,5 C 11,7 C 93 % 1028,2 hPa 0,0 l/m 0,2 km/h (0 Bft) S-SW 211 2 min 0,000 mm 2,4 UV-I 537 W/m 12,4 C 13,5 C 1,6 km/h (1 Bft) 97,87 %
15.10.2017 12:14 13,7 C 11,7 C 92 % 1028,2 hPa 0,0 l/m 1,1 km/h (1 Bft) W 262 2 min 0,000 mm 2,5 UV-I 538 W/m 12,4 C 13,7 C 3,2 km/h (1 Bft) 100,00 %
15.10.2017 12:16 13,8 C 11,7 C 92 % 1028,1 hPa 0,0 l/m 0,0 km/h (0 Bft) W 262 2 min 0,000 mm 2,5 UV-I 542 W/m 12,5 C 13,8 C 1,6 km/h (1 Bft) 100,00 %
15.10.2017 12:18 13,9 C 11,7 C 91 % 1028,1 hPa 0,0 l/m 0,1 km/h (0 Bft) W 262 2 min 0,000 mm 2,5 UV-I 545 W/m 12,5 C 13,9 C 1,6 km/h (1 Bft) 97,87 %
15.10.2017 12:20 14,2 C 11,7 C 91 % 1028,1 hPa 0,0 l/m 0,7 km/h (0 Bft) S-SW 202 2 min 0,000 mm 2,5 UV-I 545 W/m 12,8 C 14,2 C 3,2 km/h (1 Bft) 100,00 %
15.10.2017 12:22 14,4 C 11,7 C 89 % 1028,1 hPa 0,0 l/m 2,0 km/h (1 Bft) NO 55 2 min 0,000 mm 2,5 UV-I 546 W/m 12,6 C 14,4 C 8,0 km/h (2 Bft) 100,00 %
15.10.2017 12:24 14,7 C 11,7 C 87 % 1028,1 hPa 0,0 l/m 3,8 km/h (1 Bft) NO 55 2 min 0,000 mm 2,5 UV-I 548 W/m 12,6 C 14,7 C 6,4 km/h (2 Bft) 100,00 %
15.10.2017 12:26 14,8 C 11,7 C 87 % 1028,0 hPa 0,0 l/m 3,6 km/h (1 Bft) NO 55 2 min 0,000 mm 2,5 UV-I 549 W/m 12,7 C 14,8 C 6,4 km/h (2 Bft) 100,00 %
15.10.2017 12:28 15,1 C 11,7 C 87 % 1028,0 hPa 0,0 l/m 5,8 km/h (2 Bft) NO 43 2 min 0,000 mm 2,5 UV-I 546 W/m 13,0 C 15,1 C 8,0 km/h (2 Bft) 97,22 %
15.10.2017 12:30 15,1 C 11,7 C 86 % 1028,0 hPa 0,0 l/m 3,7 km/h (1 Bft) NO 37 2 min 0,000 mm 2,5 UV-I 548 W/m 12,8 C 15,1 C 6,4 km/h (2 Bft) 100,00 %
15.10.2017 12:32 15,2 C 11,7 C 86 % 1028,0 hPa 0,0 l/m 5,4 km/h (1 Bft) NO 51 2 min 0,000 mm 2,5 UV-I 549 W/m 12,9 C 15,2 C 9,7 km/h (2 Bft) 100,00 %
15.10.2017 12:34 15,2 C 11,7 C 85 % 1028,0 hPa 0,0 l/m 3,1 km/h (1 Bft) NO 51 2 min 0,000 mm 2,5 UV-I 552 W/m 12,7 C 15,2 C 4,8 km/h (1 Bft) 100,00 %
15.10.2017 12:36 15,3 C 11,7 C 85 % 1027,9 hPa 0,0 l/m 5,0 km/h (1 Bft) O-NO 60 2 min 0,000 mm 2,5 UV-I 547 W/m 12,8 C 15,3 C 8,0 km/h (2 Bft) 100,00 %
15.10.2017 12:38 15,3 C 11,7 C 85 % 1027,9 hPa 0,0 l/m 4,8 km/h (1 Bft) NO 46 2 min 0,000 mm 2,5 UV-I 545 W/m 12,8 C 15,3 C 8,0 km/h (2 Bft) 98,00 %
15.10.2017 12:40 15,3 C 11,7 C 85 % 1027,8 hPa 0,0 l/m 2,7 km/h (1 Bft) N-NO 30 2 min 0,000 mm 2,5 UV-I 551 W/m 12,8 C 15,3 C 6,4 km/h (2 Bft) 100,00 %
15.10.2017 12:42 15,3 C 11,7 C 85 % 1027,9 hPa 0,0 l/m 2,8 km/h (1 Bft) NO 44 2 min 0,000 mm 2,5 UV-I 551 W/m 12,8 C 15,3 C 6,4 km/h (2 Bft) 100,00 %
15.10.2017 12:44 15,4 C 11,7 C 83 % 1027,8 hPa 0,0 l/m 4,2 km/h (1 Bft) O 81 2 min 0,000 mm 2,5 UV-I 552 W/m 12,5 C 15,4 C 6,4 km/h (2 Bft) 100,00 %
15.10.2017 12:46 15,4 C 11,7 C 84 % 1027,8 hPa 0,0 l/m 4,7 km/h (1 Bft) O 86 2 min 0,000 mm 2,6 UV-I 553 W/m 12,7 C 15,4 C 6,4 km/h (2 Bft) 97,87 %
15.10.2017 12:48 15,4 C 11,7 C 84 % 1027,8 hPa 0,0 l/m 5,0 km/h (1 Bft) O-NO 75 2 min 0,000 mm 2,6 UV-I 552 W/m 12,7 C 15,4 C 8,0 km/h (2 Bft) 100,00 %
15.10.2017 12:50 15,4 C 11,7 C 82 % 1027,8 hPa 0,0 l/m 3,4 km/h (1 Bft) O-SO 109 2 min 0,000 mm 2,6 UV-I 555 W/m 12,3 C 15,4 C 8,0 km/h (2 Bft) 97,56 %
15.10.2017 12:52 15,4 C 11,7 C 82 % 1027,8 hPa 0,0 l/m 5,2 km/h (1 Bft) O-SO 107 2 min 0,000 mm 2,5 UV-I 551 W/m 12,3 C 15,4 C 9,7 km/h (2 Bft) 100,00 %
15.10.2017 12:54 15,4 C 11,7 C 82 % 1027,7 hPa 0,0 l/m 1,7 km/h (1 Bft) O-SO 107 2 min 0,000 mm 2,5 UV-I 552 W/m 12,3 C 15,4 C 4,8 km/h (1 Bft) 100,00 %
15.10.2017 12:56 15,6 C 11,7 C 85 % 1027,7 hPa 0,0 l/m 0,6 km/h (0 Bft) O-SO 107 2 min 0,000 mm 2,5 UV-I 550 W/m 13,1 C 15,6 C 1,6 km/h (1 Bft) 100,00 %
15.10.2017 12:58 15,7 C 11,7 C 84 % 1027,6 hPa 0,0 l/m 1,8 km/h (1 Bft) O-NO 65 2 min 0,000 mm 2,6 UV-I 552 W/m 13,0 C 15,7 C 6,4 km/h (2 Bft) 94,00 %
15.10.2017 13:00 15,9 C 11,7 C 83 % 1027,7 hPa 0,0 l/m 5,3 km/h (1 Bft) N-NO 28 2 min 0,000 mm 2,6 UV-I 552 W/m 13,0 C 15,9 C 6,4 km/h (2 Bft) 100,00 %
15.10.2017 13:02 16,1 C 11,7 C 82 % 1027,6 hPa 0,0 l/m 4,1 km/h (1 Bft) N-NO 22 2 min 0,280 mm 2,6 UV-I 552 W/m 13,0 C 16,1 C 8,0 km/h (2 Bft) 100,00 %
15.10.2017 13:04 16,1 C 11,7 C 82 % 1027,6 hPa 0,0 l/m 1,6 km/h (1 Bft) N-NO 22 2 min 0,000 mm 2,5 UV-I 549 W/m 13,0 C 16,1 C 4,8 km/h (1 Bft) 96,00 %
15.10.2017 13:06 16,1 C 11,7 C 81 % 1027,6 hPa 0,0 l/m 0,9 km/h (0 Bft) N-NO 22 2 min 0,000 mm 2,5 UV-I 546 W/m 12,8 C 16,1 C 3,2 km/h (1 Bft) 100,00 %
15.10.2017 13:08 16,2 C 11,7 C 82 % 1027,5 hPa 0,0 l/m 0,7 km/h (0 Bft) N-NW 346 2 min 0,000 mm 2,6 UV-I 549 W/m 13,1 C 16,2 C 3,2 km/h (1 Bft) 100,00 %
15.10.2017 13:10 16,4 C 11,7 C 84 % 1027,5 hPa 0,0 l/m 3,7 km/h (1 Bft) N-NO 28 2 min 0,000 mm 2,6 UV-I 548 W/m 13,7 C 16,4 C 6,4 km/h (2 Bft) 100,00 %
15.10.2017 13:12 16,5 C 11,7 C 82 % 1027,5 hPa 0,0 l/m 2,7 km/h (1 Bft) N-NO 28 2 min 0,000 mm 2,5 UV-I 548 W/m 13,4 C 16,5 C 4,8 km/h (1 Bft) 93,62 %
15.10.2017 13:14 16,6 C 11,7 C 78 % 1027,5 hPa 0,0 l/m 3,1 km/h (1 Bft) NO 49 2 min 0,000 mm 2,5 UV-I 547 W/m 12,7 C 16,6 C 6,4 km/h (2 Bft) 96,23 %
15.10.2017 13:16 16,6 C 11,7 C 78 % 1027,4 hPa 0,0 l/m 5,7 km/h (1 Bft) NO 55 2 min 0,000 mm 2,5 UV-I 547 W/m 12,7 C 16,6 C 8,0 km/h (2 Bft) 95,12 %
15.10.2017 13:18 16,6 C 11,7 C 79 % 1027,4 hPa 0,0 l/m 2,7 km/h (1 Bft) NO 55 2 min 0,000 mm 2,5 UV-I 545 W/m 12,9 C 16,6 C 4,8 km/h (1 Bft) 97,87 %
15.10.2017 13:20 16,7 C 11,7 C 77 % 1027,4 hPa 0,0 l/m 3,3 km/h (1 Bft) O-NO 71 2 min 0,000 mm 2,5 UV-I 543 W/m 12,6 C 16,7 C 6,4 km/h (2 Bft) 97,87 %
15.10.2017 13:22 16,7 C 11,7 C 77 % 1027,4 hPa 0,0 l/m 0,8 km/h (0 Bft) O-NO 71 2 min 0,000 mm 2,5 UV-I 542 W/m 12,6 C 16,7 C 4,8 km/h (1 Bft) 97,87 %
15.10.2017 13:24 16,9 C 11,7 C 80 % 1027,4 hPa 0,0 l/m 3,7 km/h (1 Bft) NO 50 2 min 0,000 mm 2,5 UV-I 542 W/m 13,4 C 16,9 C 4,8 km/h (1 Bft) 97,87 %
15.10.2017 13:26 16,9 C 11,7 C 76 % 1027,4 hPa 0,0 l/m 1,3 km/h (1 Bft) NO 50 2 min 0,000 mm 2,5 UV-I 541 W/m 12,6 C 16,9 C 3,2 km/h (1 Bft) 96,23 %
15.10.2017 13:28 16,9 C 11,7 C 79 % 1027,3 hPa 0,0 l/m 2,1 km/h (1 Bft) NO 50 2 min 0,000 mm 2,5 UV-I 541 W/m 13,2 C 16,9 C 4,8 km/h (1 Bft) 91,49 %
15.10.2017 13:30 17,1 C 11,7 C 77 % 1027,3 hPa 0,0 l/m 4,0 km/h (1 Bft) NO 37 2 min 0,000 mm 2,5 UV-I 539 W/m 13,0 C 17,1 C 6,4 km/h (2 Bft) 97,37 %
15.10.2017 13:32 17,2 C 11,7 C 78 % 1027,3 hPa 0,0 l/m 4,9 km/h (1 Bft) NO 42 2 min 0,000 mm 2,5 UV-I 537 W/m 13,3 C 17,2 C 6,4 km/h (2 Bft) 98,00 %
15.10.2017 13:34 17,3 C 11,7 C 76 % 1027,3 hPa 0,0 l/m 3,3 km/h (1 Bft) NO 38 2 min 0,000 mm 2,4 UV-I 536 W/m 13,0 C 17,3 C 6,4 km/h (2 Bft) 98,00 %
15.10.2017 13:36 17,3 C 11,7 C 76 % 1027,3 hPa 0,0 l/m 0,9 km/h (0 Bft) NO 34 2 min 0,000 mm 2,2 UV-I 496 W/m 13,0 C 17,3 C 4,8 km/h (1 Bft) 98,00 %
15.10.2017 13:38 17,3 C 11,7 C 75 % 1027,3 hPa 0,0 l/m 2,9 km/h (1 Bft) NO 44 2 min 0,000 mm 2,2 UV-I 509 W/m 12,8 C 17,3 C 6,4 km/h (2 Bft) 97,37 %
15.10.2017 13:40 17,2 C 11,7 C 75 % 1027,3 hPa 0,0 l/m 2,7 km/h (1 Bft) NO 44 2 min 0,000 mm 2,4 UV-I 530 W/m 12,7 C 17,2 C 4,8 km/h (1 Bft) 100,00 %
15.10.2017 13:42 17,2 C 11,7 C 75 % 1027,3 hPa 0,0 l/m 3,4 km/h (1 Bft) NO 55 2 min 0,000 mm 2,4 UV-I 529 W/m 12,7 C 17,2 C 6,4 km/h (2 Bft) 100,00 %
15.10.2017 13:44 17,3 C 11,7 C 75 % 1027,3 hPa 0,0 l/m 3,5 km/h (1 Bft) NO 55 2 min 0,000 mm 2,4 UV-I 526 W/m 12,8 C 17,3 C 4,8 km/h (1 Bft) 100,00 %
15.10.2017 13:46 17,4 C 11,7 C 76 % 1027,3 hPa 0,0 l/m 1,2 km/h (1 Bft) NO 55 2 min 0,000 mm 2,4 UV-I 526 W/m 13,1 C 17,4 C 4,8 km/h (1 Bft) 100,00 %
15.10.2017 13:48 17,6 C 11,7 C 74 % 1027,2 hPa 0,0 l/m 3,2 km/h (1 Bft) O-NO 60 2 min 0,000 mm 2,2 UV-I 526 W/m 12,9 C 17,6 C 4,8 km/h (1 Bft) 100,00 %
15.10.2017 13:50 17,7 C 11,7 C 75 % 1027,2 hPa 0,0 l/m 5,0 km/h (1 Bft) O-NO 63 2 min 0,000 mm 2,3 UV-I 522 W/m 13,2 C 17,7 C 8,0 km/h (2 Bft) 100,00 %
15.10.2017 13:52 17,7 C 11,7 C 73 % 1027,2 hPa 0,0 l/m 3,1 km/h (1 Bft) O-NO 63 2 min 0,000 mm 2,3 UV-I 521 W/m 12,8 C 17,7 C 6,4 km/h (2 Bft) 100,00 %
15.10.2017 13:54 17,7 C 11,7 C 73 % 1027,2 hPa 0,0 l/m 4,4 km/h (1 Bft) O-NO 77 2 min 0,000 mm 2,3 UV-I 519 W/m 12,8 C 17,7 C 8,0 km/h (2 Bft) 100,00 %
15.10.2017 13:56 17,7 C 11,7 C 74 % 1027,1 hPa 0,0 l/m 2,1 km/h (1 Bft) O-NO 66 2 min 0,000 mm 2,3 UV-I 509 W/m 13,0 C 17,7 C 6,4 km/h (2 Bft) 100,00 %
15.10.2017 13:58 17,7 C 11,7 C 73 % 1027,1 hPa 0,0 l/m 3,7 km/h (1 Bft) NO 55 2 min 0,000 mm 2,3 UV-I 515 W/m 12,8 C 17,7 C 8,0 km/h (2 Bft) 95,74 %
15.10.2017 14:00 17,8 C 11,7 C 74 % 1027,1 hPa 0,0 l/m 5,8 km/h (2 Bft) NO 55 2 min 0,305 mm 2,3 UV-I 514 W/m 13,1 C 17,8 C 9,7 km/h (2 Bft) 100,00 %
15.10.2017 14:02 18,0 C 11,7 C 74 % 1027,1 hPa 0,0 l/m 5,9 km/h (2 Bft) O 79 2 min 0,000 mm 2,2 UV-I 513 W/m 13,3 C 18,0 C 8,0 km/h (2 Bft) 100,00 %
15.10.2017 14:04 18,2 C 11,7 C 73 % 1027,1 hPa 0,0 l/m 6,1 km/h (2 Bft) O-NO 69 2 min 0,000 mm 2,2 UV-I 510 W/m 13,3 C 18,2 C 8,0 km/h (2 Bft) 100,00 %
15.10.2017 14:06 18,1 C 11,7 C 71 % 1027,0 hPa 0,0 l/m 2,8 km/h (1 Bft) O-NO 67 2 min 0,000 mm 2,2 UV-I 507 W/m 12,8 C 18,1 C 8,0 km/h (2 Bft) 100,00 %
15.10.2017 14:08 18,2 C 11,7 C 73 % 1026,9 hPa 0,0 l/m 2,8 km/h (1 Bft) NO 49 2 min 0,000 mm 2,2 UV-I 499 W/m 13,3 C 18,2 C 8,0 km/h (2 Bft) 95,74 %
15.10.2017 14:10 18,2 C 11,7 C 72 % 1026,9 hPa 0,0 l/m 5,0 km/h (1 Bft) O-NO 69 2 min 0,000 mm 2,2 UV-I 483 W/m 13,1 C 18,2 C 8,0 km/h (2 Bft) 100,00 %
15.10.2017 14:14 18,3 C 11,7 C 71 % 1026,9 hPa 0,0 l/m 4,1 km/h (1 Bft) O-NO 59 4 min 0,000 mm 2,1 UV-I 497 W/m 12,9 C 18,3 C 6,4 km/h (2 Bft) 100,00 %
15.10.2017 14:16 18,3 C 11,7 C 73 % 1026,8 hPa 0,0 l/m 5,7 km/h (1 Bft) O-NO 58 2 min 0,000 mm 2,1 UV-I 495 W/m 13,4 C 18,3 C 8,0 km/h (2 Bft) 100,00 %
15.10.2017 14:18 18,3 C 11,7 C 70 % 1026,8 hPa 0,0 l/m 4,4 km/h (1 Bft) O-NO 63 2 min 0,000 mm 2,1 UV-I 493 W/m 12,7 C 18,3 C 8,0 km/h (2 Bft) 96,00 %
15.10.2017 14:20 18,3 C 11,7 C 72 % 1026,8 hPa 0,0 l/m 4,2 km/h (1 Bft) O-NO 73 2 min 0,000 mm 2,1 UV-I 490 W/m 13,2 C 18,3 C 6,4 km/h (2 Bft) 100,00 %
15.10.2017 14:22 18,3 C 11,7 C 72 % 1026,7 hPa 0,0 l/m 6,7 km/h (2 Bft) O-NO 69 2 min 0,000 mm 2,0 UV-I 487 W/m 13,2 C 18,2 C 11,3 km/h (2 Bft) 100,00 %
15.10.2017 14:24 18,3 C 11,7 C 72 % 1026,8 hPa 0,0 l/m 5,1 km/h (1 Bft) O-NO 60 2 min 0,000 mm 2,0 UV-I 483 W/m 13,2 C 18,3 C 8,0 km/h (2 Bft) 100,00 %
15.10.2017 14:26 18,4 C 11,7 C 72 % 1026,7 hPa 0,0 l/m 6,9 km/h (2 Bft) NO 47 2 min 0,000 mm 2,0 UV-I 482 W/m 13,3 C 18,2 C 9,7 km/h (2 Bft) 100,00 %
15.10.2017 14:28 18,4 C 11,7 C 70 % 1026,8 hPa 0,0 l/m 7,4 km/h (2 Bft) O-NO 57 2 min 0,000 mm 2,0 UV-I 478 W/m 12,8 C 17,9 C 9,7 km/h (2 Bft) 100,00 %
15.10.2017 14:30 18,4 C 11,7 C 70 % 1026,8 hPa 0,0 l/m 6,0 km/h (2 Bft) O-NO 59 2 min 0,000 mm 2,0 UV-I 476 W/m 12,8 C 18,4 C 8,0 km/h (2 Bft) 98,00 %
15.10.2017 14:32 18,4 C 11,7 C 71 % 1026,7 hPa 0,0 l/m 5,2 km/h (1 Bft) NO 55 2 min 0,000 mm 1,9 UV-I 472 W/m 13,0 C 18,4 C 9,7 km/h (2 Bft) 100,00 %
15.10.2017 14:34 18,4 C 11,7 C 71 % 1026,7 hPa 0,0 l/m 3,9 km/h (1 Bft) O-NO 75 2 min 0,000 mm 1,9 UV-I 469 W/m 13,0 C 18,4 C 6,4 km/h (2 Bft) 100,00 %
15.10.2017 14:36 18,6 C 11,7 C 72 % 1026,7 hPa 0,0 l/m 6,1 km/h (2 Bft) NO 49 2 min 0,000 mm 1,9 UV-I 466 W/m 13,4 C 18,6 C 8,0 km/h (2 Bft) 100,00 %
15.10.2017 14:38 18,7 C 11,7 C 70 % 1026,6 hPa 0,0 l/m 4,8 km/h (1 Bft) O-NO 66 2 min 0,000 mm 1,8 UV-I 457 W/m 13,1 C 18,7 C 6,4 km/h (2 Bft) 100,00 %
15.10.2017 14:40 18,6 C 11,7 C 71 % 1026,7 hPa 0,0 l/m 6,7 km/h (2 Bft) O-NO 72 2 min 0,000 mm 1,8 UV-I 460 W/m 13,2 C 18,5 C 11,3 km/h (2 Bft) 98,00 %
15.10.2017 14:42 18,6 C 11,7 C 71 % 1026,6 hPa 0,0 l/m 3,6 km/h (1 Bft) O 94 2 min 0,000 mm 1,8 UV-I 457 W/m 13,2 C 18,6 C 6,4 km/h (2 Bft) 97,37 %
15.10.2017 14:44 18,6 C 11,7 C 71 % 1026,6 hPa 0,0 l/m 3,8 km/h (1 Bft) O 101 2 min 0,000 mm 1,8 UV-I 426 W/m 13,2 C 18,6 C 6,4 km/h (2 Bft) 97,87 %
15.10.2017 14:46 18,6 C 11,7 C 71 % 1026,6 hPa 0,0 l/m 4,1 km/h (1 Bft) O-NO 71 2 min 0,000 mm 1,7 UV-I 400 W/m 13,2 C 18,6 C 8,0 km/h (2 Bft) 98,11 %
15.10.2017 14:48 18,6 C 11,7 C 70 % 1026,5 hPa 0,0 l/m 6,8 km/h (2 Bft) NO 49 2 min 0,000 mm 1,7 UV-I 393 W/m 13,0 C 18,4 C 9,7 km/h (2 Bft) 100,00 %
15.10.2017 14:50 18,7 C 11,7 C 69 % 1026,5 hPa 0,0 l/m 4,5 km/h (1 Bft) O-NO 76 2 min 0,000 mm 1,7 UV-I 444 W/m 12,9 C 18,7 C 8,0 km/h (2 Bft) 100,00 %
15.10.2017 14:52 18,7 C 11,7 C 69 % 1026,5 hPa 0,0 l/m 4,8 km/h (1 Bft) O-SO 113 2 min 0,000 mm 1,7 UV-I 439 W/m 12,9 C 18,7 C 8,0 km/h (2 Bft) 100,00 %
15.10.2017 14:54 18,8 C 11,7 C 70 % 1026,5 hPa 0,0 l/m 4,3 km/h (1 Bft) O-NO 59 2 min 0,000 mm 1,6 UV-I 435 W/m 13,2 C 18,8 C 6,4 km/h (2 Bft) 100,00 %
15.10.2017 14:56 18,8 C 11,7 C 70 % 1026,5 hPa 0,0 l/m 4,4 km/h (1 Bft) O-NO 76 2 min 0,000 mm 1,6 UV-I 431 W/m 13,2 C 18,8 C 8,0 km/h (2 Bft) 100,00 %
15.10.2017 14:58 18,8 C 11,7 C 70 % 1026,5 hPa 0,0 l/m 5,1 km/h (1 Bft) O-NO 57 2 min 0,000 mm 1,6 UV-I 429 W/m 13,2 C 18,8 C 6,4 km/h (2 Bft) 94,74 %
15.10.2017 15:00 18,9 C 11,7 C 71 % 1026,5 hPa 0,0 l/m 5,0 km/h (1 Bft) O-NO 72 2 min 0,279 mm 1,6 UV-I 425 W/m 13,5 C 18,9 C 8,0 km/h (2 Bft) 98,21 %
15.10.2017 15:02 18,8 C 11,7 C 69 % 1026,5 hPa 0,0 l/m 4,0 km/h (1 Bft) O 79 2 min 0,000 mm 1,5 UV-I 420 W/m 13,0 C 18,8 C 8,0 km/h (2 Bft) 95,45 %
15.10.2017 15:04 18,9 C 11,7 C 70 % 1026,5 hPa 0,0 l/m 3,7 km/h (1 Bft) O-NO 65 2 min 0,000 mm 1,5 UV-I 418 W/m 13,3 C 18,9 C 8,0 km/h (2 Bft) 98,11 %
15.10.2017 15:06 19,0 C 11,7 C 70 % 1026,4 hPa 0,0 l/m 2,5 km/h (1 Bft) O-NO 65 2 min 0,000 mm 1,5 UV-I 413 W/m 13,4 C 19,0 C 4,8 km/h (1 Bft) 98,00 %
15.10.2017 15:08 19,0 C 11,7 C 69 % 1026,4 hPa 0,0 l/m 2,5 km/h (1 Bft) O-NO 59 2 min 0,000 mm 1,5 UV-I 410 W/m 13,2 C 19,0 C 4,8 km/h (1 Bft) 98,00 %
15.10.2017 15:10 19,0 C 11,7 C 69 % 1026,4 hPa 0,0 l/m 4,6 km/h (1 Bft) O-NO 73 2 min 0,000 mm 1,4 UV-I 405 W/m 13,2 C 19,0 C 6,4 km/h (2 Bft) 97,37 %
15.10.2017 15:12 19,0 C 11,7 C 70 % 1026,4 hPa 0,0 l/m 3,8 km/h (1 Bft) O 86 2 min 0,000 mm 1,4 UV-I 403 W/m 13,4 C 19,0 C 6,4 km/h (2 Bft) 98,00 %
15.10.2017 15:14 19,0 C 11,7 C 69 % 1026,4 hPa 0,0 l/m 4,1 km/h (1 Bft) O 82 2 min 0,000 mm 1,4 UV-I 399 W/m 13,2 C 19,0 C 6,4 km/h (2 Bft) 91,49 %
15.10.2017 15:16 19,1 C 11,7 C 70 % 1026,4 hPa 0,0 l/m 2,2 km/h (1 Bft) O 86 2 min 0,000 mm 1,4 UV-I 396 W/m 13,5 C 19,1 C 4,8 km/h (1 Bft) 98,11 %
15.10.2017 15:18 19,1 C 11,7 C 70 % 1026,4 hPa 0,0 l/m 4,1 km/h (1 Bft) O-NO 62 2 min 0,000 mm 1,3 UV-I 391 W/m 13,5 C 19,1 C 6,4 km/h (2 Bft) 97,37 %
15.10.2017 15:20 19,2 C 11,7 C 71 % 1026,3 hPa 0,0 l/m 5,2 km/h (1 Bft) O-NO 77 2 min 0,000 mm 1,3 UV-I 387 W/m 13,8 C 19,2 C 8,0 km/h (2 Bft) 95,74 %
15.10.2017 15:22 19,2 C 11,7 C 71 % 1026,3 hPa 0,0 l/m 5,3 km/h (1 Bft) O-NO 63 2 min 0,000 mm 1,3 UV-I 382 W/m 13,8 C 19,2 C 9,7 km/h (2 Bft) 98,00 %
15.10.2017 15:24 19,3 C 11,7 C 69 % 1026,3 hPa 0,0 l/m 3,4 km/h (1 Bft) O 83 2 min 0,000 mm 1,3 UV-I 377 W/m 13,5 C 19,3 C 4,8 km/h (1 Bft) 96,00 %
15.10.2017 15:26 19,3 C 11,7 C 68 % 1026,3 hPa 0,0 l/m 4,1 km/h (1 Bft) O 101 2 min 0,000 mm 1,2 UV-I 374 W/m 13,2 C 19,3 C 4,8 km/h (1 Bft) 97,22 %
15.10.2017 15:28 19,3 C 11,7 C 68 % 1026,3 hPa 0,0 l/m 3,7 km/h (1 Bft) O-NO 65 2 min 0,000 mm 1,2 UV-I 369 W/m 13,2 C 19,3 C 4,8 km/h (1 Bft) 98,08 %
15.10.2017 15:30 19,3 C 11,7 C 68 % 1026,3 hPa 0,0 l/m 4,1 km/h (1 Bft) NO 56 2 min 0,000 mm 1,2 UV-I 365 W/m 13,2 C 19,3 C 6,4 km/h (2 Bft) 96,00 %
15.10.2017 15:32 19,3 C 11,7 C 67 % 1026,2 hPa 0,0 l/m 2,9 km/h (1 Bft) NO 56 2 min 0,000 mm 1,2 UV-I 360 W/m 13,0 C 19,3 C 4,8 km/h (1 Bft) 100,00 %
15.10.2017 15:34 19,3 C 11,7 C 70 % 1026,2 hPa 0,0 l/m 4,4 km/h (1 Bft) NO 56 2 min 0,000 mm 1,2 UV-I 357 W/m 13,7 C 19,3 C 6,4 km/h (2 Bft) 100,00 %
15.10.2017 15:36 19,3 C 11,7 C 68 % 1026,2 hPa 0,0 l/m 3,2 km/h (1 Bft) NO 56 2 min 0,000 mm 1,1 UV-I 351 W/m 13,2 C 19,3 C 4,8 km/h (1 Bft) 97,87 %
15.10.2017 15:38 19,3 C 11,7 C 71 % 1026,2 hPa 0,0 l/m 4,3 km/h (1 Bft) O 85 2 min 0,000 mm 1,1 UV-I 347 W/m 13,9 C 19,3 C 6,4 km/h (2 Bft) 98,00 %
15.10.2017 15:40 19,3 C 11,7 C 69 % 1026,2 hPa 0,0 l/m 4,4 km/h (1 Bft) O-NO 77 2 min 0,000 mm 1,1 UV-I 343 W/m 13,5 C 19,3 C 6,4 km/h (2 Bft) 100,00 %
15.10.2017 15:42 19,2 C 11,7 C 70 % 1026,2 hPa 0,0 l/m 2,7 km/h (1 Bft) O-NO 77 2 min 0,000 mm 1,0 UV-I 337 W/m 13,6 C 19,2 C 4,8 km/h (1 Bft) 97,87 %
15.10.2017 15:44 19,2 C 11,7 C 68 % 1026,1 hPa 0,0 l/m 2,4 km/h (1 Bft) O-SO 111 2 min 0,000 mm 1,0 UV-I 333 W/m 13,1 C 19,2 C 4,8 km/h (1 Bft) 97,56 %
15.10.2017 15:46 19,0 C 11,7 C 70 % 1026,1 hPa 0,0 l/m 3,5 km/h (1 Bft) O-SO 117 2 min 0,000 mm 1,0 UV-I 328 W/m 13,4 C 19,0 C 6,4 km/h (2 Bft) 100,00 %
15.10.2017 15:48 19,1 C 11,7 C 71 % 1026,1 hPa 0,0 l/m 2,3 km/h (1 Bft) O-SO 115 2 min 0,000 mm 1,0 UV-I 326 W/m 13,7 C 19,1 C 3,2 km/h (1 Bft) 100,00 %
15.10.2017 15:50 19,2 C 11,7 C 68 % 1026,0 hPa 0,0 l/m 2,5 km/h (1 Bft) O-NO 73 2 min 0,000 mm 0,9 UV-I 320 W/m 13,1 C 19,2 C 4,8 km/h (1 Bft) 100,00 %
15.10.2017 15:52 19,2 C 11,7 C 69 % 1026,0 hPa 0,0 l/m 2,5 km/h (1 Bft) O-NO 73 2 min 0,000 mm 0,9 UV-I 316 W/m 13,4 C 19,2 C 4,8 km/h (1 Bft) 97,87 %
15.10.2017 15:54 19,2 C 11,7 C 70 % 1026,0 hPa 0,0 l/m 2,7 km/h (1 Bft) O 84 2 min 0,000 mm 0,9 UV-I 308 W/m 13,6 C 19,2 C 4,8 km/h (1 Bft) 100,00 %
15.10.2017 15:56 19,2 C 11,7 C 70 % 1026,0 hPa 0,0 l/m 2,9 km/h (1 Bft) O 89 2 min 0,000 mm 0,9 UV-I 304 W/m 13,6 C 19,2 C 4,8 km/h (1 Bft) 97,56 %
15.10.2017 15:58 19,2 C 11,7 C 70 % 1025,9 hPa 0,0 l/m 3,4 km/h (1 Bft) O 83 2 min 0,000 mm 0,9 UV-I 300 W/m 13,6 C 19,2 C 6,4 km/h (2 Bft) 96,23 %
15.10.2017 16:00 19,2 C 11,7 C 70 % 1025,9 hPa 0,0 l/m 3,3 km/h (1 Bft) O 94 2 min 0,000 mm 0,8 UV-I 296 W/m 13,6 C 19,2 C 6,4 km/h (2 Bft) 94,34 %
15.10.2017 16:02 19,1 C 11,7 C 69 % 1025,9 hPa 0,0 l/m 3,5 km/h (1 Bft) O 95 2 min 0,229 mm 0,8 UV-I 291 W/m 13,3 C 19,1 C 6,4 km/h (2 Bft) 98,00 %
15.10.2017 16:04 19,1 C 11,7 C 70 % 1025,9 hPa 0,0 l/m 3,2 km/h (1 Bft) O 94 2 min 0,000 mm 0,8 UV-I 286 W/m 13,5 C 19,1 C 4,8 km/h (1 Bft) 97,37 %
15.10.2017 16:06 19,0 C 11,7 C 69 % 1025,9 hPa 0,0 l/m 3,1 km/h (1 Bft) O 95 2 min 0,000 mm 0,7 UV-I 281 W/m 13,2 C 19,0 C 4,8 km/h (1 Bft) 96,00 %
15.10.2017 16:08 19,1 C 11,7 C 70 % 1025,9 hPa 0,0 l/m 3,3 km/h (1 Bft) O-NO 63 2 min 0,000 mm 0,7 UV-I 276 W/m 13,5 C 19,1 C 4,8 km/h (1 Bft) 98,11 %
15.10.2017 16:10 19,1 C 11,7 C 70 % 1025,9 hPa 0,0 l/m 4,3 km/h (1 Bft) O-NO 75 2 min 0,000 mm 0,7 UV-I 270 W/m 13,5 C 19,1 C 6,4 km/h (2 Bft) 95,74 %
15.10.2017 16:12 19,2 C 11,7 C 69 % 1025,9 hPa 0,0 l/m 4,2 km/h (1 Bft) O-NO 75 2 min 0,000 mm 0,7 UV-I 266 W/m 13,4 C 19,2 C 6,4 km/h (2 Bft) 97,62 %
15.10.2017 16:14 19,2 C 11,7 C 70 % 1025,9 hPa 0,0 l/m 3,6 km/h (1 Bft) O-NO 73 2 min 0,000 mm 0,7 UV-I 261 W/m 13,6 C 19,2 C 6,4 km/h (2 Bft) 97,56 %
15.10.2017 16:16 19,2 C 11,7 C 69 % 1025,8 hPa 0,0 l/m 4,1 km/h (1 Bft) O 94 2 min 0,000 mm 0,6 UV-I 256 W/m 13,4 C 19,2 C 6,4 km/h (2 Bft) 98,21 %
15.10.2017 16:18 19,2 C 11,7 C 70 % 1025,8 hPa 0,0 l/m 3,3 km/h (1 Bft) O-NO 76 2 min 0,000 mm 0,6 UV-I 251 W/m 13,6 C 19,2 C 4,8 km/h (1 Bft) 97,37 %
15.10.2017 16:20 19,2 C 11,7 C 70 % 1025,7 hPa 0,0 l/m 3,4 km/h (1 Bft) O-NO 75 2 min 0,000 mm 0,6 UV-I 246 W/m 13,6 C 19,2 C 4,8 km/h (1 Bft) 97,87 %
15.10.2017 16:22 19,2 C 11,7 C 70 % 1025,7 hPa 0,0 l/m 4,7 km/h (1 Bft) O-NO 74 2 min 0,000 mm 0,6 UV-I 242 W/m 13,6 C 19,2 C 6,4 km/h (2 Bft) 98,00 %
15.10.2017 16:24 19,2 C 11,7 C 70 % 1025,7 hPa 0,0 l/m 3,3 km/h (1 Bft) O-NO 74 2 min 0,000 mm 0,6 UV-I 237 W/m 13,6 C 19,2 C 6,4 km/h (2 Bft) 98,11 %
15.10.2017 16:26 19,2 C 11,7 C 70 % 1025,7 hPa 0,0 l/m 4,5 km/h (1 Bft) O-NO 78 2 min 0,000 mm 0,5 UV-I 233 W/m 13,6 C 19,2 C 6,4 km/h (2 Bft) 97,50 %
15.10.2017 16:28 19,2 C 11,7 C 71 % 1025,7 hPa 0,0 l/m 4,2 km/h (1 Bft) O-NO 78 2 min 0,000 mm 0,5 UV-I 229 W/m 13,8 C 19,2 C 6,4 km/h (2 Bft) 96,00 %
15.10.2017 16:30 19,2 C 11,7 C 71 % 1025,7 hPa 0,0 l/m 5,3 km/h (1 Bft) O-NO 71 2 min 0,000 mm 0,5 UV-I 222 W/m 13,8 C 19,2 C 6,4 km/h (2 Bft) 97,37 %
15.10.2017 16:32 19,2 C 11,7 C 70 % 1025,6 hPa 0,0 l/m 4,3 km/h (1 Bft) O-NO 72 2 min 0,000 mm 0,5 UV-I 218 W/m 13,6 C 19,2 C 6,4 km/h (2 Bft) 98,00 %
15.10.2017 16:34 19,1 C 11,7 C 71 % 1025,6 hPa 0,0 l/m 4,3 km/h (1 Bft) O 90 2 min 0,000 mm 0,5 UV-I 212 W/m 13,7 C 19,1 C 6,4 km/h (2 Bft) 95,74 %
15.10.2017 16:36 19,1 C 11,7 C 70 % 1025,6 hPa 0,0 l/m 4,6 km/h (1 Bft) O-NO 76 2 min 0,000 mm 0,0 UV-I 207 W/m 13,5 C 19,1 C 6,4 km/h (2 Bft) 96,00 %
15.10.2017 16:38 19,1 C 11,7 C 70 % 1025,6 hPa 0,0 l/m 2,0 km/h (1 Bft) O-NO 76 2 min 0,000 mm 0,0 UV-I 202 W/m 13,5 C 19,1 C 4,8 km/h (1 Bft) 97,87 %
15.10.2017 16:40 19,1 C 11,7 C 70 % 1025,6 hPa 0,0 l/m 3,4 km/h (1 Bft) O-NO 76 2 min 0,000 mm 0,0 UV-I 196 W/m 13,5 C 19,1 C 4,8 km/h (1 Bft) 96,00 %
15.10.2017 16:42 19,1 C 11,7 C 69 % 1025,6 hPa 0,0 l/m 3,4 km/h (1 Bft) O-NO 76 2 min 0,000 mm 0,0 UV-I 192 W/m 13,3 C 19,1 C 4,8 km/h (1 Bft) 98,00 %
15.10.2017 16:44 19,1 C 11,7 C 69 % 1025,6 hPa 0,0 l/m 3,4 km/h (1 Bft) O-NO 76 2 min 0,000 mm 0,0 UV-I 186 W/m 13,3 C 19,1 C 6,4 km/h (2 Bft) 97,73 %
15.10.2017 16:46 19,2 C 11,7 C 69 % 1025,6 hPa 0,0 l/m 2,9 km/h (1 Bft) O-NO 76 2 min 0,000 mm 0,0 UV-I 181 W/m 13,4 C 19,2 C 4,8 km/h (1 Bft) 95,24 %
15.10.2017 16:48 19,1 C 11,7 C 69 % 1025,6 hPa 0,0 l/m 2,0 km/h (1 Bft) O-NO 76 2 min 0,000 mm 0,0 UV-I 176 W/m 13,3 C 19,1 C 3,2 km/h (1 Bft) 97,14 %
15.10.2017 16:50 19,1 C 11,7 C 70 % 1025,6 hPa 0,0 l/m 2,7 km/h (1 Bft) O-NO 76 2 min 0,000 mm 0,0 UV-I 172 W/m 13,5 C 19,1 C 4,8 km/h (1 Bft) 98,44 %
15.10.2017 16:52 19,0 C 11,7 C 70 % 1025,6 hPa 0,0 l/m 2,1 km/h (1 Bft) O-NO 76 2 min 0,000 mm 0,0 UV-I 167 W/m 13,4 C 19,0 C 3,2 km/h (1 Bft) 97,44 %
15.10.2017 16:54 19,0 C 11,7 C 70 % 1025,6 hPa 0,0 l/m 3,1 km/h (1 Bft) O-NO 76 2 min 0,000 mm 0,0 UV-I 162 W/m 13,4 C 19,0 C 4,8 km/h (1 Bft) 97,96 %
15.10.2017 16:56 18,9 C 11,7 C 70 % 1025,6 hPa 0,0 l/m 4,4 km/h (1 Bft) O-NO 68 2 min 0,000 mm 0,0 UV-I 157 W/m 13,3 C 18,9 C 6,4 km/h (2 Bft) 98,00 %
15.10.2017 16:58 18,9 C 11,7 C 71 % 1025,6 hPa 0,0 l/m 4,0 km/h (1 Bft) O-NO 68 2 min 0,000 mm 0,0 UV-I 152 W/m 13,5 C 18,9 C 4,8 km/h (1 Bft) 98,11 %
15.10.2017 17:00 18,9 C 11,7 C 71 % 1025,6 hPa 0,0 l/m 3,3 km/h (1 Bft) O-NO 69 2 min 0,000 mm 0,0 UV-I 148 W/m 13,5 C 18,9 C 4,8 km/h (1 Bft) 94,29 %
15.10.2017 17:02 18,9 C 11,7 C 71 % 1025,6 hPa 0,0 l/m 2,7 km/h (1 Bft) O-NO 74 2 min 0,152 mm 0,0 UV-I 144 W/m 13,5 C 18,9 C 4,8 km/h (1 Bft) 95,74 %
15.10.2017 17:04 18,8 C 11,7 C 72 % 1025,6 hPa 0,0 l/m 3,6 km/h (1 Bft) O-NO 74 2 min 0,000 mm 0,0 UV-I 138 W/m 13,6 C 18,8 C 6,4 km/h (2 Bft) 94,83 %
15.10.2017 17:06 18,8 C 11,7 C 72 % 1025,6 hPa 0,0 l/m 3,4 km/h (1 Bft) O-NO 74 2 min 0,000 mm 0,0 UV-I 133 W/m 13,6 C 18,8 C 4,8 km/h (1 Bft) 94,29 %
15.10.2017 17:08 18,8 C 11,7 C 72 % 1025,6 hPa 0,0 l/m 3,3 km/h (1 Bft) O-NO 74 2 min 0,000 mm 0,0 UV-I 128 W/m 13,6 C 18,8 C 4,8 km/h (1 Bft) 94,00 %
15.10.2017 17:10 18,8 C 11,7 C 72 % 1025,6 hPa 0,0 l/m 2,3 km/h (1 Bft) O-NO 74 2 min 0,000 mm 0,0 UV-I 124 W/m 13,6 C 18,8 C 4,8 km/h (1 Bft) 95,12 %
15.10.2017 17:12 18,7 C 11,7 C 73 % 1025,6 hPa 0,0 l/m 3,3 km/h (1 Bft) O-NO 74 2 min 0,000 mm 0,0 UV-I 118 W/m 13,8 C 18,7 C 4,8 km/h (1 Bft) 96,23 %
15.10.2017 17:14 18,7 C 11,7 C 73 % 1025,6 hPa 0,0 l/m 2,7 km/h (1 Bft) O-NO 74 2 min 0,000 mm 0,0 UV-I 114 W/m 13,8 C 18,7 C 4,8 km/h (1 Bft) 94,00 %
15.10.2017 17:16 18,6 C 11,7 C 73 % 1025,6 hPa 0,0 l/m 2,4 km/h (1 Bft) O-NO 74 2 min 0,000 mm 0,0 UV-I 110 W/m 13,7 C 18,6 C 3,2 km/h (1 Bft) 96,00 %
15.10.2017 17:18 18,6 C 11,7 C 74 % 1025,6 hPa 0,0 l/m 2,8 km/h (1 Bft) O-NO 74 2 min 0,000 mm 0,0 UV-I 105 W/m 13,9 C 18,6 C 4,8 km/h (1 Bft) 95,74 %
15.10.2017 17:20 18,5 C 11,7 C 74 % 1025,6 hPa 0,0 l/m 1,9 km/h (1 Bft) O-NO 74 2 min 0,000 mm 0,0 UV-I 100 W/m 13,8 C 18,5 C 3,2 km/h (1 Bft) 97,14 %
15.10.2017 17:22 18,4 C 11,7 C 74 % 1025,6 hPa 0,0 l/m 1,6 km/h (1 Bft) O-NO 74 2 min 0,000 mm 0,0 UV-I 96 W/m 13,7 C 18,4 C 3,2 km/h (1 Bft) 98,21 %
15.10.2017 17:24 18,3 C 11,7 C 74 % 1025,6 hPa 0,0 l/m 3,7 km/h (1 Bft) O-NO 59 2 min 0,000 mm 0,0 UV-I 91 W/m 13,6 C 18,3 C 6,4 km/h (2 Bft) 96,00 %
15.10.2017 17:26 18,2 C 11,7 C 74 % 1025,6 hPa 0,0 l/m 2,7 km/h (1 Bft) O-NO 59 2 min 0,000 mm 0,0 UV-I 87 W/m 13,5 C 18,2 C 4,8 km/h (1 Bft) 97,44 %
15.10.2017 17:28 18,2 C 11,7 C 75 % 1025,6 hPa 0,0 l/m 2,2 km/h (1 Bft) O-NO 59 2 min 0,000 mm 0,0 UV-I 82 W/m 13,7 C 18,2 C 3,2 km/h (1 Bft) 97,37 %
15.10.2017 17:30 18,1 C 11,7 C 75 % 1025,6 hPa 0,0 l/m 2,3 km/h (1 Bft) O-NO 59 2 min 0,000 mm 0,0 UV-I 77 W/m 13,6 C 18,1 C 3,2 km/h (1 Bft) 96,77 %
15.10.2017 17:32 18,0 C 11,7 C 75 % 1025,6 hPa 0,0 l/m 2,1 km/h (1 Bft) O-NO 59 2 min 0,000 mm 0,0 UV-I 73 W/m 13,5 C 18,0 C 3,2 km/h (1 Bft) 97,87 %
15.10.2017 17:34 17,9 C 11,7 C 75 % 1025,7 hPa 0,0 l/m 2,6 km/h (1 Bft) O-NO 59 2 min 0,000 mm 0,0 UV-I 68 W/m 13,4 C 17,9 C 3,2 km/h (1 Bft) 97,87 %
15.10.2017 17:36 17,8 C 11,7 C 76 % 1025,6 hPa 0,0 l/m 2,4 km/h (1 Bft) O-NO 59 2 min 0,000 mm 0,0 UV-I 62 W/m 13,5 C 17,8 C 3,2 km/h (1 Bft) 97,56 %
15.10.2017 17:38 17,8 C 11,7 C 76 % 1025,6 hPa 0,0 l/m 3,2 km/h (1 Bft) O-NO 59 2 min 0,000 mm 0,0 UV-I 59 W/m 13,5 C 17,8 C 4,8 km/h (1 Bft) 97,87 %
15.10.2017 17:40 17,7 C 11,7 C 76 % 1025,6 hPa 0,0 l/m 2,9 km/h (1 Bft) O-NO 59 2 min 0,000 mm 0,0 UV-I 56 W/m 13,4 C 17,7 C 4,8 km/h (1 Bft) 98,00 %
15.10.2017 17:42 17,6 C 11,7 C 76 % 1025,6 hPa 0,0 l/m 3,0 km/h (1 Bft) O-NO 59 2 min 0,000 mm 0,0 UV-I 53 W/m 13,3 C 17,6 C 4,8 km/h (1 Bft) 100,00 %
15.10.2017 17:44 17,6 C 11,7 C 76 % 1025,6 hPa 0,0 l/m 2,9 km/h (1 Bft) O-NO 59 2 min 0,000 mm 0,0 UV-I 48 W/m 13,3 C 17,6 C 4,8 km/h (1 Bft) 100,00 %
15.10.2017 17:46 17,6 C 11,7 C 76 % 1025,6 hPa 0,0 l/m 2,0 km/h (1 Bft) O-NO 59 2 min 0,000 mm 0,0 UV-I 44 W/m 13,3 C 17,6 C 3,2 km/h (1 Bft) 100,00 %
15.10.2017 17:48 17,5 C 11,7 C 77 % 1025,6 hPa 0,0 l/m 1,5 km/h (1 Bft) O-NO 59 2 min 0,000 mm 0,0 UV-I 41 W/m 13,4 C 17,5 C 3,2 km/h (1 Bft) 100,00 %
15.10.2017 17:50 17,4 C 11,7 C 77 % 1025,7 hPa 0,0 l/m 1,6 km/h (1 Bft) O-NO 59 2 min 0,000 mm 0,0 UV-I 38 W/m 13,3 C 17,4 C 3,2 km/h (1 Bft) 97,87 %
15.10.2017 17:52 17,3 C 11,7 C 77 % 1025,6 hPa 0,0 l/m 1,9 km/h (1 Bft) O-NO 59 2 min 0,000 mm 0,0 UV-I 34 W/m 13,2 C 17,3 C 3,2 km/h (1 Bft) 100,00 %
15.10.2017 17:54 17,3 C 11,7 C 77 % 1025,6 hPa 0,0 l/m 1,4 km/h (1 Bft) O-NO 59 2 min 0,000 mm 0,0 UV-I 32 W/m 13,2 C 17,3 C 3,2 km/h (1 Bft) 100,00 %
15.10.2017 17:56 17,2 C 11,7 C 77 % 1025,6 hPa 0,0 l/m 0,2 km/h (0 Bft) O-NO 59 2 min 0,000 mm 0,0 UV-I 28 W/m 13,1 C 17,2 C 1,6 km/h (1 Bft) 100,00 %
15.10.2017 17:58 17,1 C 11,7 C 78 % 1025,6 hPa 0,0 l/m 0,3 km/h (0 Bft) O-NO 59 2 min 0,000 mm 0,0 UV-I 25 W/m 13,2 C 17,1 C 1,6 km/h (1 Bft) 100,00 %
15.10.2017 18:00 16,9 C 11,7 C 79 % 1025,6 hPa 0,0 l/m 0,3 km/h (0 Bft) O-NO 59 2 min 0,051 mm 0,0 UV-I 23 W/m 13,2 C 16,9 C 1,6 km/h (1 Bft) 100,00 %
15.10.2017 18:02 16,8 C 11,7 C 79 % 1025,6 hPa 0,0 l/m 0,0 km/h (0 Bft) O-NO 59 2 min 0,000 mm 0,0 UV-I 20 W/m 13,1 C 16,8 C 1,6 km/h (1 Bft) 100,00 %
15.10.2017 18:04 16,6 C 11,7 C 80 % 1025,6 hPa 0,0 l/m 0,0 km/h (0 Bft) O-NO 59 2 min 0,000 mm 0,0 UV-I 18 W/m 13,1 C 16,6 C 0,0 km/h (0 Bft) 100,00 %
15.10.2017 18:06 16,4 C 11,7 C 81 % 1025,6 hPa 0,0 l/m 0,0 km/h (0 Bft) O-NO 59 0 min 0,000 mm 0,0 UV-I 16 W/m 13,1 C 16,4 C 0,0 km/h (0 Bft) 100,00 %
15.10.2017 18:08 16,2 C 11,7 C 82 % 1025,6 hPa 0,0 l/m 0,0 km/h (0 Bft) O-NO 59 0 min 0,000 mm 0,0 UV-I 12 W/m 13,1 C 16,2 C 0,0 km/h (0 Bft) 100,00 %
15.10.2017 18:10 16,1 C 11,7 C 82 % 1025,6 hPa 0,0 l/m 0,0 km/h (0 Bft) O-NO 59 0 min 0,000 mm 0,0 UV-I 12 W/m 13,0 C 16,1 C 0,0 km/h (0 Bft) 100,00 %
15.10.2017 18:12 15,8 C 11,7 C 83 % 1025,6 hPa 0,0 l/m 0,0 km/h (0 Bft) O-NO 59 0 min 0,000 mm 0,0 UV-I 11 W/m 12,9 C 15,8 C 0,0 km/h (0 Bft) 97,87 %
15.10.2017 18:14 15,7 C 11,7 C 84 % 1025,6 hPa 0,0 l/m 0,0 km/h (0 Bft) O-NO 59 0 min 0,000 mm 0,0 UV-I 11 W/m 13,0 C 15,7 C 0,0 km/h (0 Bft) 98,11 %
15.10.2017 18:16 15,5 C 11,7 C 84 % 1025,7 hPa 0,0 l/m 0,0 km/h (0 Bft) O-NO 59 0 min 0,000 mm 0,0 UV-I 9 W/m 12,8 C 15,5 C 0,0 km/h (0 Bft) 100,00 %
15.10.2017 18:18 15,3 C 11,7 C 84 % 1025,7 hPa 0,0 l/m 0,0 km/h (0 Bft) O-NO 59 0 min 0,000 mm 0,0 UV-I 9 W/m 12,6 C 15,3 C 0,0 km/h (0 Bft) 100,00 %
15.10.2017 18:20 15,1 C 11,7 C 85 % 1025,7 hPa 0,0 l/m 0,0 km/h (0 Bft) O-NO 59 0 min 0,000 mm 0,0 UV-I 8 W/m 12,6 C 15,1 C 0,0 km/h (0 Bft) 97,87 %
15.10.2017 18:22 14,8 C 11,7 C 85 % 1025,7 hPa 0,0 l/m 0,9 km/h (0 Bft) O-NO 59 0 min 0,000 mm 0,0 UV-I 7 W/m 12,3 C 14,8 C 1,6 km/h (1 Bft) 100,00 %
15.10.2017 18:24 14,7 C 11,7 C 86 % 1025,7 hPa 0,0 l/m 0,0 km/h (0 Bft) O-NO 59 0 min 0,000 mm 0,0 UV-I 7 W/m 12,4 C 14,7 C 0,0 km/h (0 Bft) 100,00 %
15.10.2017 18:26 14,6 C 11,7 C 87 % 1025,7 hPa 0,0 l/m 0,4 km/h (0 Bft) O-NO 59 0 min 0,000 mm 0,0 UV-I 6 W/m 12,5 C 14,6 C 1,6 km/h (1 Bft) 100,00 %
15.10.2017 18:28 14,6 C 11,7 C 87 % 1025,7 hPa 0,0 l/m 0,0 km/h (0 Bft) O-NO 59 0 min 0,000 mm 0,0 UV-I 5 W/m 12,5 C 14,6 C 0,0 km/h (0 Bft) 100,00 %
15.10.2017 18:30 14,5 C 11,7 C 88 % 1025,7 hPa 0,0 l/m 0,0 km/h (0 Bft) O-NO 59 0 min 0,000 mm 0,0 UV-I 5 W/m 12,5 C 14,5 C 0,0 km/h (0 Bft) 100,00 %
15.10.2017 18:32 14,4 C 11,7 C 88 % 1025,8 hPa 0,0 l/m 0,0 km/h (0 Bft) O-NO 59 0 min 0,000 mm 0,0 UV-I 5 W/m 12,4 C 14,4 C 0,0 km/h (0 Bft) 100,00 %
15.10.2017 18:34 14,3 C 11,7 C 88 % 1025,8 hPa 0,0 l/m 0,0 km/h (0 Bft) O-NO 59 0 min 0,000 mm 0,0 UV-I 4 W/m 12,3 C 14,3 C 0,0 km/h (0 Bft) 100,00 %
15.10.2017 18:36 14,4 C 11,7 C 89 % 1025,8 hPa 0,0 l/m 0,0 km/h (0 Bft) O-NO 59 0 min 0,000 mm 0,0 UV-I 0 W/m 12,6 C 14,4 C 0,0 km/h (0 Bft) 100,00 %
15.10.2017 18:38 14,3 C 11,7 C 88 % 1025,8 hPa 0,0 l/m 0,0 km/h (0 Bft) O-NO 59 0 min 0,000 mm 0,0 UV-I 0 W/m 12,3 C 14,3 C 0,0 km/h (0 Bft) 97,87 %
15.10.2017 18:40 14,4 C 11,7 C 88 % 1025,8 hPa 0,0 l/m 0,0 km/h (0 Bft) O-NO 59 0 min 0,000 mm 0,0 UV-I 0 W/m 12,4 C 14,4 C 0,0 km/h (0 Bft) 100,00 %
15.10.2017 18:42 14,4 C 11,7 C 88 % 1025,8 hPa 0,0 l/m 0,0 km/h (0 Bft) O-NO 59 0 min 0,000 mm 0,0 UV-I 0 W/m 12,4 C 14,4 C 0,0 km/h (0 Bft) 100,00 %
15.10.2017 18:44 14,4 C 11,7 C 88 % 1025,8 hPa 0,0 l/m 0,0 km/h (0 Bft) O-NO 59 0 min 0,000 mm 0,0 UV-I 0 W/m 12,4 C 14,4 C 0,0 km/h (0 Bft) 100,00 %
15.10.2017 18:46 14,4 C 11,7 C 88 % 1025,8 hPa 0,0 l/m 0,0 km/h (0 Bft) O-NO 59 0 min 0,000 mm 0,0 UV-I 0 W/m 12,4 C 14,4 C 0,0 km/h (0 Bft) 100,00 %
15.10.2017 18:48 14,3 C 11,7 C 88 % 1025,8 hPa 0,0 l/m 0,0 km/h (0 Bft) O-NO 59 0 min 0,000 mm 0,0 UV-I 0 W/m 12,3 C 14,3 C 0,0 km/h (0 Bft) 97,87 %
15.10.2017 18:50 14,2 C 11,7 C 87 % 1025,8 hPa 0,0 l/m 0,0 km/h (0 Bft) O-NO 59 0 min 0,000 mm 0,0 UV-I 0 W/m 12,1 C 14,2 C 0,0 km/h (0 Bft) 97,62 %
15.10.2017 18:53 14,0 C 11,7 C 88 % 1025,8 hPa 0,0 l/m 0,0 km/h (0 Bft) O-NO 59 0 min 0,000 mm 0,0 UV-I 0 W/m 12,0 C 14,0 C 0,0 km/h (0 Bft) 100,00 %
15.10.2017 18:54 14,0 C 11,7 C 88 % 1025,8 hPa 0,0 l/m 0,0 km/h (0 Bft) O-NO 59 0 min 0,000 mm 0,0 UV-I 0 W/m 12,0 C 14,0 C 0,0 km/h (0 Bft) 100,00 %
15.10.2017 18:56 13,9 C 11,7 C 88 % 1025,8 hPa 0,0 l/m 0,0 km/h (0 Bft) O-NO 59 0 min 0,000 mm 0,0 UV-I 0 W/m 11,9 C 13,9 C 0,0 km/h (0 Bft) 100,00 %
15.10.2017 18:58 13,8 C 11,7 C 89 % 1025,8 hPa 0,0 l/m 0,0 km/h (0 Bft) O-NO 59 0 min 0,000 mm 0,0 UV-I 0 W/m 12,0 C 13,8 C 0,0 km/h (0 Bft) 100,00 %
15.10.2017 19:00 13,6 C 11,7 C 88 % 1025,8 hPa 0,0 l/m 0,0 km/h (0 Bft) O-NO 59 0 min 0,000 mm 0,0 UV-I 0 W/m 11,6 C 13,6 C 0,0 km/h (0 Bft) 95,74 %
15.10.2017 19:02 13,5 C 11,7 C 89 % 1025,8 hPa 0,0 l/m 0,0 km/h (0 Bft) O-NO 59 0 min 0,000 mm 0,0 UV-I 0 W/m 11,7 C 13,5 C 0,0 km/h (0 Bft) 100,00 %
15.10.2017 19:04 13,5 C 11,7 C 90 % 1025,8 hPa 0,0 l/m 0,8 km/h (0 Bft) O-NO 59 0 min 0,000 mm 0,0 UV-I 0 W/m 11,9 C 13,5 C 3,2 km/h (1 Bft) 100,00 %
15.10.2017 19:06 13,4 C 11,7 C 90 % 1025,9 hPa 0,0 l/m 2,1 km/h (1 Bft) O-NO 59 0 min 0,000 mm 0,0 UV-I 0 W/m 11,8 C 13,4 C 3,2 km/h (1 Bft) 97,56 %
15.10.2017 19:08 13,4 C 11,7 C 91 % 1025,9 hPa 0,0 l/m 2,3 km/h (1 Bft) O-NO 59 0 min 0,000 mm 0,0 UV-I 0 W/m 12,0 C 13,4 C 3,2 km/h (1 Bft) 100,00 %
15.10.2017 19:10 13,4 C 11,7 C 90 % 1025,9 hPa 0,0 l/m 2,4 km/h (1 Bft) O-NO 59 0 min 0,000 mm 0,0 UV-I 0 W/m 11,8 C 13,4 C 3,2 km/h (1 Bft) 100,00 %
15.10.2017 19:12 13,4 C 11,7 C 91 % 1026,0 hPa 0,0 l/m 2,6 km/h (1 Bft) O-NO 59 0 min 0,000 mm 0,0 UV-I 0 W/m 12,0 C 13,4 C 3,2 km/h (1 Bft) 100,00 %
15.10.2017 19:14 13,4 C 11,7 C 90 % 1026,0 hPa 0,0 l/m 2,7 km/h (1 Bft) O-NO 59 0 min 0,000 mm 0,0 UV-I 0 W/m 11,8 C 13,4 C 3,2 km/h (1 Bft) 95,74 %
15.10.2017 19:16 13,4 C 11,7 C 91 % 1026,0 hPa 0,0 l/m 2,4 km/h (1 Bft) O-NO 59 0 min 0,000 mm 0,0 UV-I 0 W/m 12,0 C 13,4 C 3,2 km/h (1 Bft) 97,87 %
15.10.2017 19:18 13,4 C 11,7 C 91 % 1026,0 hPa 0,0 l/m 2,7 km/h (1 Bft) O-NO 59 0 min 0,000 mm 0,0 UV-I 0 W/m 12,0 C 13,4 C 3,2 km/h (1 Bft) 100,00 %
15.10.2017 19:20 13,3 C 11,7 C 91 % 1026,0 hPa 0,0 l/m 2,9 km/h (1 Bft) O-NO 59 0 min 0,000 mm 0,0 UV-I 0 W/m 11,9 C 13,3 C 3,2 km/h (1 Bft) 100,00 %
15.10.2017 19:22 13,2 C 11,7 C 90 % 1026,0 hPa 0,0 l/m 2,4 km/h (1 Bft) O-NO 59 0 min 0,000 mm 0,0 UV-I 0 W/m 11,6 C 13,2 C 3,2 km/h (1 Bft) 100,00 %
15.10.2017 19:24 13,2 C 11,7 C 91 % 1026,0 hPa 0,0 l/m 2,7 km/h (1 Bft) O-NO 59 0 min 0,000 mm 0,0 UV-I 0 W/m 11,8 C 13,2 C 3,2 km/h (1 Bft) 100,00 %
15.10.2017 19:26 13,2 C 11,7 C 91 % 1026,0 hPa 0,0 l/m 2,2 km/h (1 Bft) O-NO 59 0 min 0,000 mm 0,0 UV-I 0 W/m 11,8 C 13,2 C 3,2 km/h (1 Bft) 98,08 %
15.10.2017 19:28 13,2 C 11,7 C 91 % 1026,0 hPa 0,0 l/m 2,0 km/h (1 Bft) O-NO 59 0 min 0,000 mm 0,0 UV-I 0 W/m 11,8 C 13,2 C 3,2 km/h (1 Bft) 100,00 %
15.10.2017 19:30 13,1 C 11,7 C 91 % 1026,0 hPa 0,0 l/m 0,5 km/h (0 Bft) O-NO 59 0 min 0,000 mm 0,0 UV-I 0 W/m 11,7 C 13,1 C 1,6 km/h (1 Bft) 100,00 %
15.10.2017 19:32 13,0 C 11,7 C 91 % 1026,0 hPa 0,0 l/m 0,3 km/h (0 Bft) O-NO 59 0 min 0,000 mm 0,0 UV-I 0 W/m 11,6 C 13,0 C 1,6 km/h (1 Bft) 97,87 %
15.10.2017 19:34 12,9 C 11,7 C 91 % 1026,0 hPa 0,0 l/m 0,5 km/h (0 Bft) O-NO 59 0 min 0,000 mm 0,0 UV-I 0 W/m 11,5 C 12,9 C 1,6 km/h (1 Bft) 100,00 %
15.10.2017 19:36 12,9 C 11,7 C 92 % 1026,0 hPa 0,0 l/m 2,6 km/h (1 Bft) O-NO 59 0 min 0,000 mm 0,0 UV-I 0 W/m 11,6 C 12,9 C 3,2 km/h (1 Bft) 96,43 %
15.10.2017 19:38 13,1 C 11,7 C 92 % 1026,0 hPa 0,0 l/m 2,4 km/h (1 Bft) O-NO 59 0 min 0,000 mm 0,0 UV-I 0 W/m 11,8 C 13,1 C 3,2 km/h (1 Bft) 95,74 %
15.10.2017 19:40 13,1 C 11,7 C 92 % 1026,1 hPa 0,0 l/m 2,2 km/h (1 Bft) O-NO 59 0 min 0,000 mm 0,0 UV-I 0 W/m 11,8 C 13,1 C 3,2 km/h (1 Bft) 98,00 %
15.10.2017 19:42 12,9 C 11,7 C 92 % 1026,1 hPa 0,0 l/m 2,8 km/h (1 Bft) O-NO 59 0 min 0,000 mm 0,0 UV-I 0 W/m 11,6 C 12,9 C 3,2 km/h (1 Bft) 97,37 %
15.10.2017 19:44 12,9 C 11,7 C 92 % 1026,1 hPa 0,0 l/m 4,3 km/h (1 Bft) S-SO 166 0 min 0,000 mm 0,0 UV-I 0 W/m 11,6 C 12,9 C 6,4 km/h (2 Bft) 97,87 %
15.10.2017 19:46 12,8 C 11,7 C 91 % 1026,1 hPa 0,0 l/m 4,5 km/h (1 Bft) S-SO 166 0 min 0,000 mm 0,0 UV-I 0 W/m 11,4 C 12,8 C 6,4 km/h (2 Bft) 98,11 %
15.10.2017 19:48 12,7 C 11,7 C 91 % 1026,0 hPa 0,0 l/m 4,8 km/h (1 Bft) S-SO 166 0 min 0,000 mm 0,0 UV-I 0 W/m 11,3 C 12,7 C 4,8 km/h (1 Bft) 95,12 %
15.10.2017 19:50 12,6 C 11,7 C 91 % 1026,0 hPa 0,0 l/m 4,9 km/h (1 Bft) S-SO 166 0 min 0,000 mm 0,0 UV-I 0 W/m 11,2 C 12,6 C 6,4 km/h (2 Bft) 94,34 %
15.10.2017 19:52 12,5 C 11,7 C 91 % 1026,1 hPa 0,0 l/m 2,3 km/h (1 Bft) S-SO 166 0 min 0,000 mm 0,0 UV-I 0 W/m 11,1 C 12,5 C 4,8 km/h (1 Bft) 97,37 %
15.10.2017 19:54 12,4 C 11,7 C 92 % 1026,0 hPa 0,0 l/m 3,8 km/h (1 Bft) S-SO 166 0 min 0,000 mm 0,0 UV-I 0 W/m 11,1 C 12,4 C 4,8 km/h (1 Bft) 98,00 %
15.10.2017 19:56 12,4 C 11,7 C 92 % 1026,0 hPa 0,0 l/m 4,5 km/h (1 Bft) S-SO 166 0 min 0,000 mm 0,0 UV-I 0 W/m 11,1 C 12,4 C 6,4 km/h (2 Bft) 97,87 %
15.10.2017 19:58 12,4 C 11,7 C 93 % 1026,0 hPa 0,0 l/m 4,4 km/h (1 Bft) S-SO 166 0 min 0,000 mm 0,0 UV-I 0 W/m 11,3 C 12,4 C 6,4 km/h (2 Bft) 97,87 %
15.10.2017 20:00 12,4 C 11,7 C 92 % 1026,0 hPa 0,0 l/m 1,8 km/h (1 Bft) S-SO 166 0 min 0,000 mm 0,0 UV-I 0 W/m 11,1 C 12,4 C 4,8 km/h (1 Bft) 96,00 %
15.10.2017 20:02 12,4 C 11,7 C 93 % 1026,0 hPa 0,0 l/m 1,8 km/h (1 Bft) S-SO 166 0 min 0,000 mm 0,0 UV-I 0 W/m 11,3 C 12,4 C 4,8 km/h (1 Bft) 97,87 %
15.10.2017 20:04 12,3 C 11,7 C 93 % 1026,0 hPa 0,0 l/m 0,8 km/h (0 Bft) S-SO 166 0 min 0,000 mm 0,0 UV-I 0 W/m 11,2 C 12,3 C 4,8 km/h (1 Bft) 97,22 %
15.10.2017 20:06 12,3 C 11,7 C 93 % 1026,0 hPa 0,0 l/m 4,1 km/h (1 Bft) S-SO 166 0 min 0,000 mm 0,0 UV-I 0 W/m 11,2 C 12,3 C 6,4 km/h (2 Bft) 98,11 %
15.10.2017 20:08 12,3 C 11,7 C 93 % 1026,0 hPa 0,0 l/m 3,0 km/h (1 Bft) S-SO 166 0 min 0,000 mm 0,0 UV-I 0 W/m 11,2 C 12,3 C 4,8 km/h (1 Bft) 94,34 %
15.10.2017 20:10 12,2 C 11,7 C 93 % 1025,9 hPa 0,0 l/m 2,4 km/h (1 Bft) S-SO 166 0 min 0,000 mm 0,0 UV-I 0 W/m 11,1 C 12,2 C 4,8 km/h (1 Bft) 94,74 %
15.10.2017 20:12 12,2 C 11,7 C 93 % 1025,9 hPa 0,0 l/m 0,7 km/h (0 Bft) S-SO 166 0 min 0,000 mm 0,0 UV-I 0 W/m 11,1 C 12,2 C 1,6 km/h (1 Bft) 93,62 %
15.10.2017 20:14 12,2 C 11,7 C 93 % 1025,9 hPa 0,0 l/m 3,1 km/h (1 Bft) S-SO 166 0 min 0,000 mm 0,0 UV-I 0 W/m 11,1 C 12,2 C 4,8 km/h (1 Bft) 94,00 %
15.10.2017 20:16 12,1 C 11,7 C 93 % 1025,9 hPa 0,0 l/m 0,2 km/h (0 Bft) S-SO 166 0 min 0,000 mm 0,0 UV-I 0 W/m 11,0 C 12,1 C 1,6 km/h (1 Bft) 97,87 %
15.10.2017 20:18 12,1 C 11,7 C 93 % 1025,9 hPa 0,0 l/m 0,1 km/h (0 Bft) S-SO 166 0 min 0,000 mm 0,0 UV-I 0 W/m 11,0 C 12,1 C 1,6 km/h (1 Bft) 97,87 %
15.10.2017 20:20 12,2 C 11,7 C 93 % 1025,9 hPa 0,0 l/m 1,2 km/h (1 Bft) S-SO 166 0 min 0,000 mm 0,0 UV-I 0 W/m 11,1 C 12,2 C 4,8 km/h (1 Bft) 97,87 %
15.10.2017 20:22 12,1 C 11,7 C 93 % 1025,9 hPa 0,0 l/m 0,0 km/h (0 Bft) S-SO 166 0 min 0,000 mm 0,0 UV-I 0 W/m 11,0 C 12,1 C 1,6 km/h (1 Bft) 97,73 %
15.10.2017 20:24 12,1 C 11,7 C 93 % 1025,9 hPa 0,0 l/m 0,0 km/h (0 Bft) S-SO 166 0 min 0,000 mm 0,0 UV-I 0 W/m 11,0 C 12,1 C 0,0 km/h (0 Bft) 98,00 %
15.10.2017 20:26 12,0 C 11,7 C 93 % 1025,9 hPa 0,0 l/m 0,7 km/h (0 Bft) S-SO 166 0 min 0,000 mm 0,0 UV-I 0 W/m 10,9 C 12,0 C 4,8 km/h (1 Bft) 98,11 %
15.10.2017 20:28 11,9 C 11,7 C 93 % 1025,9 hPa 0,0 l/m 1,3 km/h (1 Bft) S-SO 166 0 min 0,000 mm 0,0 UV-I 0 W/m 10,8 C 11,9 C 1,6 km/h (1 Bft) 97,56 %
15.10.2017 20:30 12,0 C 11,7 C 94 % 1025,9 hPa 0,0 l/m 0,6 km/h (0 Bft) S-SO 166 0 min 0,000 mm 0,0 UV-I 0 W/m 11,1 C 12,0 C 1,6 km/h (1 Bft) 95,74 %
15.10.2017 20:32 12,0 C 11,7 C 94 % 1025,9 hPa 0,0 l/m 1,5 km/h (1 Bft) S-SO 166 0 min 0,000 mm 0,0 UV-I 0 W/m 11,1 C 12,0 C 4,8 km/h (1 Bft) 98,00 %
15.10.2017 20:34 11,8 C 11,7 C 93 % 1026,0 hPa 0,0 l/m 2,4 km/h (1 Bft) S-SO 166 0 min 0,000 mm 0,0 UV-I 0 W/m 10,7 C 11,8 C 4,8 km/h (1 Bft) 97,37 %
15.10.2017 20:36 11,8 C 11,7 C 93 % 1026,0 hPa 0,0 l/m 4,8 km/h (1 Bft) S-SO 166 0 min 0,000 mm 0,0 UV-I 0 W/m 10,7 C 11,8 C 6,4 km/h (2 Bft) 98,11 %
15.10.2017 20:38 11,7 C 11,7 C 93 % 1026,0 hPa 0,0 l/m 4,3 km/h (1 Bft) S-SO 166 0 min 0,000 mm 0,0 UV-I 0 W/m 10,6 C 11,7 C 4,8 km/h (1 Bft) 97,56 %
15.10.2017 20:40 11,7 C 11,7 C 93 % 1025,9 hPa 0,0 l/m 4,4 km/h (1 Bft) S-SO 166 0 min 0,000 mm 0,0 UV-I 0 W/m 10,6 C 11,7 C 6,4 km/h (2 Bft) 97,22 %
15.10.2017 20:42 11,6 C 11,7 C 93 % 1025,9 hPa 0,0 l/m 5,3 km/h (1 Bft) S-SO 167 0 min 0,000 mm 0,0 UV-I 0 W/m 10,5 C 11,6 C 6,4 km/h (2 Bft) 98,51 %
15.10.2017 20:44 11,7 C 11,7 C 94 % 1026,0 hPa 0,0 l/m 4,7 km/h (1 Bft) S-SO 167 0 min 0,000 mm 0,0 UV-I 0 W/m 10,8 C 11,7 C 6,4 km/h (2 Bft) 97,56 %
15.10.2017 20:46 11,6 C 11,7 C 94 % 1026,0 hPa 0,0 l/m 4,8 km/h (1 Bft) S-SO 167 0 min 0,000 mm 0,0 UV-I 0 W/m 10,7 C 11,6 C 6,4 km/h (2 Bft) 95,45 %
15.10.2017 20:48 11,6 C 11,7 C 94 % 1026,0 hPa 0,0 l/m 2,8 km/h (1 Bft) S-SO 167 0 min 0,000 mm 0,0 UV-I 0 W/m 10,7 C 11,6 C 4,8 km/h (1 Bft) 98,11 %
15.10.2017 20:50 11,4 C 11,7 C 93 % 1026,0 hPa 0,0 l/m 2,2 km/h (1 Bft) S-SO 167 0 min 0,000 mm 0,0 UV-I 0 W/m 10,3 C 11,4 C 4,8 km/h (1 Bft) 96,15 %
15.10.2017 20:52 11,5 C 11,7 C 94 % 1026,0 hPa 0,0 l/m 2,2 km/h (1 Bft) S-SO 167 0 min 0,000 mm 0,0 UV-I 0 W/m 10,6 C 11,5 C 4,8 km/h (1 Bft) 98,39 %
15.10.2017 20:54 11,6 C 11,7 C 94 % 1026,1 hPa 0,0 l/m 2,8 km/h (1 Bft) S-SO 167 0 min 0,000 mm 0,0 UV-I 0 W/m 10,7 C 11,6 C 4,8 km/h (1 Bft) 96,00 %
15.10.2017 20:56 11,6 C 11,7 C 94 % 1026,1 hPa 0,0 l/m 3,6 km/h (1 Bft) S-SO 167 0 min 0,000 mm 0,0 UV-I 0 W/m 10,7 C 11,6 C 6,4 km/h (2 Bft) 96,00 %
15.10.2017 20:58 11,5 C 11,7 C 94 % 1026,1 hPa 0,0 l/m 2,2 km/h (1 Bft) S-SO 167 0 min 0,000 mm 0,0 UV-I 0 W/m 10,6 C 11,5 C 4,8 km/h (1 Bft) 98,00 %
15.10.2017 21:00 11,4 C 11,7 C 94 % 1026,0 hPa 0,0 l/m 3,0 km/h (1 Bft) S-SO 167 0 min 0,000 mm 0,0 UV-I 0 W/m 10,5 C 11,4 C 4,8 km/h (1 Bft) 97,37 %
15.10.2017 21:02 11,4 C 11,7 C 95 % 1026,0 hPa 0,0 l/m 3,2 km/h (1 Bft) S-SO 167 0 min 0,000 mm 0,0 UV-I 0 W/m 10,6 C 11,4 C 6,4 km/h (2 Bft) 98,11 %
15.10.2017 21:04 11,4 C 11,7 C 94 % 1026,0 hPa 0,0 l/m 2,8 km/h (1 Bft) S 179 0 min 0,000 mm 0,0 UV-I 0 W/m 10,5 C 11,4 C 6,4 km/h (2 Bft) 97,37 %
15.10.2017 21:06 11,4 C 11,7 C 94 % 1026,0 hPa 0,0 l/m 3,4 km/h (1 Bft) S 179 0 min 0,000 mm 0,0 UV-I 0 W/m 10,5 C 11,4 C 4,8 km/h (1 Bft) 98,11 %
15.10.2017 21:08 11,5 C 11,7 C 95 % 1026,1 hPa 0,0 l/m 2,3 km/h (1 Bft) S 179 0 min 0,000 mm 0,0 UV-I 0 W/m 10,7 C 11,5 C 4,8 km/h (1 Bft) 98,00 %
15.10.2017 21:10 11,7 C 11,7 C 95 % 1026,0 hPa 0,0 l/m 3,1 km/h (1 Bft) S 186 0 min 0,000 mm 0,0 UV-I 0 W/m 10,9 C 11,7 C 4,8 km/h (1 Bft) 97,87 %
15.10.2017 21:12 11,9 C 11,7 C 95 % 1026,0 hPa 0,0 l/m 3,0 km/h (1 Bft) S 186 0 min 0,000 mm 0,0 UV-I 0 W/m 11,1 C 11,9 C 4,8 km/h (1 Bft) 97,92 %
15.10.2017 21:14 12,1 C 11,7 C 96 % 1026,1 hPa 0,0 l/m 3,7 km/h (1 Bft) S 188 0 min 0,000 mm 0,0 UV-I 0 W/m 11,5 C 12,1 C 6,4 km/h (2 Bft) 95,74 %
15.10.2017 21:16 12,2 C 11,7 C 95 % 1026,1 hPa 0,0 l/m 4,4 km/h (1 Bft) S 188 0 min 0,000 mm 0,0 UV-I 0 W/m 11,4 C 12,2 C 6,4 km/h (2 Bft) 100,00 %
15.10.2017 21:18 12,2 C 11,7 C 95 % 1026,1 hPa 0,0 l/m 2,6 km/h (1 Bft) S 175 0 min 0,000 mm 0,0 UV-I 0 W/m 11,4 C 12,2 C 6,4 km/h (2 Bft) 100,00 %
15.10.2017 21:20 12,3 C 11,7 C 95 % 1026,1 hPa 0,0 l/m 2,3 km/h (1 Bft) S 175 0 min 0,000 mm 0,0 UV-I 0 W/m 11,5 C 12,3 C 3,2 km/h (1 Bft) 100,00 %
15.10.2017 21:22 12,3 C 11,7 C 95 % 1026,1 hPa 0,0 l/m 3,6 km/h (1 Bft) S-SO 167 0 min 0,000 mm 0,0 UV-I 0 W/m 11,5 C 12,3 C 6,4 km/h (2 Bft) 97,50 %
15.10.2017 21:24 12,4 C 11,7 C 95 % 1026,1 hPa 0,0 l/m 3,0 km/h (1 Bft) S 172 0 min 0,000 mm 0,0 UV-I 0 W/m 11,6 C 12,4 C 6,4 km/h (2 Bft) 97,87 %
15.10.2017 21:26 12,4 C 11,7 C 95 % 1026,1 hPa 0,0 l/m 3,9 km/h (1 Bft) S 180 0 min 0,000 mm 0,0 UV-I 0 W/m 11,6 C 12,4 C 6,4 km/h (2 Bft) 100,00 %
15.10.2017 21:28 12,5 C 11,7 C 95 % 1026,1 hPa 0,0 l/m 3,4 km/h (1 Bft) S 180 0 min 0,000 mm 0,0 UV-I 0 W/m 11,7 C 12,5 C 4,8 km/h (1 Bft) 100,00 %
15.10.2017 21:30 12,6 C 11,7 C 95 % 1026,1 hPa 0,0 l/m 3,7 km/h (1 Bft) S 182 0 min 0,000 mm 0,0 UV-I 0 W/m 11,8 C 12,6 C 6,4 km/h (2 Bft) 100,00 %
15.10.2017 21:32 12,6 C 11,7 C 95 % 1026,1 hPa 0,0 l/m 3,2 km/h (1 Bft) S 182 0 min 0,000 mm 0,0 UV-I 0 W/m 11,8 C 12,6 C 4,8 km/h (1 Bft) 100,00 %
15.10.2017 21:34 12,6 C 11,7 C 95 % 1026,1 hPa 0,0 l/m 4,0 km/h (1 Bft) S 182 0 min 0,000 mm 0,0 UV-I 0 W/m 11,8 C 12,6 C 6,4 km/h (2 Bft) 97,87 %
15.10.2017 21:36 12,5 C 11,7 C 94 % 1026,1 hPa 0,0 l/m 3,5 km/h (1 Bft) S 182 0 min 0,000 mm 0,0 UV-I 0 W/m 11,6 C 12,5 C 4,8 km/h (1 Bft) 100,00 %
15.10.2017 21:38 12,4 C 11,7 C 94 % 1026,1 hPa 0,0 l/m 3,4 km/h (1 Bft) S 182 0 min 0,000 mm 0,0 UV-I 0 W/m 11,5 C 12,4 C 4,8 km/h (1 Bft) 97,87 %
15.10.2017 21:40 12,4 C 11,7 C 94 % 1026,1 hPa 0,0 l/m 4,0 km/h (1 Bft) S-SW 200 0 min 0,000 mm 0,0 UV-I 0 W/m 11,5 C 12,4 C 4,8 km/h (1 Bft) 100,00 %
15.10.2017 21:42 12,3 C 11,7 C 94 % 1026,1 hPa 0,0 l/m 4,5 km/h (1 Bft) S-SW 198 0 min 0,000 mm 0,0 UV-I 0 W/m 11,4 C 12,3 C 6,4 km/h (2 Bft) 100,00 %
15.10.2017 21:44 12,3 C 11,7 C 94 % 1026,0 hPa 0,0 l/m 4,0 km/h (1 Bft) S-SW 198 0 min 0,000 mm 0,0 UV-I 0 W/m 11,4 C 12,3 C 4,8 km/h (1 Bft) 100,00 %
15.10.2017 21:46 12,3 C 11,7 C 94 % 1026,1 hPa 0,0 l/m 4,1 km/h (1 Bft) S-SW 202 0 min 0,000 mm 0,0 UV-I 0 W/m 11,4 C 12,3 C 6,4 km/h (2 Bft) 100,00 %
15.10.2017 21:48 12,2 C 11,7 C 94 % 1026,1 hPa 0,0 l/m 4,4 km/h (1 Bft) S-SW 202 0 min 0,000 mm 0,0 UV-I 0 W/m 11,3 C 12,2 C 6,4 km/h (2 Bft) 100,00 %
15.10.2017 21:50 12,1 C 11,7 C 94 % 1026,1 hPa 0,0 l/m 4,5 km/h (1 Bft) S-SW 202 0 min 0,000 mm 0,0 UV-I 0 W/m 11,2 C 12,1 C 6,4 km/h (2 Bft) 100,00 %
15.10.2017 21:52 12,0 C 11,7 C 94 % 1026,1 hPa 0,0 l/m 3,2 km/h (1 Bft) S 189 0 min 0,000 mm 0,0 UV-I 0 W/m 11,1 C 12,0 C 4,8 km/h (1 Bft) 100,00 %
15.10.2017 21:54 12,0 C 11,7 C 94 % 1026,1 hPa 0,0 l/m 3,5 km/h (1 Bft) S 190 0 min 0,000 mm 0,0 UV-I 0 W/m 11,1 C 12,0 C 6,4 km/h (2 Bft) 100,00 %
15.10.2017 21:56 12,0 C 11,7 C 95 % 1026,0 hPa 0,0 l/m 3,5 km/h (1 Bft) S 190 0 min 0,000 mm 0,0 UV-I 0 W/m 11,2 C 12,0 C 4,8 km/h (1 Bft) 96,67 %
15.10.2017 21:58 12,1 C 11,7 C 95 % 1026,1 hPa 0,0 l/m 3,9 km/h (1 Bft) S-SW 206 0 min 0,000 mm 0,0 UV-I 0 W/m 11,3 C 12,1 C 4,8 km/h (1 Bft) 98,28 %
15.10.2017 22:00 12,1 C 11,7 C 94 % 1026,0 hPa 0,0 l/m 3,4 km/h (1 Bft) S-SW 206 0 min 0,000 mm 0,0 UV-I 0 W/m 11,2 C 12,1 C 4,8 km/h (1 Bft) 97,87 %
15.10.2017 22:02 12,0 C 11,7 C 94 % 1026,0 hPa 0,0 l/m 4,0 km/h (1 Bft) S-SW 206 0 min 0,000 mm 0,0 UV-I 0 W/m 11,1 C 12,0 C 4,8 km/h (1 Bft) 95,24 %
15.10.2017 22:04 12,1 C 11,7 C 95 % 1026,0 hPa 0,0 l/m 3,7 km/h (1 Bft) S-SW 206 0 min 0,000 mm 0,0 UV-I 0 W/m 11,3 C 12,1 C 4,8 km/h (1 Bft) 96,00 %
15.10.2017 22:06 12,0 C 11,7 C 94 % 1026,1 hPa 0,0 l/m 3,0 km/h (1 Bft) S-SW 206 0 min 0,000 mm 0,0 UV-I 0 W/m 11,1 C 12,0 C 4,8 km/h (1 Bft) 98,00 %
15.10.2017 22:08 12,0 C 11,7 C 95 % 1026,0 hPa 0,0 l/m 3,6 km/h (1 Bft) S-SW 205 0 min 0,000 mm 0,0 UV-I 0 W/m 11,2 C 12,0 C 4,8 km/h (1 Bft) 96,00 %
15.10.2017 22:10 11,9 C 11,7 C 94 % 1026,1 hPa 0,0 l/m 4,6 km/h (1 Bft) S-SW 205 0 min 0,000 mm 0,0 UV-I 0 W/m 11,0 C 11,9 C 6,4 km/h (2 Bft) 94,74 %
15.10.2017 22:12 12,0 C 11,7 C 94 % 1026,1 hPa 0,0 l/m 3,9 km/h (1 Bft) S-SW 205 0 min 0,000 mm 0,0 UV-I 0 W/m 11,1 C 12,0 C 6,4 km/h (2 Bft) 98,00 %
15.10.2017 22:14 11,9 C 11,7 C 94 % 1026,1 hPa 0,0 l/m 4,3 km/h (1 Bft) S-SW 205 0 min 0,000 mm 0,0 UV-I 0 W/m 11,0 C 11,9 C 6,4 km/h (2 Bft) 98,11 %
15.10.2017 22:16 11,9 C 11,7 C 94 % 1026,1 hPa 0,0 l/m 3,9 km/h (1 Bft) S-SW 205 0 min 0,000 mm 0,0 UV-I 0 W/m 11,0 C 11,9 C 4,8 km/h (1 Bft) 97,37 %
15.10.2017 22:18 11,9 C 11,7 C 94 % 1026,1 hPa 0,0 l/m 3,8 km/h (1 Bft) S-SW 205 0 min 0,000 mm 0,0 UV-I 0 W/m 11,0 C 11,9 C 6,4 km/h (2 Bft) 96,00 %
15.10.2017 22:20 11,8 C 11,7 C 94 % 1026,1 hPa 0,0 l/m 3,6 km/h (1 Bft) S-SW 205 0 min 0,000 mm 0,0 UV-I 0 W/m 10,9 C 11,8 C 6,4 km/h (2 Bft) 97,87 %
15.10.2017 22:22 11,8 C 11,7 C 94 % 1026,1 hPa 0,0 l/m 3,4 km/h (1 Bft) S-SW 205 0 min 0,000 mm 0,0 UV-I 0 W/m 10,9 C 11,8 C 4,8 km/h (1 Bft) 97,87 %
15.10.2017 22:24 11,8 C 11,7 C 94 % 1026,1 hPa 0,0 l/m 3,6 km/h (1 Bft) S-SW 205 0 min 0,000 mm 0,0 UV-I 0 W/m 10,9 C 11,8 C 4,8 km/h (1 Bft) 98,00 %
15.10.2017 22:26 11,8 C 11,7 C 94 % 1026,1 hPa 0,0 l/m 3,5 km/h (1 Bft) S-SW 202 0 min 0,000 mm 0,0 UV-I 0 W/m 10,9 C 11,8 C 4,8 km/h (1 Bft) 95,74 %
15.10.2017 22:28 11,8 C 11,7 C 94 % 1026,1 hPa 0,0 l/m 3,1 km/h (1 Bft) S-SW 202 0 min 0,000 mm 0,0 UV-I 0 W/m 10,9 C 11,8 C 4,8 km/h (1 Bft) 94,74 %
15.10.2017 22:30 11,7 C 11,7 C 94 % 1026,1 hPa 0,0 l/m 3,2 km/h (1 Bft) S-SW 202 0 min 0,000 mm 0,0 UV-I 0 W/m 10,8 C 11,7 C 4,8 km/h (1 Bft) 98,00 %
15.10.2017 22:32 11,7 C 11,7 C 94 % 1026,1 hPa 0,0 l/m 3,1 km/h (1 Bft) S-SW 202 0 min 0,000 mm 0,0 UV-I 0 W/m 10,8 C 11,7 C 4,8 km/h (1 Bft) 100,00 %
15.10.2017 22:34 11,7 C 11,7 C 95 % 1026,1 hPa 0,0 l/m 3,1 km/h (1 Bft) S-SW 200 0 min 0,000 mm 0,0 UV-I 0 W/m 10,9 C 11,7 C 4,8 km/h (1 Bft) 100,00 %
15.10.2017 22:36 11,7 C 11,7 C 95 % 1026,1 hPa 0,0 l/m 2,7 km/h (1 Bft) S-SW 200 0 min 0,000 mm 0,0 UV-I 0 W/m 10,9 C 11,7 C 4,8 km/h (1 Bft) 100,00 %
15.10.2017 22:38 11,7 C 11,7 C 95 % 1026,1 hPa 0,0 l/m 3,1 km/h (1 Bft) S-SW 200 0 min 0,000 mm 0,0 UV-I 0 W/m 10,9 C 11,7 C 4,8 km/h (1 Bft) 100,00 %
15.10.2017 22:40 11,7 C 11,7 C 95 % 1026,1 hPa 0,0 l/m 3,0 km/h (1 Bft) S-SW 200 0 min 0,000 mm 0,0 UV-I 0 W/m 10,9 C 11,7 C 4,8 km/h (1 Bft) 100,00 %
15.10.2017 22:42 11,6 C 11,7 C 94 % 1026,1 hPa 0,0 l/m 3,3 km/h (1 Bft) S-SW 200 0 min 0,000 mm 0,0 UV-I 0 W/m 10,7 C 11,6 C 4,8 km/h (1 Bft) 98,00 %
15.10.2017 22:44 11,5 C 11,7 C 94 % 1026,1 hPa 0,0 l/m 3,0 km/h (1 Bft) S-SW 200 0 min 0,000 mm 0,0 UV-I 0 W/m 10,6 C 11,5 C 4,8 km/h (1 Bft) 100,00 %
15.10.2017 22:46 11,4 C 11,7 C 94 % 1026,0 hPa 0,0 l/m 2,8 km/h (1 Bft) S-SW 200 0 min 0,000 mm 0,0 UV-I 0 W/m 10,5 C 11,4 C 4,8 km/h (1 Bft) 100,00 %
15.10.2017 22:48 11,3 C 11,7 C 94 % 1026,0 hPa 0,0 l/m 2,5 km/h (1 Bft) S-SW 200 0 min 0,000 mm 0,0 UV-I 0 W/m 10,4 C 11,3 C 4,8 km/h (1 Bft) 100,00 %
15.10.2017 22:50 11,3 C 11,7 C 94 % 1026,0 hPa 0,0 l/m 2,7 km/h (1 Bft) S-SW 200 0 min 0,000 mm 0,0 UV-I 0 W/m 10,4 C 11,3 C 4,8 km/h (1 Bft) 100,00 %
15.10.2017 22:52 11,3 C 11,7 C 95 % 1026,0 hPa 0,0 l/m 2,9 km/h (1 Bft) S-SW 197 0 min 0,000 mm 0,0 UV-I 0 W/m 10,5 C 11,3 C 4,8 km/h (1 Bft) 100,00 %
15.10.2017 22:54 11,2 C 11,7 C 95 % 1026,0 hPa 0,0 l/m 2,5 km/h (1 Bft) S-SW 197 0 min 0,000 mm 0,0 UV-I 0 W/m 10,4 C 11,2 C 4,8 km/h (1 Bft) 100,00 %
15.10.2017 22:56 11,2 C 11,7 C 95 % 1026,0 hPa 0,0 l/m 3,5 km/h (1 Bft) S-SW 197 0 min 0,000 mm 0,0 UV-I 0 W/m 10,4 C 11,2 C 4,8 km/h (1 Bft) 100,00 %
15.10.2017 22:58 11,2 C 11,7 C 95 % 1026,0 hPa 0,0 l/m 3,0 km/h (1 Bft) S-SW 197 0 min 0,000 mm 0,0 UV-I 0 W/m 10,4 C 11,2 C 4,8 km/h (1 Bft) 98,00 %
15.10.2017 23:00 11,2 C 11,7 C 95 % 1026,0 hPa 0,0 l/m 3,5 km/h (1 Bft) S-SW 197 0 min 0,000 mm 0,0 UV-I 0 W/m 10,4 C 11,2 C 4,8 km/h (1 Bft) 98,00 %
15.10.2017 23:02 11,2 C 11,7 C 95 % 1026,0 hPa 0,0 l/m 2,7 km/h (1 Bft) S-SW 196 0 min 0,000 mm 0,0 UV-I 0 W/m 10,4 C 11,2 C 3,2 km/h (1 Bft) 100,00 %
15.10.2017 23:04 11,2 C 11,7 C 95 % 1026,0 hPa 0,0 l/m 2,3 km/h (1 Bft) S-SW 196 0 min 0,000 mm 0,0 UV-I 0 W/m 10,4 C 11,2 C 4,8 km/h (1 Bft) 100,00 %
15.10.2017 23:06 11,2 C 11,7 C 95 % 1026,0 hPa 0,0 l/m 2,4 km/h (1 Bft) S-SW 196 0 min 0,000 mm 0,0 UV-I 0 W/m 10,4 C 11,2 C 4,8 km/h (1 Bft) 100,00 %
15.10.2017 23:08 11,2 C 11,7 C 95 % 1026,0 hPa 0,0 l/m 1,5 km/h (1 Bft) S-SW 196 0 min 0,000 mm 0,0 UV-I 0 W/m 10,4 C 11,2 C 3,2 km/h (1 Bft) 100,00 %
15.10.2017 23:10 11,1 C 11,7 C 95 % 1025,9 hPa 0,0 l/m 1,7 km/h (1 Bft) S-SW 196 0 min 0,000 mm 0,0 UV-I 0 W/m 10,3 C 11,1 C 3,2 km/h (1 Bft) 100,00 %
15.10.2017 23:12 11,1 C 11,7 C 95 % 1025,9 hPa 0,0 l/m 2,0 km/h (1 Bft) S-SW 196 0 min 0,000 mm 0,0 UV-I 0 W/m 10,3 C 11,1 C 3,2 km/h (1 Bft) 100,00 %
15.10.2017 23:14 11,1 C 11,7 C 95 % 1026,0 hPa 0,0 l/m 2,5 km/h (1 Bft) S-SW 196 0 min 0,000 mm 0,0 UV-I 0 W/m 10,3 C 11,1 C 6,4 km/h (2 Bft) 100,00 %
15.10.2017 23:16 11,1 C 11,7 C 95 % 1026,0 hPa 0,0 l/m 3,0 km/h (1 Bft) S-SW 196 0 min 0,000 mm 0,0 UV-I 0 W/m 10,3 C 11,1 C 4,8 km/h (1 Bft) 100,00 %
15.10.2017 23:18 11,1 C 11,7 C 95 % 1025,9 hPa 0,0 l/m 3,1 km/h (1 Bft) S-SW 196 0 min 0,000 mm 0,0 UV-I 0 W/m 10,3 C 11,1 C 4,8 km/h (1 Bft) 100,00 %
15.10.2017 23:20 11,1 C 11,7 C 95 % 1025,9 hPa 0,0 l/m 4,2 km/h (1 Bft) S-SW 196 0 min 0,000 mm 0,0 UV-I 0 W/m 10,3 C 11,1 C 6,4 km/h (2 Bft) 100,00 %
15.10.2017 23:22 11,1 C 11,7 C 95 % 1026,0 hPa 0,0 l/m 3,5 km/h (1 Bft) S 189 0 min 0,000 mm 0,0 UV-I 0 W/m 10,3 C 11,1 C 6,4 km/h (2 Bft) 100,00 %
15.10.2017 23:24 11,2 C 11,7 C 96 % 1025,9 hPa 0,0 l/m 2,7 km/h (1 Bft) S 190 0 min 0,000 mm 0,0 UV-I 0 W/m 10,6 C 11,2 C 4,8 km/h (1 Bft) 100,00 %
15.10.2017 23:26 11,2 C 11,7 C 95 % 1026,0 hPa 0,0 l/m 2,6 km/h (1 Bft) S 189 0 min 0,000 mm 0,0 UV-I 0 W/m 10,4 C 11,2 C 4,8 km/h (1 Bft) 100,00 %
15.10.2017 23:28 11,2 C 11,7 C 95 % 1025,9 hPa 0,0 l/m 2,5 km/h (1 Bft) S 190 0 min 0,000 mm 0,0 UV-I 0 W/m 10,4 C 11,2 C 4,8 km/h (1 Bft) 100,00 %
15.10.2017 23:30 11,1 C 11,7 C 95 % 1025,9 hPa 0,0 l/m 2,0 km/h (1 Bft) S-SO 167 0 min 0,000 mm 0,0 UV-I 0 W/m 10,3 C 11,1 C 4,8 km/h (1 Bft) 100,00 %
15.10.2017 23:32 11,1 C 11,7 C 95 % 1025,9 hPa 0,0 l/m 2,1 km/h (1 Bft) S 169 0 min 0,000 mm 0,0 UV-I 0 W/m 10,3 C 11,1 C 6,4 km/h (2 Bft) 100,00 %
15.10.2017 23:34 11,1 C 11,7 C 95 % 1025,9 hPa 0,0 l/m 1,9 km/h (1 Bft) S-SO 167 0 min 0,000 mm 0,0 UV-I 0 W/m 10,3 C 11,1 C 6,4 km/h (2 Bft) 100,00 %
15.10.2017 23:36 11,2 C 11,7 C 96 % 1025,9 hPa 0,0 l/m 2,6 km/h (1 Bft) S 169 0 min 0,000 mm 0,0 UV-I 0 W/m 10,6 C 11,2 C 6,4 km/h (2 Bft) 97,87 %
15.10.2017 23:38 11,2 C 11,7 C 96 % 1025,9 hPa 0,0 l/m 2,8 km/h (1 Bft) S 177 0 min 0,000 mm 0,0 UV-I 0 W/m 10,6 C 11,2 C 6,4 km/h (2 Bft) 100,00 %
15.10.2017 23:40 11,3 C 11,7 C 96 % 1025,9 hPa 0,0 l/m 3,6 km/h (1 Bft) S-SW 201 0 min 0,000 mm 0,0 UV-I 0 W/m 10,7 C 11,3 C 6,4 km/h (2 Bft) 100,00 %
15.10.2017 23:42 11,4 C 11,7 C 96 % 1025,9 hPa 0,0 l/m 3,2 km/h (1 Bft) S-SW 201 0 min 0,000 mm 0,0 UV-I 0 W/m 10,8 C 11,4 C 4,8 km/h (1 Bft) 100,00 %
15.10.2017 23:44 11,4 C 11,7 C 96 % 1025,9 hPa 0,0 l/m 2,1 km/h (1 Bft) S-SW 201 0 min 0,000 mm 0,0 UV-I 0 W/m 10,8 C 11,4 C 3,2 km/h (1 Bft) 100,00 %
15.10.2017 23:46 11,4 C 11,7 C 95 % 1025,9 hPa 0,0 l/m 1,6 km/h (1 Bft) S-SW 201 0 min 0,000 mm 0,0 UV-I 0 W/m 10,6 C 11,4 C 3,2 km/h (1 Bft) 100,00 %
15.10.2017 23:48 11,3 C 11,7 C 95 % 1025,9 hPa 0,0 l/m 2,1 km/h (1 Bft) S-SW 201 0 min 0,000 mm 0,0 UV-I 0 W/m 10,5 C 11,3 C 3,2 km/h (1 Bft) 100,00 %
15.10.2017 23:50 11,2 C 11,7 C 95 % 1025,9 hPa 0,0 l/m 0,9 km/h (0 Bft) S-SW 201 0 min 0,000 mm 0,0 UV-I 0 W/m 10,4 C 11,2 C 1,6 km/h (1 Bft) 100,00 %
15.10.2017 23:52 11,1 C 11,7 C 95 % 1025,9 hPa 0,0 l/m 0,3 km/h (0 Bft) S-SW 201 0 min 0,000 mm 0,0 UV-I 0 W/m 10,3 C 11,1 C 3,2 km/h (1 Bft) 100,00 %
15.10.2017 23:54 11,1 C 11,7 C 95 % 1025,9 hPa 0,0 l/m 0,2 km/h (0 Bft) S-SW 201 0 min 0,000 mm 0,0 UV-I 0 W/m 10,3 C 11,1 C 1,6 km/h (1 Bft) 100,00 %
15.10.2017 23:56 11,1 C 11,7 C 95 % 1025,9 hPa 0,0 l/m 0,4 km/h (0 Bft) S-SW 201 0 min 0,000 mm 0,0 UV-I 0 W/m 10,3 C 11,1 C 1,6 km/h (1 Bft) 100,00 %
15.10.2017 23:58 11,1 C 11,7 C 95 % 1026,0 hPa 0,0 l/m 0,7 km/h (0 Bft) S-SW 201 0 min 0,000 mm 0,0 UV-I 0 W/m 10,3 C 11,1 C 1,6 km/h (1 Bft) 100,00 %
_ Min-Zeit 05:34 00:00 15:32 16:32 - 00:00 - - - - - - 05:34 05:34 00:00 02:56
Minimum _ 6,7 C 11,7 C 67 % 1025,6 hPa - 0,0 km/h (0 Bft) - - - - - - 6,1 C 6,7 C 0,0 km/h (0 Bft) 89,47 %
_ Max-Zeit 15:36 00:00 08:38 11:12 07:54 14:28 - - 14:14 14:00 12:46 12:50 15:38 15:24 14:22 00:00
Maximum _ 19,4 C 11,7 C 98 % 1028,4 hPa 0,2 l/m 7,4 km/h
O-NO (2 Bft)
- - 4 min 0,305 mm 2,6 UV-I 555 W/m 13,9 C 19,3 C 11,3 km/h
O (2 Bft)
100,00 %
Durchschnitt _ 11,7 C 11,7 C 90 % 1027,2 hPa #0,2 l/m 1,7 km/h (1 Bft) O-NO - #6:54 h #1,702 mm 1,6 UV-I 269 W/m 10,0 C 11,7 C 3,0 km/h (1 Bft) 98,21 %